[[{"header":{"parameterUnit":"m.s-1","parameterCategory":1,"la1":30.6,"la2":28.766,"lo1":-90.7593,"lo2":-88.6598,"dy":0.0162,"dx":0.0183,"nx":116,"ny":114,"refTime":"2023-07-28T06:00:00:Z","depth":0,"parameterNumber":2,"parameterNumberName":"U-component_of_WINDS"},"data":[0.0,0.0,0.0,0.0,0.0,0.0,0.0,0.0,0.0,0.0,0.0,0.0,0.0,0.0,0.0,0.0,0.0,0.0,0.0,0.0,0.0,0.0,0.0,0.0,0.0,0.0,0.0,0.0,0.0,0.0,0.0,0.0,0.0,0.0,0.0,0.0,0.0,0.0,0.0,0.0,0.0,0.0,0.0,0.0,0.0,0.0,0.0,0.0,0.0,0.0,0.0,0.0,0.0,0.0,0.0,0.0,0.0,0.0,0.0,0.0,0.0,0.0,0.0,0.0,0.0,0.0,0.0,0.0,0.0,0.0,0.0,0.0,0.0,0.0,0.0,0.0,0.0,0.0,0.0,0.0,0.0,0.0,0.0,0.0,0.0,0.0,0.0,0.0,0.0,0.0,0.0,0.0,0.0,0.0,0.0,0.0,0.0,0.0,0.0,0.0,0.0,0.0,0.0,0.0,0.0,0.0,0.0,0.0,0.0,0.0,0.0,0.0,0.0,0.0,0.0,0.0,0.0,0.0,0.0,0.0,0.0,0.0,0.0,0.0,0.0,0.0,0.0,0.0,0.0,0.0,0.0,0.0,0.0,0.0,0.0,0.0,0.0,0.0,0.0,0.0,0.0,0.0,0.0,0.0,0.0,0.0,0.0,0.0,0.0,0.0,0.0,0.0,0.0,0.0,0.0,0.0,0.0,0.0,0.0,0.0,0.0,0.0,0.0,0.0,0.0,0.0,0.0,0.0,0.0,0.0,0.0,0.0,0.0,0.0,0.0,0.0,0.0,0.0,0.0,0.0,0.0,0.0,0.0,0.0,0.0,0.0,0.0,0.0,0.0,0.0,0.0,0.0,0.0,0.0,0.0,0.0,0.0,0.0,0.0,0.0,0.0,0.0,0.0,0.0,0.0,0.0,0.0,0.0,0.0,0.0,0.0,0.0,0.0,0.0,0.0,0.0,0.0,0.0,0.0,0.0,0.0,0.0,0.0,0.0,0.0,0.0,0.0,0.0,0.0,0.0,0.0,0.0,0.0,0.0,0.0,0.0,0.0,0.0,0.0,0.0,0.0,0.0,0.0,0.0,0.0,0.0,0.0,0.0,0.0,0.0,0.0,0.0,0.0,0.0,0.0,0.0,0.0,0.0,0.0,0.0,0.0,0.0,0.0,0.0,0.0,0.0,0.0,0.0,0.0,0.0,0.0,0.0,0.0,0.0,0.0,0.0,0.0,0.0,0.0,0.0,0.0,0.0,0.0,0.0,0.0,0.0,0.0,0.0,0.0,0.0,0.0,0.0,0.0,0.0,0.0,0.0,0.0,0.0,0.0,0.0,0.0,0.0,0.0,0.0,0.0,0.0,0.0,0.0,0.0,0.0,0.0,0.0,0.0,0.0,0.0,0.0,0.0,0.0,0.0,0.0,0.0,0.0,0.0,0.0,0.0,0.0,0.0,0.0,0.0,0.0,0.0,0.0,0.0,0.0,0.0,0.0,0.0,0.0,0.0,0.0,0.0,0.0,0.0,0.0,0.0,0.0,0.0,0.0,0.0,0.0,0.0,0.0,0.0,0.0,0.0,0.0,0.0,0.0,0.0,0.0,0.0,0.0,0.0,0.0,0.0,0.0,0.0,0.0,0.0,0.0,0.0,0.0,0.0,0.0,0.0,0.0,0.0,0.0,0.0,0.0,0.0,0.0,0.0,0.0,0.0,0.0,0.0,0.0,0.0,0.0,0.0,0.0,0.0,0.0,0.0,0.0,0.0,0.0,0.0,0.0,0.0,0.0,0.0,0.0,0.0,0.0,0.0,0.0,0.0,0.0,0.0,0.0,0.0,0.0,0.0,0.0,0.0,0.0,0.0,0.0,0.0,0.0,0.0,0.0,0.0,0.0,0.0,0.0,0.0,0.0,0.0,0.0,0.0,0.0,0.0,0.0,0.0,0.0,0.0,0.0,0.0,0.0,0.0,0.0,0.0,0.0,0.0,0.0,0.0,0.0,0.0,0.0,0.0,0.0,0.0,0.0,0.0,0.0,0.0,0.0,0.0,0.0,0.0,0.0,0.0,0.0,0.0,0.0,0.0,0.0,0.0,0.0,0.0,0.0,0.0,0.0,0.0,0.0,0.0,0.0,0.0,0.0,0.0,0.0,0.0,0.0,0.0,0.0,0.0,0.0,0.0,0.0,0.0,0.0,0.0,0.0,0.0,0.0,0.0,0.0,0.0,0.0,0.0,0.0,0.0,0.0,0.0,0.0,0.0,0.0,0.0,0.0,0.0,0.0,0.0,0.0,0.0,0.0,0.0,0.0,0.0,0.0,0.0,0.0,0.0,0.0,0.0,0.0,0.0,0.0,0.0,0.0,0.0,0.0,0.0,0.0,0.0,0.0,0.0,0.0,0.0,0.0,0.0,0.0,0.0,0.0,0.0,0.0,0.0,0.0,0.0,0.0,0.0,0.0,0.0,0.0,0.0,0.0,0.0,0.0,0.0,0.0,0.0,0.0,0.0,0.0,0.0,0.0,0.0,0.0,0.0,0.0,0.0,0.0,0.0,0.0,0.0,0.0,0.0,0.0,0.0,0.0,0.0,0.0,0.0,0.0,0.0,0.0,0.0,0.0,0.0,0.0,0.0,0.0,0.0,0.0,0.0,0.0,0.0,0.0,0.0,0.0,0.0,0.0,0.0,0.0,0.0,0.0,0.0,0.0,0.0,0.0,0.0,0.0,0.0,0.0,0.0,0.0,0.0,0.0,0.0,0.0,0.0,0.0,0.0,0.0,0.0,0.0,0.0,0.0,0.0,0.0,0.0,0.0,0.0,0.0,0.0,0.0,0.0,0.0,0.0,0.0,0.0,0.0,0.0,0.0,0.0,0.0,0.0,0.0,0.0,0.0,0.0,0.0,0.0,0.0,0.0,0.0,0.0,0.0,0.0,0.0,0.0,0.0,0.0,0.0,0.0,0.0,0.0,0.0,0.0,0.0,0.0,0.0,0.0,0.0,0.0,0.0,0.0,0.0,0.0,0.0,0.0,0.0,0.0,0.0,0.0,0.0,0.0,0.0,0.0,0.0,0.0,0.0,0.0,0.0,0.0,0.0,0.0,0.0,0.0,0.0,0.0,0.0,0.0,0.0,0.0,0.0,0.0,0.0,0.0,0.0,0.0,0.0,0.0,0.0,0.0,0.0,0.0,0.0,0.0,0.0,0.0,0.0,0.0,0.0,0.0,0.0,0.0,0.0,0.0,0.0,0.0,0.0,0.0,0.0,0.0,0.0,0.0,0.0,0.0,0.0,0.0,0.0,0.0,0.0,0.0,0.0,0.0,0.0,0.0,0.0,0.0,0.0,0.0,0.0,0.0,0.0,0.0,0.0,0.0,0.0,0.0,0.0,0.0,0.0,0.0,0.0,0.0,0.0,0.0,0.0,0.0,0.0,0.0,0.0,0.0,0.0,0.0,0.0,0.0,0.0,0.0,0.0,0.0,0.0,0.0,0.0,0.0,0.0,0.0,0.0,0.0,0.0,0.0,0.0,0.0,0.0,0.0,0.0,0.0,0.0,0.0,0.0,0.0,0.0,0.0,0.0,0.0,0.0,0.0,0.0,0.0,0.0,0.0,0.0,0.0,0.0,0.0,0.0,0.0,0.0,0.0,0.0,0.0,0.0,0.0,0.0,0.0,0.0,0.0,0.0,0.0,0.0,0.0,0.0,0.0,0.0,0.0,0.0,0.0,0.0,0.0,0.0,0.0,0.0,0.0,0.0,0.0,0.0,0.0,0.0,0.0,0.0,0.0,0.0,0.0,0.0,0.0,0.0,0.0,0.0,0.0,0.0,0.0,0.0,0.0,0.0,0.0,0.0,0.0,0.0,0.0,0.0,0.0,0.0,0.0,0.0,0.0,0.0,0.0,0.0,0.0,0.0,0.0,0.0,0.0,0.0,0.0,0.0,0.0,0.0,0.0,0.0,0.0,0.0,0.0,0.0,0.0,0.0,0.0,0.0,0.0,0.0,0.0,0.0,0.0,0.0,0.0,0.0,0.0,0.0,0.0,0.0,0.0,0.0,0.0,0.0,0.0,0.0,0.0,0.0,0.0,0.0,0.0,0.0,0.0,0.0,0.0,0.0,0.0,0.0,0.0,0.0,0.0,0.0,0.0,0.0,0.0,0.0,0.0,0.0,0.0,0.0,0.0,0.0,0.0,0.0,0.0,0.0,0.0,0.0,0.0,0.0,0.0,0.0,0.0,0.0,0.0,0.0,0.0,0.0,0.0,0.0,0.0,0.0,0.0,0.0,0.0,0.0,0.0,0.0,0.0,0.0,0.0,0.0,0.0,0.0,0.0,0.0,0.0,0.0,0.0,0.0,0.0,0.0,0.0,0.0,0.0,0.0,0.0,0.0,0.0,0.0,0.0,0.0,0.0,0.0,0.0,0.0,0.0,0.0,0.0,0.0,0.0,0.0,0.0,0.0,0.0,0.0,0.0,0.0,0.0,0.0,0.0,0.0,0.0,0.0,0.0,0.0,0.0,0.0,0.0,0.0,0.0,0.0,0.0,0.0,0.0,0.0,0.0,0.0,0.0,0.0,0.0,0.0,0.0,0.0,0.0,0.0,0.0,0.0,0.0,0.0,0.0,0.0,0.0,0.0,0.0,0.0,0.0,0.0,0.0,0.0,0.0,0.0,0.0,0.0,0.0,0.0,0.0,0.0,0.0,0.0,0.0,0.0,0.0,0.0,0.0,0.0,0.0,0.0,0.0,0.0,0.0,0.0,0.0,0.0,0.0,0.0,0.0,0.0,0.0,0.0,0.0,0.0,0.0,0.0,0.0,0.0,0.0,0.0,0.0,0.0,0.0,0.0,0.0,0.0,0.0,0.0,0.0,0.0,0.0,0.0,0.0,0.0,0.0,0.0,0.0,0.0,0.0,0.0,0.0,0.0,0.0,0.0,0.0,0.0,0.0,0.0,0.0,0.0,0.0,0.0,0.0,0.0,0.0,0.0,0.0,0.0,0.0,0.0,0.0,0.0,0.0,0.0,0.0,0.0,0.0,0.0,0.0,0.0,0.0,0.0,0.0,0.0,0.0,0.0,0.0,0.0,0.0,0.0,0.0,0.0,0.0,0.0,0.0,0.0,0.0,0.0,0.0,0.0,0.0,0.0,0.0,0.0,0.0,0.0,0.0,0.0,0.0,0.0,0.0,0.0,0.0,0.0,0.0,0.0,0.0,0.0,0.0,0.0,0.0,0.0,0.0,0.0,0.0,0.0,0.0,0.0,0.0,0.0,0.0,0.0,0.0,0.0,0.0,0.0,0.0,0.0,0.0,0.0,0.0,0.0,0.0,0.0,0.0,0.0,0.0,0.0,0.0,0.0,0.0,0.0,0.0,0.0,0.0,0.0,0.0,0.0,0.0,0.0,0.0,0.0,0.0,0.0,0.0,0.0,0.0,0.0,0.0,0.0,0.0,0.0,0.0,0.0,0.0,0.0,0.0,0.0,0.0,0.0,0.0,0.0,0.0,0.0,0.0,0.0,0.0,0.0,0.0,0.0,0.0,0.0,0.0,0.0,0.0,0.0,0.0,0.0,0.0,0.0,0.0,0.0,0.0,0.0,0.0,0.0,0.0,0.0,0.0,0.0,0.0,0.0,0.0,0.0,0.0,0.0,0.0,0.0,0.0,0.0,0.0,0.0,0.0,0.0,0.0,0.0,0.0,0.0,0.0,0.0,0.0,0.0,0.0,0.0,0.0,0.0,0.0,0.0,0.0,0.0,0.0,0.0,0.0,0.0,0.0,0.0,0.0,0.0,0.0,0.0,0.0,0.0,0.0,0.0,0.0,0.0,0.0,0.0,0.0,0.0,0.0,0.0,0.0,0.0,0.0,0.0,0.0,0.0,0.0,0.0,0.0,0.0,0.0,0.0,0.0,0.0,0.0,0.0,0.0,0.0,0.0,0.0,0.0,0.0,0.0,0.0,0.0,0.0,0.0,0.0,0.0,0.0,0.0,0.0,0.0,0.0,0.0,0.0,0.0,0.0,0.0,0.0,0.0,0.0,0.0,0.0,0.0,0.0,0.0,0.0,0.0,0.0,0.0,0.0,0.0,0.0,0.0,0.0,-1.6228,0.0,0.0,0.0,0.0,0.0,0.0,0.0,0.0,0.0,0.0,0.0,0.0,0.0,0.0,0.0,0.0,0.0,0.0,0.0,0.0,0.0,0.0,0.0,0.0,0.0,0.0,0.0,0.0,0.0,0.0,0.0,0.0,0.0,0.0,0.0,0.0,0.0,0.0,0.0,0.0,0.0,0.0,0.0,0.0,0.0,0.0,0.0,0.0,0.0,0.0,0.0,0.0,0.0,0.0,0.0,0.0,0.0,0.0,0.0,0.0,0.0,0.0,0.0,0.0,0.0,0.0,0.0,0.0,0.0,0.0,0.0,0.0,0.0,0.0,0.0,0.0,0.0,0.0,0.0,0.0,0.0,0.0,0.0,0.0,0.0,0.0,0.0,0.0,0.0,0.0,0.0,0.0,0.0,0.0,0.0,0.0,0.0,0.0,0.0,0.0,0.0,0.0,0.0,0.0,0.0,0.0,0.0,0.0,0.0,0.0,0.0,0.0,0.0,0.0,0.0,0.0,-1.6991,0.0,0.0,0.0,0.0,0.0,0.0,0.0,0.0,0.0,0.0,0.0,0.0,0.0,0.0,0.0,0.0,0.0,0.0,0.0,0.0,0.0,0.0,0.0,0.0,0.0,0.0,0.0,0.0,0.0,0.0,0.0,0.0,0.0,0.0,0.0,0.0,0.0,0.0,0.0,0.0,0.0,0.0,0.0,0.0,0.0,0.0,0.0,0.0,0.0,0.0,0.0,0.0,0.0,0.0,0.0,0.0,0.0,0.0,0.0,0.0,0.0,0.0,0.0,0.0,0.0,0.0,0.0,0.0,0.0,0.0,0.0,0.0,0.0,0.0,0.0,0.0,0.0,0.0,0.0,0.0,0.0,0.0,0.0,0.0,0.0,0.0,0.0,0.0,0.0,0.0,0.0,0.0,0.0,0.0,0.0,0.0,0.0,0.0,0.0,0.0,0.0,0.0,0.0,0.0,0.0,0.0,0.0,0.0,-2.1186,-2.1176,-2.1031,-2.1031,-2.1031,-2.0885,-1.9203,-1.8268,-1.7754,-1.7027,0.0,0.0,0.0,0.0,0.0,0.0,0.0,0.0,0.0,0.0,0.0,0.0,0.0,0.0,0.0,0.0,0.0,0.0,0.0,0.0,0.0,0.0,0.0,0.0,0.0,0.0,0.0,0.0,0.0,0.0,0.0,0.0,0.0,0.0,0.0,0.0,0.0,0.0,-1.4975,-1.5022,-1.5284,-1.5682,-1.4776,0.0,0.0,0.0,0.0,0.0,0.0,0.0,0.0,0.0,0.0,0.0,0.0,0.0,0.0,0.0,0.0,0.0,0.0,0.0,0.0,0.0,0.0,0.0,0.0,0.0,0.0,0.0,0.0,0.0,0.0,0.0,0.0,0.0,0.0,0.0,0.0,0.0,0.0,0.0,0.0,0.0,0.0,0.0,-1.6746,-1.6415,0.0,0.0,0.0,0.0,0.0,0.0,0.0,0.0,0.0,0.0,0.0,0.0,0.0,-2.1714,-2.2635,-2.3422,-2.3691,-2.3432,-2.4219,-2.4188,-2.3422,-2.3422,-2.3422,-2.3391,-2.2732,0.0,-1.833,-1.706,0.0,0.0,0.0,0.0,0.0,0.0,0.0,0.0,0.0,0.0,0.0,0.0,0.0,0.0,0.0,0.0,0.0,0.0,0.0,0.0,0.0,0.0,0.0,0.0,0.0,0.0,0.0,0.0,0.0,0.0,0.0,0.0,0.0,0.0,0.0,0.0,-1.414,-1.5125,-1.6365,-1.6555,-1.7008,-1.7668,-1.7413,-1.6698,-1.5642,-1.5189,0.0,0.0,0.0,0.0,0.0,0.0,0.0,0.0,0.0,0.0,0.0,0.0,0.0,0.0,0.0,0.0,0.0,0.0,0.0,0.0,0.0,0.0,0.0,0.0,0.0,0.0,0.0,0.0,0.0,0.0,0.0,0.0,0.0,0.0,0.0,0.0,0.0,0.0,0.0,-1.6984,-1.7264,-1.6808,-1.7367,-1.7698,0.0,0.0,0.0,0.0,0.0,0.0,0.0,0.0,0.0,-2.2635,-2.2863,-2.3525,-2.4695,-2.5099,-2.5451,-2.5782,-2.6185,-2.603,-2.5388,-2.5388,-2.5244,-2.4995,-2.4257,-2.2894,-2.1045,-1.9581,-1.8438,-1.7529,0.0,0.0,0.0,0.0,-1.7908,-1.8044,0.0,0.0,0.0,0.0,0.0,0.0,0.0,0.0,0.0,0.0,0.0,0.0,0.0,0.0,0.0,-1.4514,0.0,0.0,0.0,0.0,0.0,0.0,0.0,0.0,0.0,0.0,0.0,-1.4514,-1.5324,-1.6389,-1.7683,-1.8105,-1.8684,-1.9376,-1.9741,-1.8732,-1.673,-1.646,-1.5793,0.0,0.0,0.0,0.0,0.0,0.0,0.0,0.0,0.0,0.0,0.0,0.0,0.0,0.0,0.0,0.0,0.0,0.0,0.0,0.0,0.0,0.0,0.0,0.0,0.0,0.0,0.0,0.0,0.0,0.0,0.0,0.0,0.0,0.0,0.0,0.0,0.0,0.0,-1.7429,-1.7864,-1.7224,-1.8319,-1.8858,0.0,0.0,0.0,0.0,0.0,0.0,-2.1797,-2.2697,-2.3619,-2.454,-2.4685,-2.5337,-2.6568,-2.6693,-2.7107,-2.7779,-2.7779,-2.7541,-2.7086,-2.6972,-2.6662,-2.6216,-2.5329,-2.4625,-2.3997,-2.1912,-2.0101,-1.8727,-1.8394,-1.8169,-1.8067,-1.8687,-1.902,-1.9334,0.0,0.0,0.0,0.0,0.0,0.0,0.0,0.0,0.0,0.0,0.0,0.0,0.0,0.0,-1.449,-1.5559,-1.5348,-1.5181,0.0,0.0,0.0,0.0,0.0,0.0,0.0,0.0,0.0,-1.5594,-1.6659,-1.7715,-1.8764,-1.9439,-2.0138,-2.0829,-2.1187,-2.0718,-1.959,-1.8589,-1.7763,-1.7,0.0,0.0,0.0,0.0,0.0,0.0,0.0,0.0,0.0,0.0,0.0,0.0,0.0,0.0,0.0,0.0,0.0,0.0,0.0,0.0,0.0,0.0,0.0,0.0,0.0,0.0,0.0,0.0,0.0,0.0,0.0,0.0,0.0,0.0,0.0,0.0,0.0,0.0,0.0,-1.774,-1.9634,0.0,0.0,0.0,0.0,-2.2221,-2.276,-2.3246,-2.3712,-2.4602,-2.5502,-2.6403,-2.6858,-2.7531,-2.8462,-2.8907,-2.9156,-2.9197,-2.9197,-2.8959,-2.8493,-2.8059,-2.7614,-2.7158,-2.6599,-2.6392,-2.6136,-2.2707,-2.0241,-1.8745,-1.9082,-1.8691,-1.7886,-1.8699,-1.9584,-2.0314,0.0,0.0,0.0,0.0,0.0,0.0,0.0,0.0,0.0,0.0,0.0,0.0,0.0,-1.5056,-1.5801,-1.6635,-1.7215,-1.7048,-1.592,0.0,0.0,0.0,0.0,0.0,0.0,0.0,-1.5531,-1.7024,-1.7866,-1.8812,-1.9844,-2.0321,-2.0805,-2.129,-2.1862,-2.1775,-2.1131,-1.9852,-1.8772,-1.7795,-1.6158,-1.4935,0.0,0.0,0.0,0.0,0.0,0.0,0.0,0.0,0.0,0.0,0.0,0.0,0.0,0.0,0.0,0.0,0.0,0.0,0.0,0.0,0.0,0.0,0.0,0.0,0.0,0.0,0.0,0.0,0.0,0.0,0.0,0.0,0.0,0.0,0.0,0.0,0.0,-2.0772,-2.2553,0.0,-2.2894,-2.3401,-2.3774,-2.3805,-2.4778,-2.544,-2.5595,-2.6475,-2.7386,-2.8307,-2.8493,-2.8876,-2.9497,-2.9673,-2.9746,-2.9746,-2.9746,-2.9508,-2.9042,-2.8576,-2.8121,-2.7655,-2.7158,-2.6796,-2.6517,-2.5209,-2.3801,-2.2412,-2.2591,-2.2103,-2.1325,-2.1945,-2.2381,-2.2686,0.0,0.0,0.0,0.0,0.0,0.0,0.0,0.0,0.0,0.0,0.0,-1.3537,-1.4697,-1.5864,-1.6953,-1.7898,-1.839,-1.8057,-1.6659,0.0,0.0,0.0,0.0,0.0,0.0,-1.5404,-1.6627,-1.8128,-1.8955,-1.9773,-2.0583,-2.1052,-2.1465,-2.1822,-2.241,-2.2537,-2.2251,-2.1195,-2.0075,-1.8875,-1.735,-1.6397,-1.5697,0.0,0.0,0.0,0.0,0.0,0.0,0.0,0.0,0.0,0.0,0.0,0.0,0.0,0.0,0.0,0.0,0.0,0.0,0.0,0.0,0.0,0.0,0.0,0.0,0.0,0.0,0.0,0.0,0.0,0.0,0.0,0.0,0.0,0.0,0.0,-2.2335,-2.3091,-2.4933,-2.5896,-2.5285,-2.5927,-2.6248,-2.5937,-2.6889,-2.7489,-2.7489,-2.8214,-2.898,-2.9746,-2.9766,-2.9922,-3.0222,-3.0232,-3.0149,-2.9994,-2.9994,-2.9746,-2.929,-2.8825,-2.8359,-2.7903,-2.7448,-2.7086,-2.6806,-2.6806,-2.6082,-2.4887,-2.4461,-2.3599,-2.2735,-2.3033,-2.3398,-2.3693,0.0,0.0,0.0,0.0,0.0,0.0,0.0,0.0,0.0,0.0,-1.2655,-1.3656,-1.5062,-1.646,-1.7858,-1.9256,-1.8692,-1.7977,-1.7302,-1.5594,0.0,0.0,0.0,0.0,-1.5229,-1.6611,-1.7834,-1.8875,-1.9908,-2.0591,-2.0948,-2.1648,-2.2164,-2.2521,-2.2887,-2.3046,-2.3022,-2.268,-2.1751,-2.0408,-1.9312,-1.8653,-1.8089,0.0,0.0,0.0,0.0,0.0,0.0,0.0,0.0,0.0,0.0,0.0,0.0,0.0,0.0,0.0,0.0,0.0,0.0,0.0,0.0,0.0,0.0,0.0,0.0,0.0,0.0,0.0,0.0,0.0,0.0,0.0,0.0,0.0,-2.0534,-2.2522,-2.4157,-2.4633,-2.6662,-2.7686,-2.6806,-2.7935,-2.8711,-2.87,-2.9125,-2.9384,-2.9373,-2.9798,-3.0243,-3.0698,-3.0708,-3.0698,-3.0688,-3.0688,-3.045,-2.9994,-2.9994,-2.9766,-2.9311,-2.8835,-2.8369,-2.7914,-2.7458,-2.7262,-2.7262,-2.7241,-2.6703,-2.5743,-2.4386,-2.3041,-2.1784,-2.1784,-2.2394,-2.327,0.0,0.0,0.0,0.0,0.0,0.0,0.0,0.0,0.0,0.0,-1.2917,-1.4363,-1.5769,-1.6945,-1.8105,-1.9272,-1.8263,-1.7366,-1.6913,0.0,0.0,0.0,0.0,0.0,-1.6667,-1.7819,-1.8915,-1.9963,-2.0512,-2.0956,-2.1322,-2.2021,-2.2529,-2.2895,-2.3499,-2.3769,-2.3761,-2.3665,-2.3403,-2.2863,-2.079,-1.9447,-1.8533,0.0,0.0,0.0,0.0,0.0,0.0,0.0,0.0,0.0,0.0,0.0,0.0,0.0,0.0,0.0,0.0,0.0,0.0,0.0,0.0,0.0,0.0,0.0,0.0,0.0,0.0,0.0,0.0,0.0,0.0,0.0,0.0,-2.3298,-2.2977,-2.4892,-2.6744,-2.7862,-2.9435,-3.0325,-3.0077,-3.0688,-3.0967,-3.0636,-3.1029,-3.1153,-3.0822,-3.0926,-3.106,-3.1184,-3.1184,-3.1029,-3.0688,-3.0688,-3.045,-2.9994,-2.9994,-2.9922,-2.9777,-2.898,-2.8545,-2.838,-2.7593,-2.7262,-2.7231,-2.69,-2.6413,-2.5865,-2.546,-2.4672,-2.3744,-2.3744,-2.3917,-2.4176,0.0,0.0,0.0,0.0,0.0,0.0,0.0,0.0,0.0,0.0,-1.2893,-1.4371,-1.5642,-1.6849,-1.7811,-1.8446,-1.7477,-1.6555,-1.5826,0.0,0.0,0.0,0.0,-1.6269,-1.789,-1.8804,-1.9701,-2.0615,-2.0972,-2.1322,-2.1679,-2.2378,-2.2895,-2.326,-2.3808,-2.4055,-2.4055,-2.4055,-2.4055,-2.3927,-2.2498,-2.1473,-2.0639,-1.9153,-1.8319,-1.7834,-1.6841,-1.669,-1.6849,-1.6087,0.0,0.0,0.0,0.0,0.0,0.0,0.0,0.0,0.0,0.0,0.0,0.0,0.0,0.0,0.0,0.0,0.0,0.0,0.0,0.0,0.0,0.0,0.0,0.0,-2.4416,-2.6072,-2.6403,-2.7583,-2.8845,-3.0036,-3.105,-3.165,-3.165,-3.2064,-3.2137,-3.1692,-3.1899,-3.1847,-3.1402,-3.1381,-3.1464,-3.165,-3.165,-3.1526,-3.1257,-3.1071,-3.0739,-3.0284,-3.0087,-2.9994,-2.9973,-2.9239,-2.8794,-2.8576,-2.7852,-2.7438,-2.7241,-2.6972,-2.6465,0.0,0.0,0.0,0.0,0.0,-2.454,-2.454,0.0,0.0,0.0,0.0,0.0,0.0,0.0,0.0,0.0,0.0,0.0,-1.3918,-1.4951,-1.6254,-1.7072,-1.7151,-1.6428,-1.5554,0.0,0.0,0.0,-1.4767,-1.6222,-1.7588,-1.8915,-1.963,-2.0289,-2.0925,-2.1282,-2.1624,-2.1973,-2.272,-2.326,-2.3618,-2.3999,-2.4174,-2.4174,-2.4174,-2.4174,-2.4166,-2.4126,-2.3856,-2.3276,-2.1354,-2.0583,-2.0337,-1.897,-1.8184,-1.7731,-1.7247,0.0,0.0,0.0,0.0,0.0,0.0,0.0,0.0,0.0,0.0,0.0,0.0,0.0,0.0,0.0,0.0,0.0,0.0,0.0,0.0,0.0,0.0,0.0,0.0,-2.6855,-2.86,-2.9815,-3.0158,-3.0584,-3.136,-3.1847,-3.2116,-3.2116,-3.2489,-3.2561,-3.2147,-3.2116,-3.195,-3.1547,0.0,0.0,0.0,0.0,-3.2095,-3.2043,-3.165,-3.1215,-3.076,-3.0294,-3.0067,-3.0056,-2.9539,-2.9073,-2.8659,-2.8152,-2.7696,-2.7324,-2.722,-2.6641,-2.5761,-2.5326,-2.4902,-2.454,-2.454,-2.454,-2.454,0.0,0.0,0.0,0.0,0.0,0.0,0.0,0.0,0.0,-1.1439,-1.248,-1.3473,-1.4236,-1.5078,-1.5809,-1.6365,-1.5253,-1.4307,0.0,0.0,-1.4998,-1.6277,-1.7676,-1.8812,-1.9646,-2.0353,-2.0782,-2.0925,-2.1282,-2.1624,-2.1981,-2.2974,-2.3626,-2.3983,-2.4619,-2.4905,-2.4905,-2.4905,-2.4905,-2.4881,-2.4595,-2.3935,-2.3038,-2.2347,-2.1735,-2.1099,-1.9963,-2.0202,-2.0869,-1.9669,-1.9494,-1.9533,-1.8009,0.0,0.0,0.0,0.0,0.0,0.0,0.0,0.0,0.0,0.0,0.0,0.0,0.0,0.0,0.0,0.0,0.0,0.0,0.0,0.0,-2.445,-2.7696,-3.0161,-3.0125,-3.1268,-3.2126,-3.193,-3.2323,-3.2602,-3.2602,-3.2685,-3.2696,-3.2602,-3.2602,-3.2561,-3.2468,-3.2468,-3.2509,-3.2592,-3.2602,-3.2416,-3.2043,-3.195,-3.1692,-3.1236,0.0,0.0,-3.0522,-2.9684,-2.9259,-2.9125,-2.8286,-2.7872,-2.7738,-2.7003,-2.6175,-2.5316,-2.4861,-2.4623,-2.454,-2.454,-2.454,-2.454,0.0,0.0,0.0,0.0,0.0,0.0,0.0,0.0,0.0,0.0,-1.2011,-1.2822,-1.3529,-1.3926,-1.4275,-1.4617,-1.368,0.0,0.0,-1.4673,-1.5864,-1.7453,-1.8692,-1.9677,-2.0377,-2.0742,-2.0925,-2.0925,-2.1449,-2.1886,-2.2243,-2.3308,-2.3983,-2.4341,-2.4873,-2.5111,-2.5111,-2.5111,-2.5008,-2.4825,-2.465,-2.4063,-2.326,-2.3077,-2.2577,-2.1878,-2.1163,-2.125,-2.1568,-2.0686,-2.1018,-2.1595,-2.0395,-1.997,-1.9668,0.0,0.0,0.0,0.0,0.0,0.0,0.0,0.0,0.0,0.0,0.0,0.0,0.0,0.0,-2.1554,0.0,0.0,-2.6921,-2.6902,-2.8838,-3.0681,-3.1345,-3.1637,-3.1927,-3.2293,-3.2592,-3.2727,-3.2727,-3.2727,-3.2727,-3.2727,-3.2727,-3.2727,-3.2727,-3.2727,-3.2727,-3.2727,-3.2727,-3.2623,-3.2385,-3.2157,-3.193,-3.1702,-3.1019,-3.0688,-3.0667,-2.9963,-2.9394,-2.8928,-2.8473,-2.8007,-2.7521,-2.6599,-2.5958,-2.5482,-2.4809,-2.454,-2.454,-2.454,-2.454,-2.454,0.0,0.0,0.0,0.0,0.0,0.0,0.0,0.0,0.0,0.0,-1.1584,-1.2126,-1.2827,-1.2845,-1.2782,0.0,0.0,0.0,0.0,-1.5261,-1.6667,-1.843,-1.9511,-2.0337,-2.0909,-2.0925,-2.0925,-2.0925,-2.1616,-2.21,-2.241,-2.353,-2.4206,-2.4499,-2.4921,-2.5111,-2.5111,-2.5111,-2.4944,-2.4674,-2.4611,-2.4206,-2.3626,-2.3491,-2.3046,-2.2434,-2.2013,-2.1552,-2.1107,-2.0893,-2.1656,-2.2511,-2.1744,-2.1993,-2.2242,-2.0282,-1.9359,0.0,0.0,0.0,0.0,0.0,0.0,0.0,0.0,0.0,-2.0742,-2.2454,-2.3174,-2.404,-2.5871,-2.762,-2.8904,-2.9182,-3.001,-3.1013,-3.2207,-3.1421,-3.1295,-3.2498,-3.2727,-3.2612,-3.2373,-3.2498,-3.2727,-3.2727,-3.2727,-3.2727,-3.2727,-3.2727,-3.2727,-3.2727,-3.2727,-3.2727,-3.2727,-3.2354,-3.2178,-3.2168,-3.1257,-3.0822,-3.0801,-3.0253,-2.9539,-2.8742,-2.8556,-2.8017,-2.7189,-2.6258,-2.5875,-2.5792,-2.4892,-2.454,-2.454,-2.454,-2.454,-2.454,0.0,0.0,0.0,0.0,0.0,0.0,0.0,0.0,0.0,0.0,0.0,0.0,0.0,0.0,0.0,0.0,0.0,0.0,-1.449,-1.5856,-1.7405,-1.9177,-2.0249,-2.0845,-2.0925,-2.0925,-2.0925,-2.0925,-2.1616,-2.1981,-2.2045,-2.3411,-2.407,-2.4142,-2.4809,-2.5111,-2.5111,-2.5111,-2.5087,-2.5024,-2.4706,-2.4349,-2.3927,-2.3308,-2.2831,-2.2402,-2.1743,-2.0877,-2.0083,-2.0361,-2.0365,-2.0319,-2.0841,-2.1445,-2.1612,-1.9208,0.0,-1.8154,-1.7009,-1.6704,-1.724,-1.9376,-1.9655,-2.0344,0.0,0.0,-2.4088,-2.4846,-2.5302,-2.5878,-2.6616,-2.8138,-2.909,-2.862,-3.0699,-3.2072,-3.1169,-3.0937,-3.1295,-3.2498,-3.2727,-3.2258,-3.1063,-3.2018,-3.2727,-3.2727,-3.2727,-3.2727,-3.2727,-3.2727,-3.2727,-3.2727,-3.2727,-3.2727,-3.2727,-3.2685,-3.2654,-3.2644,-3.1733,-3.1298,-3.1267,-3.0387,-2.9715,-2.9177,-2.8359,-2.7717,-2.7189,-2.6258,-2.5875,-2.5792,-2.4892,-2.454,-2.454,-2.454,-2.454,-2.454,0.0,0.0,0.0,0.0,0.0,0.0,0.0,0.0,0.0,0.0,0.0,0.0,0.0,0.0,0.0,0.0,0.0,0.0,-1.4451,-1.5761,-1.7215,-1.8978,-2.0059,-2.0615,-2.0615,-2.0813,-2.0925,-2.0925,-2.1616,-2.2061,-2.2291,-2.3491,-2.4158,-2.438,-2.4889,-2.5111,-2.5111,-2.5111,-2.4873,-2.4484,-2.4333,-2.3816,-2.3085,-2.2593,-2.1798,-2.0901,-2.0416,-1.982,0.0,0.0,-1.9903,-2.0881,-2.1776,-2.2545,-2.2658,-2.0689,-2.0613,0.0,-2.0912,-2.0883,0.0,0.0,-2.329,-2.4623,-2.5818,-2.6913,-2.7854,-2.8321,-2.8967,-2.9469,-2.9209,-2.9688,-3.0102,0.0,-2.9517,-2.9992,-3.1662,-2.9773,-2.8946,-3.0684,-3.089,-3.1204,-3.1842,-3.2373,-3.2727,-3.2727,-3.2727,-3.2727,-3.2727,-3.2727,-3.2727,-3.2727,-3.2727,-3.2727,-3.2727,-3.2727,-3.2727,-3.2716,-3.1805,-3.1381,-3.135,-3.0419,-2.9591,-2.8856,-2.7935,-2.7427,-2.7189,-2.6258,-2.5875,-2.5792,-2.4892,-2.454,-2.454,-2.454,-2.454,-2.454,0.0,0.0,0.0,0.0,0.0,0.0,0.0,0.0,0.0,0.0,0.0,0.0,0.0,0.0,0.0,0.0,0.0,0.0,0.0,-1.5338,-1.6718,-1.8327,-1.9503,-2.0154,-2.0241,-2.0686,-2.0925,-2.0925,-2.152,-2.1949,-2.222,-2.3173,-2.3761,-2.4023,-2.4372,-2.4587,-2.4674,-2.4674,-2.438,-2.3912,-2.3912,-2.3284,-2.2275,-2.1735,-2.0655,-1.9399,-1.9161,-1.8533,0.0,0.0,-1.8387,-1.973,-2.1033,-2.1952,-2.2351,-2.1476,-2.1771,-2.2471,-2.2754,0.0,0.0,-2.4177,-2.6215,-2.8015,-2.758,-2.9049,-3.0611,-3.086,-3.1187,-3.144,-3.1182,-3.0787,-3.0623,-3.1097,-2.9578,-2.9381,-3.2238,-2.9295,-2.7694,-2.9813,-2.9326,-2.9695,-3.1973,-3.2395,-3.254,-3.254,-3.2664,-3.2727,-3.2727,-3.2727,-3.2727,-3.2727,-3.2727,-3.2727,-3.2727,-3.2727,-3.2727,-3.2716,-3.1805,-3.1381,-3.134,-3.0149,-2.9249,-2.8566,-2.7655,-2.7262,-2.7189,-2.6258,-2.5875,-2.5792,-2.4892,-2.454,-2.454,-2.454,-2.454,-2.454,0.0,0.0,0.0,0.0,0.0,0.0,0.0,0.0,0.0,0.0,0.0,0.0,0.0,0.0,0.0,0.0,0.0,0.0,0.0,-1.4583,-1.5996,-1.7331,-1.8661,-1.955,-1.9876,-2.0567,-2.0925,-2.0925,-2.129,-2.1473,-2.1497,-2.2204,-2.2537,-2.2569,-2.2919,-2.3268,-2.3594,-2.3594,-2.3578,-2.3562,-2.3562,-2.2919,-2.1862,-2.0829,-1.9566,-1.8343,-1.8335,0.0,0.0,0.0,-1.5316,-1.5169,-1.7179,-1.8593,0.0,-2.0476,-2.0531,0.0,0.0,0.0,-2.3112,-2.5995,-2.7617,-2.8937,-3.0283,-3.1315,-3.1881,-3.1574,-3.0742,-3.0527,-3.1707,-3.0538,-3.0043,-3.1635,-3.1942,-3.2097,-3.2664,-2.985,-2.8747,-3.1031,-2.8561,-2.7682,0.0,-3.1547,-3.2064,-3.2064,-3.2478,-3.2727,-3.2727,-3.2727,-3.2727,-3.2727,-3.2727,-3.2727,-3.2727,-3.2727,-3.2727,-3.2716,-3.1805,-3.1381,-3.1319,-2.9487,-2.8638,-2.8566,-2.7655,-2.7262,-2.7189,-2.6258,-2.5875,-2.5792,-2.4892,-2.454,-2.454,-2.454,-2.454,-2.454,0.0,0.0,0.0,0.0,0.0,0.0,0.0,0.0,0.0,0.0,0.0,0.0,0.0,0.0,0.0,0.0,0.0,0.0,0.0,-1.4098,-1.4823,-1.5781,-1.6992,-1.7787,-1.8136,-1.9058,-1.9654,-1.9892,-2.0818,-2.0982,-2.0416,-2.2067,-2.2421,-2.1814,-2.2164,-2.2946,-2.3919,-2.3568,-2.3888,-2.4477,-2.3868,-2.3134,-2.2183,-2.0256,-1.8646,-1.7238,0.0,0.0,0.0,0.0,0.0,-1.5236,-1.7207,-1.7486,-1.7585,-1.98,-2.0761,-2.1491,0.0,0.0,-2.7001,-2.9204,-3.0554,-3.1574,-3.2357,-3.3032,-3.3097,-3.2031,-3.1319,-3.0952,-3.0684,-2.92,-2.8379,-2.9371,-2.9254,-2.9203,-2.9748,-2.8857,-2.8493,-2.9115,-2.8554,0.0,0.0,0.0,0.0,-3.2002,-3.2188,-3.2406,-3.2716,-3.2727,-3.2727,-3.2727,-3.2727,-3.2727,-3.2727,-3.2426,-3.2271,-3.2261,-3.135,-3.0594,-2.9973,-2.9042,-2.8442,-2.8121,-2.7521,-2.7262,-2.7189,-2.6258,-2.5875,-2.5792,-2.4892,-2.454,-2.454,-2.454,-2.454,-2.454,0.0,0.0,0.0,0.0,0.0,0.0,0.0,0.0,0.0,0.0,0.0,0.0,0.0,0.0,0.0,0.0,0.0,0.0,0.0,0.0,-1.4057,-1.4806,-1.5705,-1.6419,-1.6946,-1.7803,-1.8333,-1.8402,-1.9137,-1.9231,-1.8573,-2.003,-2.0401,-1.9971,-2.0313,-2.1131,-2.217,-2.1803,-2.2051,-2.2638,-2.1735,-2.0863,-2.0051,-1.8048,-1.6673,0.0,0.0,0.0,0.0,0.0,0.0,0.0,-1.6911,-1.7745,-1.8421,-2.0359,-2.1808,-2.3422,0.0,-2.8183,-2.9632,-3.1774,-3.2644,-3.312,-3.3731,-3.3596,-3.3047,-3.2012,-3.105,-3.0108,-2.9187,-2.7752,-2.6923,-2.7918,-2.7766,-2.7905,-2.9315,-2.8747,-2.8439,-2.9193,-2.875,-2.8754,0.0,0.0,0.0,-3.1505,-3.2012,-3.2344,-3.2478,-3.2644,-3.2727,-3.2727,-3.2727,-3.2727,-3.2727,-3.2271,-3.1878,-3.1547,-3.0967,-3.0201,-2.929,-2.8825,-2.8359,-2.7903,-2.7448,-2.7262,-2.7189,-2.6258,-2.5875,-2.5792,-2.4892,-2.454,-2.454,-2.454,-2.454,-2.454,0.0,0.0,0.0,0.0,0.0,0.0,0.0,0.0,0.0,0.0,0.0,0.0,0.0,0.0,0.0,0.0,0.0,0.0,0.0,0.0,0.0,-1.4218,-1.4848,-1.558,-1.6294,-1.6881,-1.6923,-1.6497,-1.6489,-1.6445,-1.6181,-1.6533,-1.6892,-1.7243,-1.7555,-1.8073,-1.8795,-1.8434,-1.8447,-1.8616,-1.7668,-1.6867,-1.5981,-1.4657,0.0,0.0,0.0,0.0,0.0,0.0,0.0,0.0,0.0,0.0,-2.1859,-2.1952,-2.3608,-2.5896,-2.8142,-2.9466,-3.0833,-3.342,-3.3751,-3.3658,-3.4476,-3.3285,-3.1857,-3.134,-2.9746,-2.8162,0.0,0.0,-2.565,-2.7424,-2.7562,-2.8297,-3.088,-2.9276,-2.8744,0.0,0.0,0.0,0.0,0.0,0.0,-3.0729,0.0,-3.2509,-3.2095,-3.2489,-3.2727,-3.2727,-3.2727,-3.2727,-3.2727,-3.225,-3.1547,-3.0646,-3.0626,-3.0139,-2.9259,-2.8794,-2.8328,-2.7862,-2.7438,-2.7262,-2.7189,-2.6289,-2.5896,-2.5792,-2.4943,-2.4581,-2.454,-2.4571,-2.456,-2.454,0.0,0.0,0.0,0.0,0.0,0.0,0.0,0.0,0.0,0.0,0.0,0.0,0.0,0.0,0.0,0.0,0.0,0.0,0.0,0.0,0.0,0.0,0.0,0.0,0.0,0.0,0.0,0.0,0.0,-1.6555,-1.585,-1.6938,-1.7108,-1.649,-1.6584,-1.7252,-1.8437,-1.8044,-1.8497,-1.9438,0.0,-1.7969,-1.7586,0.0,0.0,0.0,0.0,0.0,0.0,0.0,0.0,0.0,0.0,0.0,-2.2594,-2.396,0.0,-2.8183,-3.0139,-3.1826,-3.3192,-3.3896,-3.4238,-3.4207,-3.342,-3.2364,-3.1122,-2.9622,-2.7603,-2.5823,0.0,0.0,0.0,-2.505,-2.7144,0.0,-2.8621,-3.0264,0.0,0.0,0.0,-3.0826,-3.0729,-3.1298,0.0,0.0,-3.1836,-3.2313,-3.254,-3.2664,-3.2727,-3.2727,-3.2727,-3.2727,-3.2727,-3.194,-3.1081,-3.016,-2.9818,-2.9352,-2.8773,-2.8307,-2.7852,-2.7427,-2.7303,-2.7262,-2.721,-2.663,-2.6196,-2.5854,-2.5627,-2.513,-2.4495,-2.4933,-2.484,-2.454,0.0,0.0,0.0,0.0,0.0,0.0,0.0,0.0,0.0,0.0,0.0,0.0,0.0,0.0,0.0,0.0,0.0,0.0,0.0,0.0,0.0,0.0,0.0,0.0,0.0,0.0,0.0,0.0,0.0,0.0,0.0,-1.5278,-1.544,-1.5047,-1.5225,-1.5839,-1.6711,-1.6309,0.0,0.0,0.0,0.0,0.0,0.0,0.0,0.0,0.0,0.0,0.0,0.0,0.0,-2.072,-2.1202,-2.2859,-2.4943,-2.6786,0.0,-3.0222,-3.2054,-3.3296,-3.4113,-3.432,-3.4124,-3.3513,-3.2147,-3.0812,-2.9228,-2.6993,-2.5202,0.0,0.0,0.0,0.0,0.0,0.0,0.0,-2.831,-3.0168,-3.1398,0.0,-3.1534,0.0,-3.1619,-3.2043,-3.224,0.0,-3.2199,-3.2364,-3.2426,-3.2623,-3.2727,-3.2727,-3.2727,-3.254,-3.2137,-3.1433,-3.0708,-2.9994,-2.9735,-2.9363,-2.8897,-2.8442,-2.7976,-2.7541,0.0,-2.7262,-2.722,-2.6755,-2.6413,-2.6165,-2.5958,-2.5575,-2.5161,-2.542,-2.5357,-2.513,0.0,0.0,0.0,0.0,0.0,0.0,0.0,0.0,0.0,0.0,0.0,0.0,0.0,0.0,0.0,0.0,0.0,0.0,0.0,0.0,0.0,0.0,0.0,0.0,0.0,0.0,0.0,0.0,0.0,0.0,0.0,0.0,0.0,0.0,0.0,0.0,0.0,0.0,0.0,0.0,0.0,0.0,0.0,0.0,0.0,0.0,0.0,0.0,0.0,0.0,-2.1112,-2.2405,-2.4258,-2.6154,-2.7966,-2.9673,-3.0874,-3.1992,-3.3627,-3.4113,-3.4248,-3.4579,-3.3606,-3.2178,-3.0739,-2.8887,-2.6734,-2.4136,0.0,0.0,-2.0462,0.0,-2.1435,-2.2946,0.0,-2.6185,-2.8918,-2.9756,-3.0719,-3.2437,-3.2344,-3.2292,-3.2696,-3.2727,-3.2727,-3.2727,-3.2727,-3.2551,-3.2147,-3.2509,-3.2706,-3.2644,-3.2633,-3.2209,-3.1298,-3.0884,-3.045,-2.9994,-2.9932,-2.9663,-2.9197,-2.8731,-2.8276,-2.781,-2.7427,-2.7262,-2.7231,-2.6827,-2.663,-2.6537,-2.6196,-2.5989,-2.5885,-2.5947,-2.5927,-2.5875,0.0,0.0,0.0,0.0,0.0,0.0,0.0,0.0,0.0,0.0,0.0,0.0,0.0,0.0,0.0,0.0,0.0,0.0,0.0,0.0,0.0,0.0,0.0,0.0,0.0,0.0,0.0,0.0,0.0,0.0,0.0,0.0,0.0,0.0,0.0,0.0,0.0,0.0,0.0,0.0,0.0,0.0,0.0,0.0,0.0,0.0,0.0,0.0,0.0,0.0,-2.1588,-2.3967,-2.6136,-2.8048,-2.9735,-3.0822,-3.2043,-3.3182,-3.3875,-3.4341,-3.4559,-3.4258,-3.2892,-3.1143,-2.9373,-2.6982,0.0,0.0,0.0,-1.9592,-1.9344,-1.9686,0.0,-2.2842,0.0,0.0,0.0,0.0,-3.0957,0.0,0.0,0.0,0.0,0.0,0.0,0.0,0.0,-3.2696,-3.2613,-3.2685,-3.2551,-3.2168,-3.2157,-3.1723,-3.0822,-3.0729,-3.045,-2.9994,-2.9611,-2.9177,-2.8721,-2.8255,-2.78,-2.7365,-2.7293,0.0,-2.7251,-2.7169,-2.691,-2.6599,-2.69,-2.6548,-2.5927,-2.631,-2.6206,-2.5875,0.0,0.0,0.0,0.0,0.0,0.0,0.0,0.0,0.0,0.0,-1.3989,0.0,0.0,0.0,0.0,0.0,0.0,0.0,0.0,0.0,0.0,0.0,0.0,0.0,0.0,0.0,0.0,0.0,0.0,0.0,0.0,0.0,0.0,0.0,0.0,0.0,0.0,0.0,0.0,0.0,0.0,0.0,0.0,0.0,0.0,0.0,0.0,0.0,0.0,0.0,-2.0777,-2.3454,-2.6413,-2.8349,-2.9911,-3.1309,-3.2178,-3.2882,-3.3813,-3.4227,-3.4289,-3.3824,-3.2354,-3.0408,-2.8079,0.0,0.0,0.0,0.0,-1.8299,-1.8061,0.0,0.0,0.0,0.0,0.0,0.0,0.0,0.0,0.0,0.0,0.0,0.0,0.0,0.0,0.0,0.0,-3.2727,-3.2727,-3.2727,-3.252,-3.2054,-3.1816,-3.1371,-3.0698,-3.045,-3.0212,-2.9994,-2.9766,-2.9549,-2.9311,-2.8597,-2.8297,-2.8297,-2.781,-2.7738,-2.7966,-2.7966,-2.7831,-2.7655,-2.7883,-2.7541,-2.6972,-2.7189,-2.6982,-2.6599,0.0,0.0,0.0,0.0,0.0,0.0,0.0,-1.3117,-1.3368,-1.3379,-1.3692,-1.392,-1.392,-1.4103,0.0,0.0,0.0,0.0,0.0,0.0,0.0,0.0,0.0,0.0,0.0,0.0,0.0,0.0,0.0,0.0,0.0,0.0,0.0,0.0,0.0,0.0,0.0,0.0,0.0,0.0,0.0,0.0,0.0,0.0,0.0,0.0,0.0,0.0,0.0,0.0,-1.9332,-2.1561,-2.481,-2.7272,-2.9311,-3.0853,-3.1588,-3.2168,-3.3441,-3.3844,-3.3813,-3.3358,-3.165,-2.9425,-2.6858,-2.4012,0.0,0.0,-1.7823,-1.7367,-1.7028,0.0,0.0,0.0,0.0,0.0,0.0,0.0,0.0,0.0,0.0,0.0,0.0,0.0,0.0,0.0,0.0,0.0,-3.2727,-3.2727,-3.2478,-3.1919,-3.1557,-3.1112,-3.0543,-3.018,-2.9994,-2.9994,-2.9994,-2.9942,-2.9829,-2.9094,-2.8907,-2.9114,-2.839,-2.8276,-2.8618,-2.8618,-2.8618,-2.8618,-2.8618,-2.8328,-2.7924,-2.7924,-2.7645,-2.7262,0.0,0.0,0.0,0.0,0.0,0.0,0.0,-1.232,-1.2505,-1.29,-1.2998,-1.302,-1.302,-1.3714,0.0,0.0,0.0,0.0,0.0,0.0,0.0,0.0,0.0,0.0,0.0,0.0,0.0,0.0,0.0,0.0,0.0,0.0,0.0,0.0,0.0,0.0,0.0,0.0,0.0,0.0,0.0,0.0,0.0,0.0,0.0,0.0,0.0,0.0,0.0,0.0,0.0,-1.8428,-2.038,-2.4271,-2.8173,-2.8752,0.0,0.0,-3.2602,-3.3141,-3.3337,-3.2903,-3.046,-2.7676,-2.5782,0.0,0.0,0.0,-1.7108,-1.6612,-1.6915,-1.7461,0.0,0.0,0.0,0.0,0.0,0.0,0.0,0.0,0.0,0.0,0.0,0.0,0.0,0.0,0.0,0.0,-3.2727,-3.2727,-3.2333,-3.1464,-3.1402,-3.0946,-3.0067,-3.0015,-2.9994,-2.9994,-2.9994,-2.9777,-2.9363,-2.928,-2.9032,-2.8669,-2.8587,-2.8576,0.0,-2.8618,-2.8618,-2.8618,-2.8618,-2.8328,-2.7924,-2.7924,-2.7645,-2.7262,0.0,0.0,0.0,0.0,0.0,0.0,0.0,-1.1919,-1.2207,-1.2403,-1.2674,-1.275,-1.2527,-1.3053,0.0,0.0,0.0,0.0,0.0,0.0,0.0,0.0,0.0,0.0,0.0,0.0,0.0,0.0,0.0,0.0,0.0,0.0,0.0,0.0,0.0,0.0,0.0,0.0,0.0,0.0,0.0,0.0,0.0,0.0,0.0,0.0,0.0,0.0,0.0,0.0,0.0,0.0,-1.7108,-1.9655,0.0,0.0,-2.7479,-2.8928,-3.0946,-3.223,-3.2882,-3.2426,-3.0305,-2.779,-2.5709,0.0,0.0,-1.8009,-1.7015,-1.6436,-1.6612,-1.7015,-1.7523,0.0,0.0,0.0,0.0,0.0,0.0,0.0,0.0,0.0,0.0,0.0,0.0,0.0,0.0,0.0,-3.2727,-3.2468,-3.2033,-3.1391,-3.1112,-3.0646,-3.0005,-2.9994,-2.9994,-2.9994,-2.9994,-2.9901,-2.9715,-2.9435,-2.9352,-2.9435,-2.9145,-2.9187,0.0,-2.9446,-2.928,-2.9032,-2.9032,-2.8576,-2.7924,-2.7924,-2.7645,-2.7262,0.0,0.0,0.0,0.0,0.0,0.0,-1.1223,-1.1576,-1.1858,-1.1908,-1.216,-1.2276,-1.2008,-1.2269,-1.2487,-1.2405,0.0,0.0,0.0,0.0,0.0,0.0,0.0,0.0,0.0,0.0,0.0,0.0,0.0,0.0,0.0,0.0,0.0,0.0,0.0,0.0,0.0,0.0,0.0,0.0,0.0,0.0,0.0,0.0,0.0,0.0,0.0,0.0,0.0,0.0,0.0,0.0,0.0,0.0,0.0,0.0,-2.4736,-2.6475,-2.8835,-3.0574,-3.1609,-3.1143,-2.9311,-2.7055,0.0,0.0,-1.9003,-1.7781,-1.6912,-1.6384,-1.6384,-1.6746,-1.7131,0.0,0.0,0.0,0.0,0.0,0.0,0.0,0.0,0.0,0.0,0.0,0.0,0.0,0.0,0.0,-3.252,-3.1961,-3.1557,-3.1381,-3.0926,-3.046,-3.0005,-2.9994,-2.9994,-2.9994,-2.9994,-2.9994,-2.9984,-2.9653,-2.9684,-2.9973,-2.9653,-2.9694,0.0,-2.9849,-2.9601,-2.929,-2.9156,-2.8618,-2.7924,-2.7924,-2.7645,-2.7241,0.0,0.0,0.0,0.0,0.0,0.0,0.0,-1.1195,-1.1271,-1.1394,-1.1405,-1.1432,-1.1496,-1.1496,-1.1496,-1.1496,0.0,0.0,0.0,0.0,0.0,0.0,0.0,0.0,0.0,0.0,0.0,-1.402,-1.3868,0.0,0.0,0.0,0.0,0.0,0.0,0.0,0.0,0.0,0.0,0.0,0.0,0.0,0.0,0.0,0.0,0.0,0.0,0.0,0.0,0.0,0.0,0.0,0.0,0.0,0.0,0.0,-2.2066,-2.4861,-2.6237,-2.7945,-2.9228,-2.8763,-2.6941,-2.4788,0.0,0.0,-1.8133,-1.7172,-1.6694,-1.6384,-1.6384,-1.6746,-1.7131,-1.7595,-1.8475,0.0,0.0,0.0,0.0,0.0,0.0,0.0,0.0,0.0,0.0,0.0,0.0,0.0,-3.2043,-3.1195,-3.0905,-3.136,-3.0926,-3.046,-3.0005,-2.9994,-2.9994,-2.9994,-2.9994,-2.9994,-2.9994,-2.9984,-2.9994,-2.9994,-2.9984,-2.9994,0.0,-2.9497,-2.9311,-2.9259,-2.8804,-2.8338,-2.7924,-2.7924,-2.7645,-2.72,0.0,0.0,0.0,0.0,0.0,0.0,0.0,-1.1082,-1.1158,-1.1206,-1.1206,-1.1233,-1.1298,-1.1298,-1.1298,-1.1298,0.0,0.0,0.0,0.0,0.0,0.0,0.0,0.0,0.0,0.0,-1.3716,-1.3716,-1.3668,-1.3668,-1.3668,0.0,0.0,0.0,0.0,0.0,0.0,0.0,0.0,0.0,0.0,0.0,0.0,0.0,0.0,0.0,0.0,0.0,0.0,0.0,0.0,0.0,0.0,0.0,0.0,0.0,0.0,0.0,-2.2853,-2.4426,-2.5492,-2.5026,-2.3888,-2.2573,-2.1362,-1.9448,-1.7771,-1.7111,-1.6684,-1.6384,-1.6384,-1.6498,-1.6933,-1.8009,-1.8413,0.0,0.0,0.0,0.0,0.0,0.0,0.0,0.0,0.0,0.0,0.0,0.0,0.0,-3.1609,-3.1019,-3.076,-3.0905,-3.046,-3.0149,-2.9994,-2.9994,-2.9994,-2.9994,-2.9994,-2.9994,-2.9994,-2.9994,-2.9818,-2.9528,-2.9528,-2.9342,-2.9042,-2.8887,-2.8649,-2.8349,-2.8204,-2.7862,-2.7469,-2.7469,-2.7376,-2.7189,0.0,0.0,0.0,0.0,0.0,0.0,0.0,-1.0968,-1.1044,-1.1082,-1.1092,-1.112,-1.1185,-1.1185,-1.1185,-1.1185,0.0,0.0,0.0,0.0,0.0,0.0,0.0,0.0,0.0,-1.3433,-1.3515,-1.3314,-1.3515,-1.3621,-1.3621,-1.3621,-1.3621,0.0,0.0,0.0,0.0,0.0,0.0,0.0,0.0,0.0,-1.3314,0.0,0.0,0.0,0.0,0.0,0.0,0.0,0.0,0.0,0.0,0.0,0.0,0.0,-1.5722,0.0,0.0,-2.1269,-2.2252,-2.1963,-2.1197,0.0,0.0,-1.808,-1.6958,-1.6564,-1.6389,-1.6306,-1.6374,-1.6384,-1.6767,-1.7947,-1.8268,0.0,0.0,0.0,0.0,0.0,0.0,0.0,0.0,0.0,0.0,0.0,0.0,-3.1412,-3.1133,-3.0677,-3.0429,-3.0429,-3.0149,-2.9994,-2.9994,-2.9994,-2.9994,-2.9994,-2.9994,-2.9901,-2.9735,-2.9735,-2.9477,-2.9042,-2.9042,-2.8876,0.0,-2.8421,-2.8183,-2.7903,-2.7738,-2.75,-2.7241,-2.7065,-2.7003,-2.691,0.0,0.0,0.0,0.0,0.0,0.0,0.0,0.0,0.0,0.0,-1.1092,-1.112,-1.1185,-1.1185,-1.1185,0.0,0.0,0.0,0.0,0.0,0.0,0.0,0.0,0.0,0.0,-1.304,-1.3215,-1.2725,-1.3256,-1.3536,-1.3566,-1.3566,-1.3614,-1.3662,-1.3662,0.0,0.0,0.0,0.0,0.0,0.0,0.0,0.0,0.0,0.0,0.0,0.0,0.0,0.0,0.0,0.0,0.0,0.0,0.0,0.0,0.0,0.0,0.0,0.0,0.0,0.0,0.0,0.0,0.0,0.0,-1.6444,0.0,-1.5763,-1.5899,-1.6151,-1.6415,-1.6425,-1.6736,-1.7678,0.0,0.0,0.0,0.0,0.0,0.0,0.0,0.0,0.0,0.0,0.0,0.0,0.0,-3.0657,-3.0594,-3.018,-2.9932,-2.9901,-2.9891,-2.9911,-2.9942,-2.9942,-2.9942,-2.9942,-2.9942,-2.9715,-2.9301,-2.927,-2.9001,0.0,-2.8566,-2.8545,-2.8483,-2.8048,-2.7872,-2.7831,-2.7427,-2.7241,-2.7158,-2.6724,-2.6548,-2.6392,0.0,0.0,0.0,0.0,0.0,0.0,0.0,0.0,0.0,0.0,0.0,-1.0968,-1.0957,-1.0957,0.0,0.0,0.0,0.0,0.0,0.0,0.0,0.0,0.0,0.0,0.0,-1.2256,-1.2297,-1.1818,-1.2194,-1.2752,-1.3521,-1.3521,-1.3731,-1.4148,-1.4148,0.0,0.0,0.0,0.0,0.0,0.0,0.0,0.0,0.0,0.0,0.0,-1.2967,-1.3266,0.0,0.0,0.0,0.0,0.0,0.0,0.0,0.0,-1.3776,-1.39,-1.4438,0.0,-1.6032,-1.568,0.0,0.0,0.0,0.0,0.0,0.0,0.0,0.0,0.0,0.0,0.0,0.0,0.0,0.0,0.0,0.0,0.0,0.0,0.0,0.0,0.0,0.0,0.0,0.0,0.0,-3.0377,-2.9673,-2.9528,-2.9301,-2.8949,-2.8938,-2.9104,-2.9466,-2.9466,-2.9466,-2.9466,-2.9466,-2.9415,-2.929,-2.8938,-2.8524,-2.8079,-2.8079,-2.7893,-2.7572,-2.7458,-2.7417,-2.7407,-2.7303,-2.7044,-2.6724,-2.661,-2.6341,-2.5968,0.0,0.0,0.0,0.0,0.0,0.0,0.0,0.0,0.0,0.0,0.0,0.0,0.0,0.0,0.0,0.0,0.0,0.0,0.0,0.0,0.0,0.0,0.0,0.0,-1.1227,-1.1875,-1.1956,-1.1453,-1.1807,-1.2501,-1.3518,-1.3518,-1.3781,-1.4304,-1.4086,0.0,0.0,0.0,0.0,0.0,-1.2276,0.0,0.0,0.0,0.0,0.0,-1.2609,-1.3016,0.0,-1.3515,-1.3573,-1.3621,0.0,0.0,0.0,0.0,-1.3621,-1.3621,-1.3621,-1.4243,-1.4788,-1.4543,-1.4551,-1.4672,0.0,0.0,0.0,0.0,0.0,0.0,0.0,0.0,0.0,0.0,0.0,0.0,0.0,0.0,0.0,0.0,0.0,0.0,0.0,0.0,0.0,0.0,-3.0056,-2.9735,-2.9032,-2.899,-2.8866,-2.8618,-2.8411,-2.8514,-2.898,-2.899,-2.899,-2.899,-2.899,-2.8876,-2.8659,-2.8411,-2.8048,-2.7624,-2.7624,-2.7479,-2.7262,-2.7262,-2.7262,-2.7241,-2.7024,-2.6786,-2.6517,-2.6103,-2.5792,-2.5513,0.0,0.0,0.0,0.0,0.0,0.0,0.0,0.0,0.0,0.0,0.0,0.0,0.0,0.0,0.0,0.0,0.0,0.0,0.0,0.0,0.0,0.0,0.0,-1.1308,-1.0845,-1.1645,-1.1807,-1.1273,-1.1822,-1.2594,-1.3513,-1.3633,-1.3941,-1.4386,-1.3859,-1.3515,0.0,0.0,0.0,0.0,-1.1832,0.0,0.0,0.0,0.0,0.0,0.0,0.0,0.0,-1.3372,-1.342,-1.3515,-1.3515,0.0,0.0,0.0,0.0,0.0,-1.3703,-1.4246,-1.4742,-1.453,-1.4475,-1.445,0.0,0.0,0.0,0.0,0.0,0.0,0.0,0.0,0.0,0.0,0.0,0.0,0.0,0.0,0.0,0.0,0.0,0.0,0.0,0.0,0.0,0.0,-2.9197,-2.9001,-2.8535,-2.8504,-2.8473,-2.8411,-2.8028,-2.8007,-2.84,-2.8473,-2.8504,-2.8504,-2.8504,-2.8297,-2.7924,-2.7852,-2.7614,-2.7262,-2.7262,0.0,-2.7262,-2.7262,-2.722,-2.7117,-2.6724,-2.6486,-2.6268,-2.5513,-2.5181,-2.5068,0.0,0.0,0.0,0.0,0.0,0.0,0.0,0.0,0.0,0.0,0.0,0.0,0.0,0.0,0.0,0.0,0.0,0.0,0.0,0.0,0.0,0.0,-1.0953,-1.1003,-1.0969,-1.1373,-1.1341,-1.0828,-1.2027,-1.285,-1.3418,-1.4276,-1.4764,-1.4852,-1.4003,-1.3266,-1.2764,-1.316,-1.2677,-1.1651,-1.1651,0.0,0.0,0.0,0.0,0.0,0.0,0.0,0.0,-1.3218,-1.3266,-1.3266,-1.3266,0.0,0.0,0.0,0.0,0.0,-1.4047,-1.4665,-1.4868,-1.387,-1.3952,-1.4265,0.0,0.0,0.0,0.0,0.0,0.0,0.0,0.0,0.0,0.0,0.0,0.0,0.0,0.0,0.0,0.0,0.0,0.0,0.0,0.0,0.0,-2.8721,-2.8721,-2.8514,-2.8059,-2.8028,-2.7852,-2.7479,-2.7396,-2.7396,-2.7469,-2.7841,-2.8028,-2.8028,-2.8028,-2.7997,-2.7914,-2.7531,-2.7324,-2.7262,0.0,-2.7262,-2.7262,-2.7262,-2.7034,-2.6672,-2.6599,-2.6103,-2.542,-2.5285,-2.4985,-2.4633,0.0,0.0,0.0,0.0,0.0,0.0,0.0,0.0,0.0,0.0,0.0,0.0,0.0,0.0,0.0,0.0,0.0,0.0,0.0,0.0,0.0,-1.1261,-1.1271,-1.1285,-1.1328,-1.1703,-1.1637,-1.1075,-1.1931,-1.2567,-1.306,-1.408,-1.4603,-1.4593,-1.351,-1.2871,-1.2609,-1.2764,-1.2374,-1.1601,0.0,0.0,0.0,0.0,0.0,0.0,0.0,0.0,0.0,0.0,-1.318,-1.3218,-1.3218,0.0,0.0,0.0,0.0,0.0,-1.3723,-1.4124,-1.428,-1.3811,-1.435,-1.5018,0.0,0.0,0.0,0.0,0.0,0.0,0.0,0.0,0.0,0.0,0.0,0.0,0.0,0.0,0.0,0.0,0.0,0.0,0.0,0.0,0.0,-2.8266,-2.8245,-2.8038,-2.7593,-2.7572,-2.7355,-2.69,-2.6889,-2.6889,-2.6889,-2.7086,-2.7314,-2.7572,-2.7572,-2.7572,-2.7552,-2.7345,-2.7262,-2.7251,0.0,-2.6889,-2.6868,-2.662,-2.6392,-2.6175,-2.5937,-2.5595,-2.5202,-2.4954,-2.4726,-2.454,0.0,0.0,0.0,0.0,0.0,0.0,0.0,0.0,0.0,0.0,0.0,0.0,0.0,0.0,0.0,0.0,0.0,0.0,0.0,0.0,-1.1074,-1.1406,-1.1664,-1.1819,-1.1882,-1.2212,-1.2153,-1.1742,-1.2141,-1.2591,-1.3077,-1.378,-1.4204,-1.4233,-1.3106,-1.256,-1.256,-1.2423,-1.2039,-1.1501,0.0,0.0,0.0,0.0,0.0,0.0,0.0,0.0,0.0,0.0,0.0,0.0,0.0,0.0,0.0,-1.318,-1.318,-1.3248,-1.3446,-1.3591,-1.3719,-1.3831,0.0,-1.5474,-1.5939,0.0,0.0,0.0,0.0,0.0,0.0,0.0,0.0,0.0,0.0,0.0,0.0,0.0,0.0,0.0,0.0,0.0,0.0,0.0,-2.7831,-2.7469,-2.7448,-2.7293,-2.6951,-2.6931,-2.6775,-2.6423,-2.6403,-2.6403,-2.6403,-2.6403,-2.6693,-2.7262,-2.7262,-2.7262,-2.7251,-2.7148,-2.7096,-2.7076,-2.661,-2.6403,-2.6392,-2.6144,-2.5916,-2.5699,-2.5471,-2.5254,-2.5026,-2.4674,-2.454,-2.454,0.0,0.0,0.0,0.0,0.0,0.0,0.0,0.0,0.0,0.0,0.0,0.0,0.0,0.0,0.0,0.0,0.0,0.0,0.0,0.0,-1.0902,-1.0933,-1.1768,-1.2399,-1.2824,-1.2841,-1.2801,-1.2725,-1.3153,-1.3643,-1.4053,-1.3704,-1.3831,-1.4233,-1.3106,-1.2511,-1.2414,-1.2295,-1.185,-1.1209,-1.12,0.0,0.0,0.0,0.0,0.0,0.0,0.0,0.0,0.0,0.0,0.0,0.0,0.0,-1.2929,-1.3075,-1.3133,-1.3213,-1.3731,-1.3771,-1.3719,-1.3719,0.0,0.0,-1.6556,0.0,0.0,0.0,0.0,0.0,0.0,0.0,0.0,0.0,0.0,0.0,0.0,0.0,0.0,0.0,0.0,0.0,0.0,-2.633,-2.6061,-2.603,-2.603,-2.6009,-2.5978,-2.5978,-2.5958,-2.5927,-2.5927,-2.5927,-2.5927,-2.5927,-2.6372,-2.7262,-2.7262,-2.7262,-2.7251,-2.6817,-2.662,-2.6589,-2.6123,-2.5927,-2.5958,-2.6351,-2.603,-2.5316,-2.5689,-2.5326,-2.4592,-2.4464,-2.454,-2.454,0.0,0.0,0.0,0.0,0.0,0.0,0.0,0.0,0.0,0.0,0.0,0.0,0.0,0.0,0.0,0.0,0.0,0.0,0.0,0.0,-1.1043,-1.1313,-1.1965,-1.2331,-1.2453,-1.3022,-1.3,-1.2286,-1.2494,-1.2855,-1.3351,-1.3501,-1.3626,-1.3665,-1.2539,-1.207,-1.2236,-1.1801,-1.1451,-1.1209,-1.161,-1.151,0.0,0.0,0.0,0.0,0.0,0.0,0.0,0.0,-1.2881,-1.2881,0.0,-1.2881,-1.2929,-1.2978,-1.2978,-1.3056,-1.338,-1.3541,-1.3618,-1.377,0.0,0.0,0.0,0.0,0.0,0.0,0.0,0.0,0.0,0.0,0.0,0.0,0.0,0.0,0.0,0.0,0.0,0.0,0.0,0.0,0.0,-2.5978,-2.5875,-2.5875,-2.5875,-2.5875,-2.5875,-2.5875,-2.5761,-2.5482,-2.5471,-2.5471,-2.5471,-2.5471,-2.5792,-2.6403,-2.6403,-2.6403,-2.6392,-2.6216,-2.6144,-2.6113,-2.5668,-2.5471,-2.5471,-2.5357,-2.5109,-2.4819,-2.4985,-2.484,-2.454,-2.454,-2.454,-2.454,0.0,0.0,0.0,0.0,0.0,0.0,0.0,0.0,0.0,0.0,0.0,0.0,0.0,0.0,0.0,0.0,0.0,0.0,0.0,-1.0891,-1.1054,-1.1354,-1.184,-1.2126,-1.2208,-1.2981,-1.303,-1.2236,-1.2236,-1.2335,-1.2579,-1.3035,-1.3324,-1.3362,-1.2276,-1.2039,-1.2461,-1.176,-1.146,-1.151,-1.1918,-1.1868,0.0,0.0,0.0,0.0,0.0,0.0,0.0,0.0,-1.2881,-1.2881,0.0,0.0,-1.2929,-1.2929,-1.2978,-1.2978,-1.3142,-1.3273,-1.345,0.0,0.0,0.0,0.0,0.0,0.0,0.0,0.0,0.0,0.0,0.0,0.0,0.0,0.0,0.0,0.0,0.0,0.0,0.0,0.0,0.0,-2.5668,-2.5544,-2.5461,-2.5461,-2.5461,-2.5461,-2.5461,-2.5461,-2.5326,-2.5026,-2.5016,-2.5016,-2.5016,-2.5016,-2.5161,-2.5461,-2.5461,-2.5606,-2.5875,-2.574,-2.5668,-2.5647,-2.5202,-2.5016,-2.5006,-2.483,-2.4757,-2.4747,-2.4602,-2.454,-2.454,-2.454,-2.454,-2.454,0.0,0.0,0.0,0.0,0.0,0.0,0.0,0.0,0.0,0.0,0.0,0.0,0.0,0.0,0.0,0.0,0.0,0.0,-1.0891,-1.0891,-1.0891,-1.0891,-1.1344,-1.183,-1.2254,-1.2699,-1.2868,-1.2812,-1.2812,-1.253,-1.2008,-1.2403,-1.289,-1.3362,-1.254,-1.251,-1.3027,-1.2382,-1.2076,-1.2076,-1.2126,-1.2076,-1.2076,0.0,0.0,0.0,0.0,0.0,0.0,0.0,-1.2881,-1.2881,0.0,0.0,0.0,-1.3085,-1.3085,-1.3085,-1.3085,-1.3085,0.0,0.0,0.0,0.0,0.0,0.0,0.0,0.0,0.0,0.0,0.0,0.0,0.0,0.0,0.0,0.0,0.0,0.0,0.0,0.0,0.0,0.0,-2.5223,-2.4809,-2.454,-2.454,-2.454,-2.454,-2.454,-2.454,-2.454,-2.454,-2.454,-2.454,-2.454,-2.454,-2.454,-2.454,-2.454,-2.5006,-2.5854,-2.542,-2.5223,-2.5202,-2.4736,-2.454,-2.4581,-2.5037,-2.5223,-2.5181,-2.4726,-2.454,-2.454,-2.454,-2.454,-2.454,0.0,0.0,0.0,0.0,0.0,0.0,0.0,0.0,0.0,0.0,0.0,0.0,0.0,0.0,0.0,0.0,0.0,0.0,-1.0891,-1.0891,-1.0891,-1.0891,-1.1344,-1.1489,-1.1202,-1.1893,-1.2271,-1.2246,-1.254,-1.2403,-1.1968,-1.2686,-1.3094,-1.3162,-1.251,-1.2461,-1.2929,-1.2323,-1.2076,-1.2126,-1.2529,-1.2431,-1.2126,0.0,0.0,0.0,0.0,0.0,0.0,0.0,0.0,0.0,0.0,0.0,0.0,-1.3085,-1.3085,-1.3123,-1.3142,0.0,0.0,0.0,0.0,0.0,0.0,0.0,0.0,0.0,0.0,0.0,0.0,0.0,0.0,0.0,0.0,0.0,0.0,0.0,0.0,0.0,0.0,-2.4747,-2.4747,-2.4623,-2.454,-2.454,-2.454,-2.454,-2.454,-2.454,-2.454,-2.454,-2.454,-2.454,-2.454,-2.454,-2.454,-2.454,-2.454,-2.4685,-2.4933,-2.4809,-2.4747,-2.4736,-2.4602,-2.454,-2.4464,-2.4695,-2.4747,-2.4726,-2.4506,-2.454,-2.454,-2.454,-2.454,-2.454,0.0,0.0,0.0,0.0,0.0,0.0,0.0,0.0,0.0,0.0,0.0,0.0,0.0,0.0,0.0,0.0,0.0,0.0,0.0,0.0,-1.0881,-1.0891,-1.1129,-1.1276,-1.128,-1.2063,-1.2403,-1.2215,-1.2696,-1.255,-1.1819,-1.2754,-1.3152,-1.3085,-1.2666,-1.2618,-1.2881,-1.2578,-1.2431,-1.2431,-1.2783,-1.2735,-1.2421,0.0,0.0,0.0,0.0,0.0,0.0,0.0,0.0,0.0,0.0,0.0,0.0,-1.3113,-1.3152,-1.3248,-1.3276,0.0,0.0,0.0,0.0,0.0,0.0,0.0,0.0,0.0,0.0,0.0,0.0,0.0,0.0,0.0,0.0,0.0,0.0,0.0,0.0,0.0,0.0,-2.4209,-2.4022,-2.4167,-2.4198,-2.4022,-2.4002,-2.4084,-2.4271,-2.4281,-2.4364,-2.4444,-2.454,-2.454,-2.454,-2.454,-2.454,-2.454,-2.454,-2.454,-2.454,-2.454,-2.454,-2.454,-2.454,-2.454,-2.454,-2.454,-2.454,-2.454,-2.454,-2.454,-2.454,-2.454,-2.454,-2.454,0.0,0.0,0.0,0.0,0.0,0.0,0.0,0.0,0.0,0.0,0.0,0.0,0.0,0.0,0.0,0.0,0.0,0.0,0.0,0.0,-1.0822,-1.0881,-1.0828,-1.1226,-1.2124,-1.2785,-1.289,-1.2421,-1.3035,-1.2783,-1.1701,-1.2627,-1.3085,-1.3085,-1.2929,-1.2881,-1.2881,-1.2881,-1.2881,-1.2881,-1.2881,-1.2881,-1.2881,-1.2881,0.0,0.0,0.0,0.0,0.0,0.0,0.0,0.0,-1.2881,-1.2978,-1.3123,-1.318,-1.3314,-1.342,0.0,0.0,0.0,0.0,0.0,0.0,0.0,0.0,0.0,0.0,0.0,0.0,0.0,0.0,0.0,0.0,0.0,0.0,0.0,0.0,0.0,0.0,-2.3815,-2.365,-2.3225,-2.3567,-2.3639,-2.3215,-2.3184,-2.337,-2.3795,-2.3815,-2.4022,-2.4467,-2.4436,-2.4436,-2.4478,-2.4436,-2.4436,-2.4478,-2.4436,-2.4457,-2.454,-2.454,-2.454,-2.454,-2.454,-2.454,-2.454,-2.454,-2.454,-2.454,-2.454,-2.454,-2.454,-2.454,-2.454,-2.454,0.0,0.0,0.0,0.0,0.0,0.0,0.0,0.0,0.0,0.0,0.0,0.0,0.0,0.0,0.0,0.0,0.0,0.0,0.0,0.0,-1.0746,-1.0669,-1.0886,-1.1499,-1.2453,-1.2598,-1.2304,-1.1625,-1.2657,-1.2822,-1.2175,-1.2676,-1.2929,-1.2929,-1.2929,-1.2881,-1.2881,-1.2881,-1.2881,-1.2881,-1.2881,-1.2881,-1.2881,-1.2881,-1.2881,0.0,0.0,0.0,0.0,0.0,0.0,0.0,-1.2881,-1.2978,-1.3123,-1.318,-1.3314,-1.342,0.0,0.0,0.0,0.0,0.0,0.0,0.0,0.0,0.0,0.0,0.0,0.0,0.0,0.0,0.0,0.0,0.0,0.0,0.0,0.0,0.0,0.0,-2.3339,-2.3298,-2.3194,-2.3277,-2.3298,-2.3194,-2.3184,-2.3225,-2.3329,-2.3339,-2.3546,-2.4002,-2.367,-2.365,-2.4022,-2.366,-2.366,-2.4012,-2.365,-2.3857,-2.454,-2.454,-2.454,-2.454,-2.454,-2.454,-2.454,-2.454,-2.454,-2.454,-2.454,-2.454,-2.454,-2.454,-2.454,-2.454,0.0,0.0,0.0,0.0,0.0,0.0,0.0,0.0,0.0,0.0,0.0,0.0,0.0,0.0,0.0,0.0,0.0,0.0,0.0,0.0,0.0,-1.0815,-1.1178,-1.1743,-1.2503,-1.2608,-1.251,-1.2138,-1.2715,0.0,0.0,0.0,0.0,-1.2881,0.0,-1.2881,-1.2881,-1.2881,-1.2881,-1.2881,-1.2881,-1.2881,-1.2881,-1.2881,-1.2881,-1.2929,-1.2978,0.0,0.0,0.0,0.0,0.0,0.0,0.0,-1.319,-1.3276,-1.3409,-1.3515,0.0,0.0,0.0,0.0,0.0,0.0,0.0,0.0,0.0,0.0,0.0,0.0,0.0,0.0,0.0,0.0,0.0,0.0,0.0,0.0,0.0,-2.2584,-2.2718,-2.2687,-2.2242,-2.2594,-2.277,-2.2542,-2.2325,-2.2294,-2.2511,-2.2532,-2.2739,-2.3194,-2.3194,-2.3298,-2.3546,-2.3308,-2.3308,-2.3546,-2.3298,-2.3432,-2.3898,-2.4126,-2.4105,-2.3898,-2.3898,-2.3898,-2.3898,-2.3898,-2.4022,-2.4219,-2.4219,-2.4353,-2.454,-2.454,-2.454,-2.454,0.0,0.0,0.0,0.0,0.0,0.0,0.0,0.0,0.0,0.0,0.0,0.0,0.0,0.0,0.0,0.0,0.0,0.0,0.0,0.0,0.0,-1.1172,-1.1516,-1.1906,-1.2474,-1.2743,-1.2832,-1.2783,0.0,0.0,0.0,0.0,0.0,-1.2881,0.0,-1.2881,-1.2881,-1.2881,-1.2881,-1.2881,-1.2881,-1.2929,-1.2929,-1.2929,-1.2929,-1.2968,-1.3075,-1.3065,-1.2968,-1.3132,0.0,0.0,0.0,0.0,-1.3266,-1.3372,-1.3515,-1.3621,0.0,0.0,0.0,0.0,0.0,0.0,0.0,0.0,0.0,0.0,0.0,0.0,0.0,0.0,0.0,0.0,0.0,0.0,0.0,0.0,0.0,-2.1631,-2.1901,-2.1838,-2.1073,-2.1683,-2.1983,-2.16,-2.1207,-2.1166,-2.1549,-2.1569,-2.1818,-2.2356,-2.2594,-2.278,-2.2946,-2.2791,-2.2749,-2.2832,-2.2915,-2.2863,-2.2729,-2.3184,-2.3329,-2.3184,-2.3184,-2.3184,-2.3184,-2.3184,-2.3412,-2.3764,-2.3764,-2.4033,-2.4416,-2.4343,-2.4405,-2.4519,0.0,0.0,0.0,0.0,0.0,0.0,0.0,0.0,0.0,0.0,0.0,0.0,0.0,0.0,0.0,0.0,0.0,0.0,-1.0418,0.0,0.0,-1.1479,-1.1577,-1.1998,-1.2831,-1.29,-1.2676,-1.2224,0.0,0.0,0.0,0.0,0.0,-1.2881,0.0,0.0,-1.2881,-1.2881,-1.2881,-1.2881,-1.2881,-1.2988,-1.3075,-1.3075,-1.3104,-1.317,-1.317,-1.317,-1.317,-1.317,-1.317,0.0,0.0,0.0,-1.3362,-1.3409,-1.3515,0.0,0.0,0.0,0.0,0.0,0.0,0.0,0.0,0.0,0.0,0.0,0.0,0.0,0.0,0.0,0.0,0.0,0.0,0.0,0.0,0.0,0.0,-2.071,-2.0659,-2.0648,-2.0534,-2.0627,-2.0669,-2.0617,-2.0555,-2.0545,-2.0607,-2.0607,-2.1,-2.1869,-2.1176,-2.1176,-2.1983,-2.1197,-2.1,-2.1393,-2.1797,-2.1569,-2.0803,-2.1269,-2.2108,-2.3184,-2.3184,-2.3184,-2.3184,-2.3184,-2.3225,-2.3277,-2.3277,-2.3557,-2.3919,-2.3515,-2.3867,-2.4426,0.0,0.0,0.0,0.0,0.0,0.0,0.0,0.0,0.0,0.0,0.0,0.0,0.0,0.0,0.0,-1.0495,-1.0505,-1.0467,-1.0351,-1.0538,-1.0908,-1.1577,-1.1797,-1.2227,-1.2871,-1.2881,-1.2783,0.0,0.0,0.0,0.0,-1.2783,-1.2881,0.0,0.0,0.0,0.0,0.0,-1.2929,-1.3027,-1.3027,-1.3065,-1.3152,-1.3152,-1.318,-1.3218,-1.3266,-1.3266,-1.3218,-1.3362,-1.3314,-1.3218,-1.3362,0.0,0.0,0.0,0.0,0.0,0.0,0.0,0.0,0.0,0.0,0.0,0.0,0.0,0.0,0.0,0.0,0.0,0.0,0.0,0.0,0.0,0.0,0.0,0.0,0.0,0.0,-2.0131,-2.0276,-2.0327,-2.0079,-2.0276,-2.042,-2.042,-2.0193,-2.0048,-2.0048,-2.0048,-2.0234,-2.0648,-2.0503,-2.0617,-2.1031,-2.0627,-2.0524,-2.0731,-2.0938,-2.0824,-2.0431,-2.0638,-2.1207,-2.2025,-2.2025,-2.217,-2.2418,-2.2418,-2.2563,-2.2801,-2.2801,-2.308,-2.3463,-2.3267,-2.3443,-2.3722,0.0,0.0,0.0,0.0,0.0,0.0,0.0,0.0,0.0,0.0,0.0,0.0,0.0,0.0,0.0,0.0,-1.039,-1.04,-1.043,-1.084,-1.127,-1.1709,-1.2051,-1.2432,-1.2871,-1.2881,0.0,0.0,0.0,0.0,-1.2881,-1.2988,-1.2988,0.0,-1.3203,0.0,0.0,0.0,0.0,0.0,0.0,0.0,0.0,-1.3266,-1.3266,-1.3314,-1.3409,-1.3372,-1.3314,-1.3515,-1.3467,-1.3314,-1.3515,-1.3515,0.0,0.0,0.0,0.0,0.0,0.0,0.0,0.0,0.0,0.0,0.0,0.0,0.0,0.0,0.0,0.0,0.0,0.0,0.0,0.0,0.0,0.0,0.0,0.0,0.0,-1.9458,-1.9603,-1.9613,-1.9282,-1.9541,-1.9737,-1.9737,-1.9437,-1.9251,-1.9251,-1.9251,-1.9292,-1.9406,-1.9624,-1.9789,-1.9903,-1.9789,-1.9737,-1.9737,-1.9737,-1.9799,-1.9903,-1.9903,-2.0224,-2.0783,-2.101,-2.1383,-2.1807,-2.1807,-2.2004,-2.2325,-2.2325,-2.2604,-2.2998,-2.2884,-2.2987,-2.3153,0.0,0.0,0.0,0.0,0.0,0.0,0.0,0.0,0.0,0.0,0.0,0.0,0.0,-1.0582,-1.0505,-1.0322,-1.0322,-1.0449,-1.085,-1.1279,-1.1728,-1.2132,-1.2171,0.0,-1.2871,-1.2881,0.0,0.0,0.0,0.0,-1.2891,-1.3291,-1.3262,-1.2881,-1.29,-1.29,-1.2929,0.0,0.0,0.0,0.0,0.0,0.0,0.0,0.0,0.0,0.0,0.0,-1.3563,-1.3621,-1.361,-1.3563,-1.3621,-1.3621,-1.361,0.0,0.0,0.0,0.0,0.0,0.0,0.0,0.0,0.0,0.0,0.0,0.0,0.0,0.0,0.0,0.0,0.0,0.0,0.0,0.0,0.0,0.0,0.0,0.0,-1.8506,-1.8112,-1.7802,-1.7843,-1.7864,-1.7812,-1.7812,-1.7791,-1.7843,-1.7843,-1.7843,-1.803,-1.8433,-1.8081,-1.8071,-1.8485,-1.8081,-1.7812,-1.7812,-1.7812,-1.8092,-1.8485,-1.8485,-1.8982,-1.9882,-2.0741,-2.1383,-2.1807,-2.1807,-2.1818,-2.1849,-2.1849,-2.2128,-2.248,-2.2035,-2.2439,-2.306,0.0,0.0,0.0,0.0,0.0,0.0,0.0,0.0,0.0,0.0,0.0,0.0,0.0,-1.1437,-1.1354,-1.1271,-1.1187,-1.1204,-1.1361,-1.1748,-1.2061,-1.218,-1.25,-1.2725,-1.2881,-1.2881,0.0,0.0,0.0,-1.2881,-1.2881,-1.3037,-1.3027,-1.2891,-1.3164,-1.3135,-1.2929,-1.3036,0.0,0.0,0.0,0.0,0.0,0.0,0.0,0.0,0.0,0.0,0.0,-1.3621,-1.3621,-1.3621,-1.3621,-1.3621,-1.3621,0.0,0.0,0.0,0.0,0.0,0.0,0.0,0.0,0.0,0.0,0.0,0.0,0.0,0.0,0.0,0.0,0.0,0.0,0.0,0.0,0.0,0.0,0.0,0.0,-1.7988,-1.7833,-1.7668,-1.7668,-1.7668,-1.7668,-1.7668,-1.7668,-1.7668,-1.7668,-1.7668,-1.7802,-1.7957,-1.7812,-1.7812,-1.7968,-1.7812,-1.7668,-1.7678,-1.8019,-1.8226,-1.8392,-1.8682,-1.9235,-1.9848,-2.011,-2.0503,-2.0969,-2.1559,-2.1631,-2.1393,-2.1694,-2.1901,-2.2035,-2.1869,-2.2014,-2.2252,0.0,0.0,0.0,0.0,0.0,0.0,0.0,0.0,0.0,0.0,0.0,0.0,0.0,0.0,-1.1867,-1.1834,-1.1822,-1.1866,-1.1787,-1.2197,-1.2451,-1.2451,-1.2725,-1.2881,-1.2881,-1.2881,0.0,0.0,0.0,0.0,0.0,-1.2881,-1.2881,-1.2891,-1.3224,-1.3194,0.0,0.0,0.0,-1.3266,0.0,0.0,-1.3621,0.0,0.0,0.0,0.0,0.0,0.0,0.0,0.0,0.0,0.0,0.0,0.0,0.0,0.0,0.0,0.0,0.0,0.0,0.0,0.0,0.0,0.0,0.0,0.0,0.0,0.0,0.0,0.0,0.0,0.0,0.0,0.0,0.0,0.0,0.0,0.0,-1.7067,-1.6912,-1.6808,-1.6808,-1.6808,-1.6808,-1.6808,-1.6953,0.0,-1.7273,-1.7311,-1.7274,-1.7274,-1.7274,-1.7274,-1.7274,-1.7274,-1.7274,-1.7284,-1.7719,-1.8009,-1.8175,-1.863,-1.9085,-1.9599,-1.9765,-2.0017,-2.0472,-2.1093,-2.1155,-2.0917,-2.1217,-2.1342,-2.1362,-2.1518,-2.1476,-2.1383,0.0,0.0,0.0,0.0,0.0,0.0,0.0,0.0,0.0,0.0,0.0,0.0,0.0,0.0,0.0,-1.1864,-1.2208,-1.2355,-1.2246,-1.2646,-1.2929,-1.2929,-1.2929,-1.2929,-1.2929,-1.2881,-1.2881,0.0,0.0,0.0,0.0,0.0,-1.2881,-1.2929,-1.3036,-1.3085,-1.3123,0.0,-1.3266,-1.3409,0.0,-1.3621,-1.3621,0.0,0.0,0.0,-1.3621,-1.3621,0.0,0.0,0.0,0.0,0.0,0.0,0.0,0.0,0.0,0.0,0.0,0.0,0.0,0.0,0.0,0.0,0.0,0.0,0.0,0.0,0.0,0.0,0.0,0.0,0.0,0.0,0.0,0.0,0.0,0.0,0.0,-1.5722,-1.5277,-1.4997,-1.4997,-1.4997,-1.4997,-1.4997,-1.5411,-1.5932,-1.6471,-1.6451,-1.6384,-1.6384,-1.6384,-1.6384,-1.6384,-1.6384,-1.6384,-1.6384,-1.6829,-1.7214,-1.7729,-1.8175,-1.862,-1.9075,-1.9609,-1.9986,-2.0389,-2.041,-2.042,-2.04,-2.042,-2.042,-2.0483,-2.0928,-2.0803,-2.0555,0.0,0.0,0.0,0.0,0.0,0.0,0.0,0.0,0.0,0.0,0.0,0.0,0.0,0.0,-1.2996,-1.2809,-1.2919,-1.2942,-1.2952,-1.3062,-1.3132,-1.3132,-1.3065,-1.3036,-1.3036,-1.2929,-1.2881,-1.2881,0.0,0.0,0.0,0.0,0.0,0.0,-1.3085,-1.3162,-1.3334,-1.3324,0.0,0.0,-1.3573,-1.3621,0.0,0.0,0.0,0.0,0.0,-1.3621,-1.3621,0.0,-1.3621,-1.3621,0.0,0.0,0.0,0.0,0.0,0.0,-1.3621,0.0,0.0,0.0,0.0,0.0,0.0,0.0,0.0,0.0,0.0,0.0,0.0,0.0,0.0,0.0,0.0,0.0,0.0,0.0,0.0,-1.5204,-1.507,-1.4997,-1.4997,-1.4997,-1.4997,0.0,-1.5121,-1.5382,-1.5878,-1.6238,-1.6384,-1.6384,-1.6384,-1.6384,-1.6384,-1.6384,-1.6384,-1.6384,-1.6829,-1.7049,-1.7203,-1.803,-1.8444,-1.8599,-1.9054,-1.9334,-1.9499,-2.0151,-2.0234,-1.9975,-2.0296,-2.042,-2.0441,-2.0565,-2.0534,-2.0462,0.0,0.0,0.0,0.0,0.0,0.0,0.0,0.0,0.0,0.0,0.0,0.0,0.0,0.0,-1.342,-1.3314,-1.3266,-1.3266,-1.3218,-1.3218,-1.317,-1.3142,-1.3123,-1.3075,-1.3027,-1.2929,-1.2881,-1.2881,0.0,0.0,0.0,0.0,0.0,0.0,0.0,0.0,0.0,0.0,0.0,0.0,-1.3573,0.0,0.0,-1.3621,-1.3621,0.0,0.0,0.0,-1.3658,-1.4082,-1.4093,0.0,0.0,0.0,0.0,0.0,0.0,0.0,0.0,0.0,0.0,0.0,0.0,0.0,-1.3621,-1.3621,-1.3621,0.0,0.0,0.0,0.0,0.0,0.0,0.0,0.0,0.0,0.0,0.0,0.0,-1.4449,-1.4417,-1.4417,-1.4417,-1.4417,-1.4417,-1.4417,-1.4604,-1.5008,-1.568,-1.6155,-1.6409,-1.6419,-1.6588,-1.6637,-1.6384,-1.6637,-1.6637,-1.6384,-1.6829,-1.6987,-1.7007,-1.7781,-1.8206,-1.8382,-1.8475,-1.8723,-1.9085,-1.9241,-1.9375,-1.9499,-1.9758,-1.9862,-1.9882,-2.0079,-2.0027,-1.9913,0.0,0.0,0.0,0.0,0.0,0.0,0.0,0.0,0.0,0.0,0.0,0.0,0.0,0.0,0.0,0.0,-1.342,-1.3362,-1.3266,-1.3266,0.0,-1.3172,-1.3123,-1.3075,-1.2968,-1.292,-1.292,-1.292,0.0,0.0,0.0,0.0,0.0,0.0,0.0,0.0,0.0,0.0,0.0,-1.3621,-1.3621,-1.3621,0.0,0.0,-1.3705,0.0,-1.428,-1.4186,-1.3894,-1.4777,-1.4834,0.0,0.0,0.0,0.0,0.0,-1.3621,0.0,0.0,0.0,0.0,0.0,0.0,0.0,-1.3621,-1.3621,-1.3621,-1.3621,0.0,0.0,0.0,0.0,0.0,0.0,0.0,0.0,0.0,0.0,0.0,-1.3662,-1.3621,-1.3621,-1.3621,-1.3668,-1.3705,-1.3705,-1.4143,-1.4731,-1.5604,-1.607,-1.631,-1.6321,-1.6753,-1.6845,-1.6384,-1.6899,-1.6899,-1.6384,-1.6777,-1.6915,-1.6925,-1.7389,-1.7864,-1.8216,-1.7874,-1.8185,-1.8858,-1.8061,-1.8226,-1.8992,-1.8992,-1.8992,-1.9054,-1.9588,-1.9495,-1.9189,0.0,0.0,0.0,0.0,0.0,0.0,0.0,0.0,0.0,0.0,0.0,0.0,0.0,0.0,0.0,0.0,-1.3563,-1.3573,-1.3515,-1.3515,0.0,-1.3478,-1.3382,-1.3324,-1.3276,-1.318,-1.3132,-1.3132,0.0,0.0,0.0,0.0,0.0,0.0,0.0,0.0,0.0,0.0,0.0,-1.3621,-1.3621,0.0,-1.3668,-1.4093,-1.4233,-1.4326,-1.4789,-1.488,-1.4834,0.0,-1.5062,-1.488,0.0,0.0,0.0,0.0,0.0,0.0,0.0,0.0,0.0,0.0,0.0,0.0,-1.3621,-1.3621,-1.3621,0.0,0.0,0.0,0.0,0.0,0.0,0.0,0.0,0.0,0.0,0.0,0.0,0.0,-1.3621,-1.3621,-1.3621,-1.3999,-1.4233,-1.4233,-1.4618,-1.492,-1.5115,-1.5235,-1.5457,-1.5834,-1.5928,-1.6102,-1.6374,-1.6477,-1.6477,-1.6384,-1.6467,-1.6508,-1.6529,-1.6974,-1.7162,-1.7265,-1.7605,-1.7771,-1.7978,-1.7802,-1.804,-1.8516,-1.8516,-1.8516,-1.8568,-1.9034,-1.9214,-1.9096,0.0,0.0,0.0,0.0,0.0,0.0,0.0,0.0,0.0,0.0,0.0,0.0,0.0,0.0,0.0,0.0,0.0,0.0,0.0,0.0,0.0,0.0,-1.342,-1.3372,-1.3314,-1.3218,-1.3218,-1.3218,0.0,0.0,0.0,0.0,0.0,0.0,0.0,0.0,0.0,0.0,-1.3621,-1.3621,-1.3621,0.0,-1.4046,-1.428,-1.4558,-1.4834,-1.5266,-1.5579,-1.5724,-1.5244,-1.5108,0.0,0.0,-1.4605,-1.4326,0.0,-1.3999,-1.3952,0.0,0.0,0.0,-1.3621,0.0,0.0,0.0,-1.3621,-1.3621,-1.3621,0.0,0.0,0.0,0.0,0.0,0.0,0.0,0.0,0.0,0.0,0.0,0.0,-1.3858,-1.3905,-1.361,-1.4093,-1.428,-1.3999,-1.4628,-1.5054,-1.5054,-1.5268,-1.5592,-1.6087,-1.6618,-1.6891,-1.683,-1.7401,-1.7579,-1.7234,-1.6965,-1.6786,-1.6797,-1.6717,-1.6829,-1.6987,-1.7057,-1.7315,-1.7698,-1.7243,-1.7315,-1.7761,-1.8206,-1.8382,-1.8433,-1.8899,-1.9075,-1.9075,0.0,0.0,0.0,0.0,0.0,0.0,0.0,0.0,0.0,0.0,0.0,0.0,0.0,0.0,0.0,0.0,0.0,0.0,0.0,0.0,0.0,0.0,-1.342,-1.3372,-1.3266,-1.3266,-1.3266,-1.3266,0.0,0.0,0.0,0.0,0.0,0.0,0.0,0.0,0.0,0.0,0.0,-1.3894,0.0,-1.4035,-1.428,-1.4466,-1.4789,-1.5153,-1.5712,-1.6194,-1.638,-1.5635,0.0,-1.5232,-1.5232,-1.4915,0.0,0.0,0.0,0.0,0.0,0.0,0.0,0.0,0.0,-1.3894,0.0,0.0,0.0,-1.3894,0.0,0.0,0.0,0.0,0.0,0.0,0.0,0.0,0.0,0.0,0.0,0.0,-1.4093,-1.414,-1.381,-1.414,-1.4326,-1.4025,-1.4686,-1.5153,-1.5232,-1.5522,-1.5822,-1.6209,-1.7069,-1.7345,-1.698,-1.7919,-1.8186,-1.7776,-1.7268,-1.7045,-1.7045,-1.6591,-1.657,-1.6891,-1.6539,-1.6798,-1.7419,-1.6684,-1.6591,-1.6995,-1.7802,-1.8123,-1.8185,-1.8733,-1.894,-1.8951,-1.2183,-1.2544,0.0,0.0,0.0,0.0,0.0,0.0,0.0,0.0,0.0,0.0,0.0,0.0,0.0,0.0,0.0,0.0,-1.4411,0.0,0.0,0.0,0.0,-1.3563,-1.3563,-1.3563,-1.3563,-1.3563,0.0,0.0,0.0,0.0,0.0,0.0,-1.381,0.0,0.0,0.0,-1.4686,0.0,-1.4915,-1.4408,0.0,-1.4686,-1.5062,-1.5244,-1.612,-1.6466,-1.6466,0.0,-1.6064,-1.57,0.0,-1.54,-1.5017,0.0,0.0,0.0,0.0,0.0,0.0,0.0,-1.4605,0.0,0.0,0.0,-1.4915,-1.4915,0.0,0.0,0.0,0.0,0.0,0.0,0.0,0.0,0.0,0.0,0.0,-1.488,-1.4222,-1.3847,-1.428,-1.4373,-1.4731,-1.5478,-1.5277,-1.5277,-1.5712,-1.538,-1.5198,-1.5158,-1.5268,-1.5499,-1.5888,-1.6006,-1.6237,-1.6591,-1.6545,-1.6488,-1.6488,-1.6441,-1.6405,-1.6456,-1.6405,-1.6446,-1.6529,-1.6425,-1.6415,-1.6508,-1.7005,-1.7131,-1.7295,-1.8143,-1.8454,-1.8516,0.0,0.0,0.0,0.0,0.0,0.0,0.0,0.0,0.0,0.0,0.0,0.0,0.0,0.0,0.0,0.0,0.0,-1.4503,0.0,0.0,0.0,0.0,0.0,0.0,0.0,0.0,0.0,0.0,-1.3621,0.0,0.0,0.0,0.0,0.0,-1.428,0.0,-1.5108,0.0,0.0,0.0,0.0,0.0,0.0,-1.5266,-1.5724,-1.6088,-1.6491,-1.6663,-1.6748,0.0,-1.638,0.0,0.0,0.0,0.0,0.0,0.0,0.0,0.0,0.0,0.0,0.0,0.0,0.0,-1.5108,0.0,-1.5108,0.0,0.0,0.0,0.0,0.0,0.0,0.0,-1.4288,0.0,0.0,0.0,0.0,0.0,0.0,0.0,-1.4743,-1.4789,-1.496,-1.5355,-1.5445,-1.549,-1.54,-1.5724,-1.5775,-1.5476,-1.635,-1.694,-1.7175,-1.7746,-1.8207,-1.8363,-1.8061,-1.7909,-1.7897,-1.7179,-1.6842,-1.6842,-1.6534,-1.6384,-1.6384,-1.6384,-1.6384,-1.6394,-1.6581,-1.6808,-1.709,-1.805,-1.8382,-1.8444,0.0,0.0,0.0,0.0,0.0,0.0,0.0,0.0,0.0,0.0,0.0,0.0,-1.3621,-1.3915,0.0,0.0,0.0,-1.5188,0.0,0.0,-1.4732,-1.4118,-1.4071,0.0,0.0,0.0,0.0,0.0,0.0,0.0,0.0,0.0,0.0,0.0,0.0,-1.5006,-1.5457,0.0,0.0,-1.5558,-1.5558,-1.5635,-1.5756,-1.5832,-1.625,-1.6761,-1.6761,-1.6803,-1.6876,-1.6876,-1.6522,0.0,-1.6705,0.0,0.0,0.0,0.0,0.0,-1.549,0.0,0.0,0.0,0.0,0.0,0.0,0.0,0.0,0.0,0.0,0.0,0.0,0.0,0.0,0.0,0.0,-1.4133,0.0,0.0,0.0,0.0,0.0,0.0,0.0,-1.4834,-1.4971,-1.5108,-1.5534,-1.5712,-1.5501,-1.612,-1.6281,-1.5832,-1.68,-1.7408,-1.7497,-1.8133,-1.8598,-1.8845,-1.8483,-1.829,-1.8278,-1.739,-1.7,-1.6944,-1.6591,-1.6384,-1.6431,-1.6534,-1.6637,-1.6637,-1.6807,-1.6952,-1.711,-1.7781,-1.8092,-1.8268,-1.5304,-1.4789,0.0,0.0,0.0,0.0,0.0,0.0,0.0,0.0,0.0,0.0,0.0,0.0,0.0,0.0,0.0,-1.6871,-1.6306,0.0,-1.5952,0.0,-1.5299,-1.5266,0.0,0.0,0.0,0.0,0.0,0.0,0.0,0.0,0.0,0.0,0.0,-1.5901,-1.6479,-1.6479,-1.6534,-1.6633,-1.6633,-1.6718,-1.6778,0.0,-1.6398,-1.6876,-1.6876,0.0,0.0,-1.6876,-1.6539,-1.6201,-1.6735,0.0,0.0,0.0,0.0,0.0,0.0,0.0,0.0,-1.6088,0.0,0.0,0.0,0.0,-1.6479,0.0,0.0,0.0,0.0,0.0,0.0,0.0,0.0,0.0,0.0,0.0,0.0,0.0,0.0,0.0,0.0,-1.414,-1.4605,-1.5062,-1.5534,-1.5964,-1.6423,-1.6466,-1.6281,-1.5832,-1.5402,-1.5389,-1.5793,-1.5372,-1.5592,-1.6488,-1.6488,-1.6488,-1.6488,-1.6431,-1.6441,-1.6431,-1.6431,-1.6384,-1.6431,-1.6944,-1.7146,-1.7257,-1.782,-1.771,-1.7177,-1.7068,-1.7307,-1.7812,0.0,0.0,0.0,0.0,0.0,0.0,0.0,-1.4212,0.0,0.0,0.0,0.0,0.0,0.0,-1.6539,0.0,0.0,-1.6928,-1.6349,-1.6312,0.0,0.0,0.0,-1.5389,0.0,0.0,0.0,0.0,0.0,0.0,0.0,0.0,0.0,0.0,0.0,-1.6076,0.0,0.0,0.0,0.0,0.0,-1.6918,-1.696,0.0,-1.6778,-1.696,-1.696,-1.7002,-1.7115,-1.7115,-1.6905,-1.6765,-1.6989,-1.6892,-1.668,-1.6918,-1.6918,-1.6876,-1.668,-1.6778,-1.6833,-1.6663,0.0,0.0,0.0,0.0,0.0,0.0,0.0,0.0,0.0,0.0,0.0,0.0,0.0,0.0,0.0,0.0,0.0,0.0,0.0,0.0,0.0,0.0,-1.4885,-1.51,-1.554,-1.5876,-1.602,-1.6337,-1.6281,-1.5832,-1.6341,-1.6672,-1.6823,-1.7026,-1.7449,-1.8147,-1.8147,-1.8312,-1.8632,-1.8267,-1.8116,-1.8127,-1.7678,-1.7512,-1.7556,-1.771,-1.7534,-1.7202,-1.7424,-1.7168,-1.6747,-1.7365,-1.7417,-1.7327,-1.6667,0.0,0.0,0.0,0.0,0.0,0.0,0.0,0.0,0.0,-1.6397,0.0,-1.7073,0.0,-1.7373,0.0,-1.7402,-1.7264,-1.6663,-1.6625,0.0,-1.6051,-1.6008,0.0,0.0,0.0,0.0,0.0,0.0,-1.5768,0.0,0.0,0.0,0.0,0.0,0.0,0.0,0.0,-1.6846,0.0,0.0,-1.7086,0.0,0.0,-1.7044,-1.7086,0.0,-1.7115,-1.7199,-1.7199,-1.7157,-1.7073,-1.7157,-1.7115,-1.7002,-1.7086,-1.7044,-1.7002,-1.7002,-1.7002,-1.7002,-1.696,-1.696,0.0,-1.6803,0.0,-1.6761,0.0,0.0,0.0,0.0,0.0,0.0,0.0,0.0,0.0,0.0,-1.3309,0.0,0.0,0.0,0.0,0.0,0.0,-1.5037,-1.5078,-1.5672,-1.6064,-1.6064,-1.6337,-1.638,-1.6064,-1.6552,-1.6938,-1.7078,-1.7433,-1.791,-1.8396,-1.859,-1.8846,-1.9162,-1.8869,-1.8536,-1.8321,-1.7929,-1.7754,-1.7809,-1.7984,-1.7984,-1.7875,-1.807,-1.782,-1.7345,-1.7562,-1.761,-1.7648,0.0,0.0,0.0,0.0,-1.4536,0.0,0.0,0.0,-1.6221,0.0,-1.692,-1.7253,-1.7277,-1.775,-1.7847,-1.7343,-1.7766,0.0,-1.7238,-1.7199,0.0,0.0,-1.7073,-1.7002,-1.7002,0.0,0.0,0.0,0.0,0.0,0.0,0.0,0.0,0.0,-1.6633,0.0,-1.6718,-1.6846,-1.696,-1.7002,-1.7157,-1.7199,-1.7199,-1.7199,-1.7199,-1.7199,-1.7199,-1.7199,-1.7199,-1.7199,-1.7199,-1.7199,-1.7199,-1.7199,-1.7199,-1.7199,-1.7199,-1.7199,-1.7199,-1.7115,-1.7002,-1.7002,-1.696,-1.6918,0.0,0.0,-1.6876,0.0,0.0,0.0,0.0,0.0,0.0,0.0,0.0,0.0,0.0,0.0,0.0,0.0,0.0,0.0,0.0,-1.4127,-1.5,-1.4971,-1.5916,0.0,0.0,-1.6522,-1.6522,-1.6522,-1.6064,-1.6029,-1.65,-1.6559,-1.6873,-1.7364,-1.7848,-1.8155,-1.8201,-1.8201,-1.7863,-1.7313,-1.7313,-1.7313,-1.7357,-1.7895,-1.8447,-1.9004,-1.9503,-1.9423,-1.8881,-1.7699,-1.7791,-1.8529,-1.7199,-1.685,-1.6484,0.0,-1.5952,-1.5764,0.0,0.0,0.0,0.0,-1.8729,-1.9274,-1.9746,-1.9523,-1.9081,-1.8487,-1.8234,0.0,0.0,0.0,0.0,-1.7199,-1.7157,-1.7157,-1.7157,-1.7002,0.0,-1.6846,0.0,0.0,-1.6522,0.0,0.0,0.0,0.0,0.0,-1.6918,-1.696,-1.7044,-1.7157,-1.7199,-1.7199,-1.7199,0.0,-1.7199,-1.7199,-1.7199,-1.7199,-1.7199,-1.7199,-1.7199,-1.7199,-1.7199,-1.7199,-1.7199,-1.7199,-1.7199,-1.7199,-1.7199,-1.7157,-1.7157,-1.7157,-1.7157,-1.7115,-1.7002,-1.696,0.0,0.0,0.0,0.0,0.0,0.0,0.0,0.0,0.0,0.0,0.0,0.0,0.0,-1.3626,0.0,0.0,0.0,-1.3876,-1.4802,-1.4482,-1.5719,0.0,0.0,0.0,-1.6522,-1.6522,-1.638,-1.6355,-1.6504,-1.6507,-1.7002,-1.7958,-1.8093,-1.8571,-1.9371,-1.9371,-1.9267,-1.915,-1.915,-1.915,-1.9113,-1.8863,-1.8602,-1.8322,-1.8464,-1.873,-1.8934,-1.8147,-1.7757,-1.7628,-1.7199,0.0,0.0,-1.7031,0.0,0.0,-1.6992,0.0,0.0,-1.876,-1.9608,0.0,-1.9904,-1.9839,-1.9564,-1.8963,-1.8623,0.0,-1.797,0.0,0.0,-1.7604,-1.7591,-1.7473,-1.7212,-1.7086,0.0,-1.6918,0.0,0.0,-1.665,0.0,0.0,0.0,0.0,-1.6876,0.0,-1.7086,-1.7115,-1.7199,-1.7199,-1.7199,0.0,-1.7199,-1.7199,-1.7199,-1.7199,-1.7199,-1.7199,-1.7199,-1.7199,-1.7199,-1.7199,-1.7199,-1.7199,-1.7199,-1.7199,-1.7199,-1.7199,-1.7199,-1.7199,-1.7199,-1.7199,-1.7199,-1.7115,-1.7073,-1.7073,-1.7044,-1.7044,-1.7044,-1.7044,0.0,0.0,0.0,0.0,0.0,0.0,0.0,0.0,0.0,-1.4489,0.0,0.0,-1.422,-1.5049,-1.4578,-1.577,0.0,0.0,0.0,-1.6522,-1.6522,-1.676,-1.6773,-1.6522,-1.7011,-1.7576,-1.8204,-1.8455,-1.8995,-1.9798,-1.9798,-1.9643,-1.9448,-1.9448,-1.93,-1.9054,-1.872,-1.8412,-1.8166,-1.8399,-1.8814,-1.9291,-1.8951,-1.8612,-1.8326,0.0,0.0,0.0,0.0,0.0,0.0,0.0,-1.8591,0.0,-1.9028,0.0,-2.0319,-1.9251,-1.9538,-1.959,-1.9068,0.0,-1.8911,-1.8911,-1.8911,-1.8702,-1.8231,-1.814,-1.7852,-1.7329,-1.7125,0.0,0.0,0.0,0.0,0.0,0.0,0.0,0.0,0.0,0.0,0.0,-1.7157,-1.7199,-1.7199,-1.7199,-1.7199,-1.7199,-1.7199,-1.7199,-1.7199,-1.7199,-1.7199,-1.7199,-1.7199,-1.7199,-1.7199,-1.7199,-1.7199,-1.7199,-1.7199,-1.7199,-1.7199,-1.7199,-1.7199,-1.7199,-1.7199,-1.7199,-1.7199,-1.7199,-1.7199,-1.7199,-1.7199,-1.7199,-1.7199,-1.7199,0.0,0.0,0.0,0.0,0.0,0.0,0.0,0.0,0.0,0.0,0.0,0.0,0.0,0.0,0.0,0.0,0.0,0.0,0.0,-1.6522,-1.6522,-1.7011,-1.7061,-1.6635,-1.7526,-1.8091,-1.8317,-1.8731,-1.9233,-1.9798,-1.9798,-1.9515,-1.8996,-1.8996,-1.8682,-1.8111,-1.8051,-1.8093,-1.8254,-1.8819,-1.9346,-1.9798,-1.9798,-1.9744,-1.9667,0.0,0.0,0.0,0.0,0.0,-1.8414,-1.9308,-1.9543,-1.9608,-1.9643,-2.028,-2.0633,-2.0424,-2.0022,-1.976,-1.9656,-1.9198,0.0,0.0,0.0,0.0,-1.8767,-1.8336,-1.8048,-1.7944,-1.7418,-1.7115,0.0,0.0,0.0,0.0,0.0,0.0,0.0,0.0,0.0,-1.7157,-1.7199,0.0,-1.7199,-1.7199,-1.7199,-1.7199,-1.7199,-1.7199,-1.7199,-1.7199,-1.7199,-1.7199,-1.7199,-1.7199,-1.7199,-1.7199,-1.7199,-1.7199,-1.7199,-1.7199,-1.7199,-1.7199,-1.7199,-1.7199,-1.7199,-1.7199,-1.7199,-1.7199,-1.7199,-1.7199,-1.7199,-1.7199,-1.7199,-1.7199,-1.7115,0.0,0.0,0.0,0.0,0.0,0.0,0.0,0.0,0.0,-1.6169,0.0,0.0,0.0,0.0,0.0,0.0,0.0,0.0,-1.6522,-1.6522,-1.6609,-1.6848,-1.7225,-1.6961,-1.7513,-1.8882,-1.8518,-1.8857,-1.9798,-1.9798,-1.9521,-1.9021,-1.9021,-1.8709,-1.8161,-1.77,-1.7784,-1.8254,-1.8819,-1.9346,-1.9798,-1.9798,-1.9809,-1.9728,0.0,0.0,0.0,0.0,0.0,0.0,0.0,-2.0061,-2.0139,-1.9839,-2.0309,-2.0476,-1.9812,-2.0048,-2.0126,-1.9839,-1.9812,-1.9812,-1.9812,-1.9812,-1.9682,-1.9381,-1.8819,0.0,-1.8114,-1.7512,-1.7157,-1.7115,0.0,0.0,0.0,0.0,0.0,0.0,0.0,-1.7157,0.0,0.0,0.0,-1.7199,-1.7199,-1.7199,-1.7199,-1.7199,-1.7199,-1.7199,-1.7199,-1.7199,-1.7199,-1.7199,-1.7199,-1.7199,-1.7199,-1.7199,-1.7199,-1.7199,-1.7199,-1.7199,-1.7199,-1.7199,-1.7199,-1.7199,-1.7199,-1.7199,-1.7199,-1.7199,-1.7199,-1.7199,-1.7199,-1.7199,-1.7199,-1.7157,-1.7086,0.0,0.0,0.0,0.0,0.0,0.0,0.0,0.0,0.0,0.0,0.0,0.0,0.0,0.0,0.0,0.0,0.0,-1.6522,-1.6522,-1.681,-1.6961,-1.6936,-1.6961,-1.7513,-1.8593,-1.8329,-1.8631,-1.9397,-1.9397,-1.9108,-1.8606,-1.8606,-1.8292,-1.7739,-1.7174,-1.7438,-1.8229,-1.8493,-1.9095,-1.9798,-1.9798,-1.9798,-1.9747,0.0,-1.8662,0.0,0.0,-1.9094,0.0,-1.9891,-2.046,-2.0641,-2.0096,-2.0424,-2.0358,-1.9381,-2.0149,-2.0529,-2.0022,-2.045,-2.0699,-2.0699,-2.0699,-2.0552,-2.014,-1.943,-1.8882,-1.8578,-1.7847,-1.7434,0.0,0.0,0.0,0.0,0.0,0.0,0.0,0.0,0.0,0.0,-1.7323,-1.7282,-1.7199,-1.7199,-1.7199,-1.7199,-1.7199,-1.7199,-1.7199,-1.7199,-1.7199,-1.7199,-1.7199,-1.7199,-1.7199,-1.7199,-1.7199,-1.7199,-1.7199,-1.7199,-1.7199,-1.7199,-1.7199,-1.7199,-1.7199,-1.7199,-1.7199,-1.7199,-1.7199,-1.7199,-1.7199,-1.7199,-1.7199,-1.7199,-1.7199,-1.7157,0.0,0.0,0.0,0.0,0.0,0.0,0.0,0.0,0.0,-1.5657,0.0,0.0,0.0,0.0,0.0,-1.3987,0.0,-1.6522,-1.6522,-1.6961,-1.7036,-1.671,-1.7036,-1.7539,-1.8204,-1.8091,-1.8317,-1.8857,-1.8857,-1.8555,-1.8028,-1.8028,-1.7714,-1.7174,-1.6835,-1.73,-1.8216,-1.8342,-1.8957,-1.9798,-1.9798,-1.9798,-1.9798,0.0,0.0,0.0,0.0,0.0,0.0,-2.0529,-2.1006,-2.1166,-2.0683,-2.0673,-2.066,-2.0555,-2.0633,-2.0686,-2.0633,-2.0673,-2.0699,-2.0699,-2.0699,-2.0871,-2.1245,-2.0165,-1.9693,-2.0089,-1.8985,-1.8187,0.0,0.0,-1.7557,0.0,0.0,0.0,0.0,0.0,-1.776,-1.776,-1.776,-1.7516,-1.7199,-1.7199,-1.7199,-1.7199,-1.7199,-1.7199,-1.7199,-1.7199,-1.7199,-1.7199,-1.7199,-1.7199,-1.7199,-1.7199,-1.7199,-1.7199,-1.7199,-1.7199,-1.7199,-1.7199,-1.7199,-1.7199,-1.7199,-1.7199,-1.7199,-1.7199,-1.7199,-1.7199,-1.7199,-1.7199,-1.7199,-1.7199,-1.7199,-1.7199,-1.7199,0.0,0.0,0.0,0.0,0.0,0.0,0.0,0.0,0.0,-1.6765,0.0,0.0,-1.5281,0.0,0.0,-1.6409,-1.6522,-1.6522,-1.6572,-1.6823,-1.73,-1.6835,-1.7137,-1.8191,-1.7702,-1.7752,-1.8279,-1.8279,-1.7978,-1.7451,-1.7451,-1.7137,-1.6635,-1.7099,-1.7664,-1.8254,-1.8756,-1.9296,-1.9798,-1.9798,-1.9798,-1.9798,0.0,0.0,0.0,0.0,0.0,0.0,0.0,-2.1301,-2.1379,-2.1724,-2.1623,-2.1527,-2.1527,-2.1264,-2.1215,-2.1541,-2.1264,-2.1215,-2.1527,-2.1527,-2.1623,-2.1813,-2.1056,-2.0506,-2.0302,-1.9459,-1.8747,0.0,0.0,0.0,0.0,0.0,-1.7787,-1.8226,-1.8226,-1.8226,-1.8226,-1.8226,-1.8108,-1.7988,-1.7988,-1.7988,-1.7988,-1.7988,-1.7988,-1.7988,-1.7988,-1.7988,-1.7988,-1.7988,-1.7639,-1.7199,-1.7199,-1.7199,-1.7199,-1.7199,-1.7199,-1.7199,-1.7199,-1.7199,-1.7199,-1.7199,-1.7199,-1.7199,-1.7199,-1.7199,-1.7199,-1.7199,-1.7199,-1.7199,-1.7199,-1.7199,-1.7199,-1.7199,0.0,0.0,0.0,0.0,0.0,0.0,0.0,0.0,0.0,0.0,0.0,0.0,0.0,0.0,0.0,-1.5765,-1.6522,-1.6522,-1.6522,-1.6635,-1.6861,-1.6635,-1.6923,-1.7714,-1.7488,-1.7501,-1.7714,-1.7714,-1.74,-1.6861,-1.6861,-1.6936,-1.7049,-1.7287,-1.7903,-1.8719,-1.8895,-1.9346,-1.9798,-1.9798,-1.9798,-1.9798,-2.2512,0.0,-2.188,0.0,-2.1485,-2.1322,-2.1937,-2.1882,-2.2026,-2.2637,-2.268,-2.2543,-2.2267,-2.1874,-2.1827,-2.2128,-2.1813,-2.1732,-2.2081,-2.2081,-2.2175,-2.2314,-2.1778,0.0,-2.0697,-2.0122,-1.9412,-1.8669,-1.8526,0.0,0.0,-1.8467,-1.8794,-1.9248,-1.9063,-1.8977,-1.8963,-1.874,-1.863,-1.85,-1.85,-1.85,-1.85,-1.85,-1.85,-1.85,-1.85,-1.85,-1.85,-1.85,-1.8068,-1.7598,-1.7598,-1.7598,-1.7598,-1.7598,-1.7598,-1.7557,-1.7393,-1.7475,-1.7516,-1.7282,-1.7282,-1.7352,-1.724,-1.7199,-1.7199,-1.7199,-1.7199,-1.7199,-1.7199,-1.7199,-1.7199,-1.7199,-1.7199,0.0,0.0,-1.7199,0.0,0.0,-1.7199,-1.7157,-1.7086,-1.696,0.0,0.0,0.0,0.0,0.0,-1.568,-1.6522,-1.6522,-1.6522,-1.6522,-1.6522,-1.6522,-1.6722,-1.7137,-1.7137,-1.7137,-1.7137,-1.7137,-1.6999,-1.6773,-1.6773,-1.7099,-1.7626,-1.7626,-1.8179,-1.8983,-1.8983,-1.9346,-1.9798,-1.9798,-1.9798,-1.9798,-2.2512,-2.2498,-2.2498,-2.2512,-2.2498,-2.2498,-2.2512,-2.2905,-2.3172,-2.3172,-2.3653,-2.361,-2.2603,-2.2374,-2.2267,-2.2314,-2.2175,-2.2081,-2.2081,-2.2081,-2.2314,0.0,0.0,-2.1825,-2.171,-2.1013,-2.0152,-1.9101,0.0,0.0,-1.9388,-2.0077,-2.0626,-2.1027,-2.036,-2.0084,-2.004,-1.9362,-1.886,-1.85,-1.85,-1.85,-1.85,-1.85,-1.85,-1.85,-1.85,-1.85,-1.85,-1.85,-1.85,-1.8461,-1.8461,-1.8461,-1.8461,-1.8461,-1.8461,-1.8383,-1.7908,-1.8108,-1.8266,-1.7434,-1.7516,-1.7679,-1.7282,-1.7199,-1.7199,-1.7199,-1.7199,-1.7199,-1.7199,-1.7199,-1.7199,-1.7199,-1.7199,0.0,0.0,-1.7199,0.0,-1.7199,-1.7199,-1.7199,-1.7199,-1.7073,0.0,0.0,0.0,0.0,0.0,-1.6607,-1.6633,-1.6522,-1.6633,-1.662,-1.6522,-1.6522,-1.6522,-1.6522,-1.6522,-1.6522,-1.6522,-1.6522,-1.6835,-1.7375,-1.7375,-1.7689,-1.8191,-1.8191,-1.853,-1.8983,-1.8983,-1.9346,-1.9798,-1.9798,-1.9798,-1.9798,-2.3724,-2.3724,-2.3638,-2.3334,-2.3108,-2.3044,-2.3216,-2.2763,-2.2757,-2.383,-2.364,-2.3477,-2.3721,-2.3216,-2.3039,0.0,-2.3098,-2.295,0.0,-2.3275,-2.3275,-2.3377,-2.317,-2.2869,-2.2383,-2.2158,-2.1685,-2.0857,-2.0812,-2.0698,-2.0561,-2.0777,-2.1085,-2.1505,-2.1297,-2.0917,-2.0502,-2.0279,-1.9849,-1.931,-1.931,-1.931,-1.931,-1.931,-1.931,-1.931,-1.931,-1.931,-1.931,-1.931,-1.931,-1.931,-1.931,-1.8921,-1.85,-1.85,-1.85,-1.8461,-1.8305,-1.8383,-1.8422,-1.8147,-1.7948,-1.7747,-1.7639,-1.7393,-1.7282,-1.7557,-1.7393,-1.7282,-1.7557,-1.7393,-1.7199,-1.7199,-1.7199,-1.7199,-1.7199,0.0,-1.7199,-1.7199,-1.7199,-1.7199,-1.7199,-1.7073,0.0,0.0,0.0,0.0,0.0,-1.6718,-1.6675,-1.6633,-1.6675,-1.6633,-1.6522,-1.6522,-1.6522,-1.6522,-1.6522,-1.6522,-1.6491,-1.6923,-1.6986,-1.6835,-1.7601,-1.8041,-1.8242,-1.8606,-1.9083,-1.956,-1.956,-1.966,-1.9798,-1.9798,-1.9798,-1.9798,-2.4302,-2.4302,-2.4142,-2.3576,-2.3336,-2.3203,-2.3137,-2.255,-2.2439,-2.344,-2.3084,-2.2992,-2.3502,-2.3379,-2.3453,-2.4009,-2.3513,-2.334,-2.3767,-2.3797,-2.3739,-2.3595,-2.3595,-2.331,-2.2724,-2.2724,-2.2353,-2.1695,-2.1717,-2.1831,-2.2052,-2.2052,-2.2177,-2.2398,-2.2173,-2.1695,-2.1066,-2.0827,-2.0318,-1.969,-1.969,-1.969,-1.969,-1.969,-1.969,-1.969,-1.969,-1.969,-1.969,-1.969,-1.969,-1.969,-1.969,-1.9347,-1.8959,-1.8959,-1.8959,-1.8921,-1.8784,-1.886,-1.8884,-1.8592,-1.8383,-1.8266,-1.8108,-1.7868,-1.776,-1.7988,-1.772,-1.7516,-1.776,-1.7475,-1.7199,-1.7199,-1.7199,-1.7199,-1.7199,0.0,-1.7199,0.0,0.0,-1.7199,-1.7199,-1.7115,-1.7086,0.0,0.0,0.0,-1.7002,-1.6846,-1.6761,-1.6675,-1.6761,-1.6705,-1.6522,-1.6522,-1.6522,-1.6522,-1.6522,-1.6522,-1.6534,-1.7112,-1.7187,-1.6911,-1.8028,-1.8518,-1.8555,-1.9095,-1.951,-1.9798,-1.9798,-1.9798,-1.9798,-1.9798,-1.9798,-1.9798,-2.4302,-2.4271,-2.404,-2.3409,-2.3255,-2.3025,-2.2394,-2.2286,-2.2301,-2.2347,-2.2363,-2.2378,-2.2424,-2.2948,-2.3538,-2.4147,-2.3503,-2.3314,-2.3794,-2.3839,-2.3782,-2.3638,-2.3638,-2.3368,-2.2798,-2.2783,-2.2484,-2.1869,-2.2484,-2.3083,-2.3595,-2.3595,-2.3595,-2.358,-2.2996,-2.2353,-2.1665,-2.1036,-2.0363,-1.969,-1.969,-1.969,-1.969,-1.969,-1.969,-1.969,-1.969,-1.969,-1.969,-1.969,-1.969,-1.969,-1.969,-1.969,-1.969,-1.969,-1.969,-1.9617,-1.925,-1.942,-1.953,-1.8769,-1.886,-1.8988,-1.8592,-1.85,-1.85,-1.8553,-1.8187,-1.7868,-1.7868,-1.7557,-1.7282,-1.7282,-1.7282,-1.7282,-1.7282,-1.7282,-1.7282,-1.7282,-1.7282,-1.7282,-1.7282,-1.7282,-1.7282,0.0,0.0,0.0,-1.7199,-1.7002,-1.6846,-1.6718,-1.6846,-1.6791,-1.6522,-1.6522,-1.6522,-1.6522,-1.6522,-1.6522,-1.6534,-1.7149,-1.7413,-1.7451,-1.8581,-1.9008,-1.9021,-1.9585,-1.9798,-1.9798,-1.9798,-1.9798,-1.9798,-1.9798,-1.9798,-1.9798,-2.4302,-2.3887,-2.3486,-2.3332,-2.2871,-2.2471,-2.2317,-2.2286,-2.2471,-2.2994,-2.3055,-2.3255,-2.3779,-2.3517,-2.3579,-2.4214,-2.4081,-2.4024,-2.4109,-2.4124,-2.4024,-2.3925,-2.3925,-2.3822,-2.3712,-2.3712,-2.3622,-2.3485,-2.3495,-2.3588,-2.3739,-2.3653,-2.3595,-2.3595,-2.3445,-2.2757,-2.168,-2.153,-2.0782,-1.969,-1.969,-1.969,-1.969,-1.969,-1.969,-1.969,-1.969,-1.969,-1.969,-1.969,-1.969,-1.969,-1.969,-1.969,-1.969,-1.969,-1.969,-1.969,-1.9581,-1.9654,-1.9639,-1.9457,-1.925,-1.8988,-1.8592,-1.85,-1.8592,-1.8898,-1.863,-1.8422,-1.8745,-1.8461,-1.8187,-1.8187,-1.8187,-1.8187,-1.8187,-1.8187,-1.8187,-1.8187,-1.8187,-1.8187,-1.8187,-1.8187,-1.8028,-1.7598,0.0,-1.7393,-1.7086,-1.7002,-1.696,-1.6918,-1.696,-1.6876,-1.6675,-1.6675,-1.662,-1.6522,-1.6522,-1.6522,-1.6547,-1.7551,-1.7777,-1.7463,-1.897,-1.9397,-1.9021,-1.9585,-1.9798,-1.9798,-1.9798,-1.9798,-1.9798,-1.9798,-1.9798,-1.9798,-2.4302,-2.3763,-2.3194,-2.2902,-2.227,-2.1716,-2.1409,-2.1399,-2.1645,-2.2286,-2.2378,-2.2624,-2.3302,-2.3332,-2.3456,-2.381,-2.384,-2.3953,-2.4193,-2.4223,-2.4124,-2.4024,-2.3982,-2.3982,-2.3982,-2.3982,-2.383,-2.3527,-2.3167,-2.299,-2.299,-2.3194,-2.3345,-2.3345,-2.3561,-2.314,-2.2179,-2.1854,-2.1096,-2.0124,-1.9809,-1.969,-1.969,-1.969,-1.969,-1.969,-1.969,-1.969,-1.969,-1.969,-1.969,-1.969,-1.969,-1.969,-1.969,-1.969,-1.969,-1.969,-1.969,-1.969,-1.969,-1.969,-1.9545,-1.9325,-1.9124,-1.9035,-1.9109,-1.9325,-1.9049,-1.8822,-1.9064,-1.8784,-1.85,-1.85,-1.85,-1.85,-1.85,-1.85,-1.85,-1.85,-1.85,-1.85,-1.85,-1.85,-1.8383,-1.8068,-1.7988,-1.7868,-1.7598,-1.757,-1.7378,-1.7002,-1.696,-1.6876,-1.6675,-1.6633,-1.6565,-1.6522,-1.6522,-1.666,-1.6936,-1.7815,-1.8041,-1.784,-1.9208,-1.951,-1.9021,-1.9585,-1.9798,-1.9798,-1.9798,-1.9798,-1.9798,-1.9798,-1.9648,-1.9447,-2.4302,-2.3763,-2.3086,-2.2409,-2.1732,-2.109,-2.0412,-2.0397,-2.0659,-2.1245,-2.1491,-2.1763,-2.224,-2.2978,-2.3409,-2.3302,-2.3394,-2.3661,-2.4177,-2.4208,-2.4166,-2.4067,-2.4067,-2.4021,-2.3914,-2.3823,-2.3473,-2.2869,-2.2306,-2.2033,-2.2033,-2.2571,-2.2844,-2.2859,-2.3338,-2.3175,-2.247,-2.1849,-2.121,-2.0498,-1.9951,-1.9726,-1.969,-1.969,-1.969,-1.969,-1.969,-1.969,-1.969,-1.969,-1.969,-1.969,-1.969,-1.969,-1.969,-1.969,-1.969,-1.969,-1.969,-1.969,-1.969,-1.969,-1.969,-1.969,-1.969,-1.969,-1.969,-1.969,-1.9435,-1.9213,-1.9213,-1.8898,-1.8693,-1.8693,-1.8693,-1.8693,-1.8693,-1.8693,-1.8693,-1.8693,-1.8693,-1.8693,-1.8693,-1.8693,-1.8655,-1.8592,-1.85,-1.8383,-1.8344,-1.8293,-1.7909,-1.724,-1.7128,-1.7002,-1.6791,-1.665,-1.6565,-1.6522,-1.6522,-1.6823,-1.74,-1.7953,-1.8254,-1.8392,-1.9371,-1.9547,-1.9183,-1.9623,-1.9798,-1.9798,-1.9798,-1.9798,-1.9798,-1.971,-1.9497,-1.922,-2.4302,-2.3763,-2.3086,-2.2409,-2.1732,-2.109,-2.0412,-2.0782,-2.1198,-2.1306,-2.227,-2.2809,-2.2332,-2.3394,-2.3917,-2.3348,-2.3825,-2.4194,-2.4261,-2.4261,-2.4276,-2.4261,-2.4261,-2.3999,-2.3431,-2.2847,-2.2509,-2.2417,-2.2179,-2.2079,-2.2079,-2.2124,-2.2146,-2.2146,-2.2252,-2.1933,-2.1258,-2.1152,-2.0654,-1.9912,-1.9843,-1.9762,-1.969,-1.969,-1.969,-1.969,-1.969,-1.969,-1.969,-1.969,-1.969,-1.969,-1.969,-1.969,-1.969,-1.969,-1.969,-1.969,-1.969,-1.969,-1.969,-1.969,-1.969,-1.969,-1.969,-1.969,-1.969,-1.969,-1.9654,-1.9617,-1.9617,-1.9581,-1.9493,-1.9493,-1.9493,-1.9493,-1.9493,-1.9493,-1.9493,-1.9493,-1.9493,-1.9493,-1.9493,-1.9493,-1.9384,-1.9011,-1.8988,-1.8822,-1.85,-1.8475,-1.8358,-1.8108,-1.8016,-1.7733,-1.7201,-1.7144,-1.6892,-1.6522,-1.6522,-1.6823,-1.74,-1.7953,-1.8455,-1.8932,-1.9535,-1.9761,-1.9685,-1.9773,-1.9798,-1.9798,-1.9798,-1.9798,-1.9748,-1.9309,-1.9672,-2.02,-2.384,-2.3425,-2.2863,-2.1901,-2.1229,-2.0674,-2.035,-2.089,-2.1445,-2.1778,-2.2686,-2.3317,-2.3363,-2.3933,-2.4179,-2.3871,-2.4133,-2.4302,-2.4302,-2.4302,-2.4302,-2.4302,-2.4302,-2.3994,-2.3302,-2.227,-2.1747,-2.1747,-2.1341,-2.1121,-2.1121,-2.1467,-2.1636,-2.1651,-2.1927,-2.1873,-2.1569,-2.1181,-2.0773,-2.0419,-1.9984,-1.9762,-1.9762,-1.9726,-1.969,-1.969,-1.969,-1.969,-1.969,-1.969,-1.969,-1.969,-1.969,-1.969,-1.969,-1.969,-1.969,-1.969,-1.969,-1.969,-1.969,-1.969,-1.969,-1.969,-1.969,-1.969,-1.969,-1.969,-1.969,-1.969,-1.969,-1.969,-1.969,-1.969,-1.969,-1.969,-1.969,-1.969,-1.969,-1.969,-1.969,-1.969,-1.969,-1.969,-1.9617,-1.9435,-1.9413,-1.9265,-1.8988,-1.8936,-1.886,-1.8745,-1.8319,-1.7801,-1.7256,-1.724,-1.6934,-1.6522,-1.6778,-1.7157,-1.7734,-1.8604,-1.9258,-1.9786,-2.0398,-2.0683,-2.0683,-2.0683,-2.0497,-2.0258,-2.0534,-2.0497,-2.0219,-2.026,-2.0435,-2.0521,-2.3425,-2.3163,-2.2709,-2.1522,-2.089,-2.0489,-2.0335,-2.089,-2.147,-2.1993,-2.2778,-2.344,-2.381,-2.4117,-2.4241,-2.4087,-2.421,-2.4302,-2.4302,-2.4302,-2.4302,-2.4302,-2.4148,-2.3748,-2.3086,-2.2055,-2.1399,-2.1075,-2.072,-2.0458,-2.032,-2.0844,-2.1075,-2.1106,-2.1504,-2.1681,-2.1666,-2.1255,-2.0975,-2.0755,-2.0282,-2.002,-1.9848,-1.9762,-1.9726,-1.9726,-1.9726,-1.969,-1.969,-1.969,-1.969,-1.969,-1.969,-1.969,-1.969,-1.969,-1.969,-1.969,-1.969,-1.969,-1.969,-1.969,-1.969,-1.969,-1.969,-1.969,-1.969,-1.969,-1.969,-1.969,-1.969,-1.969,-1.969,-1.969,-1.969,-1.969,-1.969,-1.969,-1.969,-1.969,-1.969,-1.969,-1.969,-1.969,-1.969,-1.969,-1.9632,-1.9574,-1.9487,-1.9413,-1.9339,-1.9213,-1.8592,-1.7988,-1.7516,-1.7516,-1.7269,-1.6808,-1.7186,-1.7655,-1.8192,-1.9024,-1.9714,-2.0219,-2.086,-2.1165,-2.1179,-2.1363,-2.1059,-2.0611,-2.117,-2.1046,-2.0598,-2.1035,-2.0988,-2.0717,-2.3425,-2.3286,-2.2855,-2.1553,-2.1275,-2.1029,-2.0397,-2.089,-2.1337,-2.1383,-2.2486,-2.3086,-2.2501,-2.3563,-2.4056,-2.3425,-2.3948,-2.4302,-2.4302,-2.4302,-2.4302,-2.4302,-2.3702,-2.3055,-2.2378,-2.227,-2.163,-2.0381,-2.0967,-2.0921,-2.0304,-2.035,-2.0381,-2.0381,-2.0428,-2.0408,-2.0454,-2.1039,-2.0829,-2.0238,-2.0767,-2.0609,-1.997,-1.9848,-1.9797,-1.9762,-1.9726,-1.969,-1.969,-1.969,-1.969,-1.969,-1.969,-1.969,-1.969,-1.969,-1.969,-1.969,-1.969,-1.969,-1.969,-1.969,-1.969,-1.969,-1.969,-1.969,-1.969,-1.969,-1.969,-1.969,-1.969,-1.969,-1.969,-1.969,-1.969,-1.969,-1.969,-1.969,-1.969,-1.969,-1.969,-1.969,-1.969,-1.969,-1.969,-1.969,-1.969,-1.969,-1.969,-1.969,-1.9632,-1.9574,-1.9213,-1.8822,-1.8422,-1.8383,-1.8187,-1.772,-1.7868,-1.8181,-1.8638,-1.8806,-1.9103,-1.9611,-2.0205,-2.0462,-2.0502,-2.1138,-2.0996,-2.0469,-2.1152,-2.0996,-2.0415,-2.0582,-2.0864,-2.1016,-2.2178,-2.2163,-2.1916,-2.0875,-2.069,-2.0597,-2.035,-2.089,-2.1322,-2.1322,-2.2455,-2.3194,-2.2948,-2.3748,-2.421,-2.3948,-2.4148,-2.4302,-2.4302,-2.4302,-2.4302,-2.4302,-2.3656,-2.3179,-2.2917,-2.2501,-2.184,-2.0936,-2.1198,-2.0967,-2.0304,-2.0304,-2.0304,-2.0304,-2.0304,-2.0304,-2.032,-2.0582,-2.0501,-2.025,-2.0426,-2.0294,-2.0045,-1.9884,-1.9797,-1.9797,-1.9726,-1.969,-1.969,-1.969,-1.969,-1.969,-1.969,-1.969,-1.969,-1.969,-1.969,-1.969,-1.969,-1.969,-1.969,-1.969,-1.969,-1.969,-1.969,-1.969,-1.969,-1.969,-1.969,-1.969,-1.969,-1.969,-1.969,-1.969,-1.969,-1.969,-1.969,-1.969,-1.969,-1.969,-1.969,-1.969,-1.969,-1.969,-1.969,-1.969,-1.969,-1.969,-1.9632,-1.956,-1.9487,-1.9501,-1.9339,-1.9101,-1.8707,-1.8707,-1.8461,-1.8001,-1.8344,-1.8588,-1.8787,-1.9381,-1.976,-1.9975,-2.0514,-2.0783,-2.0825,-2.152,-2.1454,-2.1,-2.1963,-2.1731,-2.0945,-2.1346,-2.1311,-2.1026,-2.2169,-2.2086,-2.1831,-2.0801,-2.0613,-2.0613,-2.0613,-2.107,-2.1486,-2.1612,-2.2518,-2.3289,-2.3608,-2.4045,-2.4405,-2.4664,-2.4679,-2.4679,-2.4679,-2.4679,-2.4558,-2.4302,-2.3871,-2.3517,-2.3302,-2.3055,-2.2454,-2.145,-2.1667,-2.1366,-2.0613,-2.0613,-2.0613,-2.0613,-2.0613,-2.0613,-2.0628,-2.0848,-2.0764,-2.0491,-2.0712,-2.0596,-2.0308,-2.0224,-2.0208,-2.0174,-1.998,-1.9874,-1.9874,-1.9839,-1.9854,-1.9889,-1.9995,-1.996,-1.9854,-1.9726,-1.969,-1.969,-1.969,-1.969,-1.969,-1.969,-1.969,-1.969,-1.969,-1.969,-1.969,-1.969,-1.969,-1.969,-1.969,-1.969,-1.969,-1.969,-1.969,-1.969,-1.969,-1.969,-1.969,-1.969,-1.969,-1.969,-1.969,-1.969,-1.969,-1.969,-1.969,-1.969,-1.9632,-1.956,-1.9472,-1.9472,-1.9472,-1.9362,-1.9064,-1.9026,-1.8808,-1.8472,-1.8808,-1.895,-1.8912,-1.9589,-1.987,-1.9875,-2.0477,-2.0814,-2.1046,-2.1714,-2.1801,-2.1567,-2.2538,-2.2175,-2.1225,-2.1773,-2.1452,-2.0712,-2.3797,-2.3434,-2.2944,-2.1551,-2.1308,-2.1308,-2.1308,-2.1582,-2.1909,-2.2247,-2.2582,-2.3211,-2.4261,-2.4378,-2.4705,-2.5422,-2.5486,-2.5486,-2.5486,-2.5486,-2.5105,-2.4328,-2.4302,-2.3979,-2.3317,-2.3948,-2.3483,-2.1787,-2.2481,-2.2277,-2.1308,-2.1308,-2.1308,-2.1308,-2.1308,-2.1308,-2.134,-2.2021,-2.1729,-2.0875,-2.1874,-2.168,-2.0827,-2.1023,-2.1102,-2.1039,-2.0516,-2.0314,-2.0314,-2.0243,-2.0208,-2.0277,-2.0679,-2.0545,-2.0139,-1.9818,-1.9726,-1.9726,-1.9726,-1.9726,-1.9726,-1.969,-1.969,-1.969,-1.969,-1.969,-1.969,-1.969,-1.969,-1.969,-1.969,-1.969,-1.969,-1.969,-1.969,-1.969,-1.969,-1.969,-1.969,-1.969,-1.969,-1.969,-1.969,-1.969,-1.969,-1.969,-1.969,-1.969,-1.969,-1.969,-1.969,-1.969,-1.969,-1.9654,-1.9611,-1.9465,-1.9376,-1.9302,-1.9376,-1.9302,-1.9101,-1.9228,-1.9228,-1.9145,-1.9798,-2.0422,-2.1032,-2.1699,-2.1989,-2.2048,-2.2642,-2.2135,-2.1075,-2.1743,-2.1191,-2.0088,-2.2931,-2.2719,-2.2394,-2.1454,-2.1308,-2.1308,-2.1308,-2.1391,-2.1504,-2.1584,-2.2117,-2.2565,-2.2876,-2.3345,-2.3732,-2.3926,-2.3942,-2.3942,-2.3942,-2.3942,-2.3835,-2.3597,-2.4111,-2.4286,-2.4079,-2.374,-2.3127,-2.213,-2.2355,-2.2036,-2.1308,-2.1308,-2.1308,-2.1308,-2.1308,-2.1308,-2.1308,-2.1518,-2.1439,-2.1166,-2.1471,-2.1439,-2.115,-2.1118,-2.1102,-2.107,-2.0862,-2.0797,-2.0797,-2.0764,-2.0764,-2.0764,-2.0861,-2.0795,-2.0663,-2.0512,-2.0478,-2.0478,-2.0478,-2.0478,-2.0342,-1.9833,-1.969,-1.969,-1.969,-1.969,-1.969,-1.969,-1.969,-1.969,-1.969,-1.969,-1.969,-1.969,-1.969,-1.969,-1.969,-1.969,-1.969,-1.969,-1.969,-1.969,-1.969,-1.969,-1.969,-1.969,-1.969,-1.969,-1.969,-1.969,-1.969,-1.969,-1.969,-1.9654,-1.9611,-1.9574,-1.9501,-1.9376,-1.9376,-1.9376,-1.9302,-1.9302,-1.9302,-1.9228,-1.9357,-1.9508,-1.9754,-2.0843,-2.1293,-2.1409,-2.2468,-2.2135,-2.1017,-2.122,-2.0494,-1.9406,-2.3487,-2.3256,-2.2911,-2.1873,-2.1691,-2.1691,-2.1691,-2.1584,-2.157,-2.1691,-2.1931,-2.2246,-2.2699,-2.3095,-2.3457,-2.3737,-2.3753,-2.3753,-2.3753,-2.3753,-2.3753,-2.3753,-2.3918,-2.3996,-2.3958,-2.3538,-2.3041,-2.2492,-2.2492,-2.2228,-2.1691,-2.1691,-2.1691,-2.1691,-2.1691,-2.1691,-2.1691,-2.1691,-2.1631,-2.1493,-2.1631,-2.1631,-2.1493,-2.1554,-2.1568,-2.1538,-2.1306,-2.1244,-2.1244,-2.1197,-2.126,-2.1323,-2.115,-2.1071,-2.1039,-2.086,-2.0794,-2.0794,-2.0794,-2.0794,-2.0695,-2.0239,-2.0135,-2.01,-1.9909,-1.9909,-1.9854,-1.9726,-1.969,-1.969,-1.969,-1.969,-1.969,-1.969,-1.969,-1.969,-1.969,-1.969,-1.969,-1.969,-1.969,-1.969,-1.969,-1.969,-1.969,-1.969,-1.969,-1.969,-1.969,-1.969,-1.969,-1.9669,-1.9669,-1.9596,-1.9501,-1.9501,-1.9465,-1.9376,-1.9376,-1.9339,-1.9302,-1.9228,-1.9213,-1.9213,-1.9139,-1.9261,-1.9566,-2.032,-2.0944,-2.1438,-2.1975,-2.1685,-2.0959,-2.0727,-1.9986,-1.9101,-2.4917,-2.4567,-2.4049,-2.2564,-2.231,-2.231,-2.231,-2.2049,-2.1945,-2.2254,-2.202,-2.2224,-2.3194,-2.3291,-2.3562,-2.4222,-2.432,-2.432,-2.432,-2.432,-2.432,-2.432,-2.3646,-2.3276,-2.3221,-2.3203,-2.3063,-2.2744,-2.2744,-2.2612,-2.231,-2.231,-2.231,-2.231,-2.231,-2.231,-2.231,-2.231,-2.2123,-2.1886,-2.218,-2.2123,-2.1886,-2.218,-2.231,-2.2237,-2.1823,-2.1658,-2.1658,-2.1584,-2.1735,-2.1869,-2.1554,-2.1417,-2.1277,-2.099,-2.0893,-2.0893,-2.0893,-2.0893,-2.0893,-2.0893,-2.0893,-2.0778,-2.0345,-2.0243,-2.0189,-1.9854,-1.9747,-1.9747,-1.9747,-1.9711,-1.969,-1.969,-1.969,-1.969,-1.969,-1.969,-1.969,-1.969,-1.969,-1.969,-1.969,-1.969,-1.969,-1.969,-1.969,-1.969,-1.969,-1.969,-1.9669,-1.9574,-1.9574,-1.9501,-1.9302,-1.9302,-1.9302,-1.9302,-1.9302,-1.9213,-1.9101,-1.9101,-1.9101,-1.9101,-1.9101,-1.9449,-2.0016,-2.0074,-2.0785,-2.1772,-2.122,-2.0959,-2.0843,-2.0306,-1.9682,-1.9101,-2.4978,-2.4688,-2.4181,-2.2632,-2.2394,-2.2366,-2.231,-2.2254,-2.2225,-2.2282,-2.2254,-2.2276,-2.2502,-2.2547,-2.2615,-2.2767,-2.2784,-2.2784,-2.2784,-2.2784,-2.2784,-2.2784,-2.2632,-2.2529,-2.2517,-2.2534,-2.248,-2.2416,-2.2416,-2.2377,-2.231,-2.231,-2.231,-2.231,-2.231,-2.231,-2.231,-2.231,-2.2254,-2.2209,-2.2282,-2.2254,-2.2209,-2.2282,-2.231,-2.2282,-2.218,-2.2152,-2.2152,-2.2135,-2.2123,-2.2094,-2.1928,-2.1823,-2.1751,-2.1631,-2.157,-2.157,-2.157,-2.157,-2.157,-2.157,-2.157,-2.1417,-2.0811,-2.0679,-2.0646,-2.0579,-2.0292,-2.007,-2.007,-1.9889,-1.969,-1.969,-1.969,-1.969,-1.969,-1.969,-1.969,-1.969,-1.969,-1.969,-1.969,-1.969,-1.969,-1.969,-1.969,-1.9705,-1.9611,-1.9611,-1.9574,-1.9465,-1.9465,-1.9413,-1.9302,-1.9302,-1.9265,-1.9139,-1.9139,-1.9139,-1.9101,-1.9101,-1.9101,-1.9101,-1.9101,-1.9174,-1.9362,-1.9885,-2.0262,-2.0538,-2.0872,-2.0712,-2.0277,-2.0146,-1.9682,-1.9101,-2.5009,-2.4671,-2.4181,-2.266,-2.2377,-2.2338,-2.231,-2.231,-2.231,-2.231,-2.231,-2.231,-2.231,-2.231,-2.231,-2.231,-2.231,-2.231,-2.231,-2.231,-2.231,-2.231,-2.231,-2.231,-2.231,-2.231,-2.231,-2.231,-2.231,-2.231,-2.231,-2.231,-2.231,-2.231,-2.231,-2.231,-2.231,-2.231,-2.231,-2.231,-2.231,-2.231,-2.231,-2.231,-2.231,-2.231,-2.231,-2.231,-2.2282,-2.2254,-2.218,-2.2106,-2.1969,-2.1928,-2.184,-2.1811,-2.1797,-2.1797,-2.1797,-2.1797,-2.1797,-2.1797,-2.1797,-2.1661,-2.1151,-2.1023,-2.099,-2.0827,-2.0646,-2.0429,-2.0243,-2.005,-1.9889,-1.9726,-1.969,-1.969,-1.969,-1.9854,-1.9945,-1.9945,-2.01,-2.0239,-2.0239,-2.0239,-2.0239,-2.0239,-2.0135,-2.008,-2.001,-1.9955,-1.9884,-1.9726,-1.9833,-1.9818,-1.9747,-1.9624,-1.9536,-1.9464,-1.9236,-1.9101,-1.9101,-1.9101,-1.9101,-1.9101,-1.9101,-1.9101,-1.913,-1.9478,-1.9812,-2.0103,-2.0103,-2.0103,-2.0059,-1.9879,-1.9581,-1.931,-2.5022,-2.4688,-2.4168,-2.266,-2.2349,-2.231,-2.231,-2.231,-2.231,-2.231,-2.231,-2.231,-2.231,-2.231,-2.231,-2.231,-2.231,-2.231,-2.231,-2.231,-2.231,-2.231,-2.231,-2.231,-2.231,-2.231,-2.231,-2.231,-2.231,-2.231,-2.231,-2.231,-2.231,-2.231,-2.231,-2.231,-2.231,-2.231,-2.231,-2.231,-2.231,-2.231,-2.231,-2.231,-2.231,-2.231,-2.231,-2.231,-2.2282,-2.2242,-2.2152,-2.1998,-2.1957,-2.1899,-2.184,-2.1811,-2.1827,-2.1811,-2.1781,-2.1797,-2.1797,-2.1797,-2.1797,-2.1738,-2.1464,-2.1371,-2.1309,-2.1007,-2.0925,-2.0778,-2.0447,-2.0345,-2.0224,-1.9925,-1.998,-2.0056,-2.0056,-2.0415,-2.0605,-2.0497,-2.0785,-2.0921,-2.081,-2.0889,-2.0921,-2.081,-2.0662,-2.0561,-2.0512,-2.0426,-2.0289,-2.017,-2.0342,-2.0361,-2.0243,-2.0019,-1.9919,-2.0004,-1.9479,-1.9176,-1.9139,-1.9139,-1.9101,-1.9101,-1.9101,-1.9101,-1.9101,-1.9139,-1.9497,-1.9948,-1.9432,-1.9587,-2.005,-1.9701,-1.9588,-1.9711,-2.5043,-2.4859,-2.435,-2.2705,-2.2377,-2.2366,-2.231,-2.231,-2.231,-2.231,-2.231,-2.231,-2.231,-2.231,-2.231,-2.231,-2.231,-2.231,-2.231,-2.231,-2.231,-2.231,-2.231,-2.231,-2.231,-2.231,-2.231,-2.231,-2.231,-2.231,-2.231,-2.231,-2.231,-2.231,-2.231,-2.231,-2.231,-2.231,-2.231,-2.231,-2.231,-2.231,-2.231,-2.231,-2.231,-2.231,-2.231,-2.231,-2.231,-2.2282,-2.2225,-2.2168,-2.2168,-2.2061,-2.1969,-2.1882,-2.1899,-2.1869,-2.1827,-2.1797,-2.1797,-2.1797,-2.1797,-2.1797,-2.1721,-2.1738,-2.1738,-2.1661,-2.1417,-2.1214,-2.1151,-2.0909,-2.0679,-2.0662,-2.1133,-2.1509,-2.1509,-2.2102,-2.2295,-2.1676,-2.1647,-2.1426,-2.0857,-2.1316,-2.141,-2.0842,-2.0761,-2.0712,-2.0597,-2.0563,-2.053,-2.0447,-2.0481,-2.0481,-2.0481,-2.0074,-2.0074,-2.0398,-1.9874,-1.9508,-1.9265,-1.9265,-1.9213,-1.9101,-1.9101,-1.9101,-1.9101,-1.9347,-1.9501,-1.9612,-1.9807,-1.9944,-2.002,-1.995,-2.008,-2.0239,-2.4391,-2.4236,-2.3836,-2.262,-2.2405,-2.2394,-2.231,-2.231,-2.231,-2.231,-2.231,-2.231,-2.231,-2.231,-2.231,-2.231,-2.231,-2.231,-2.231,-2.231,-2.231,-2.231,-2.231,-2.231,-2.231,-2.231,-2.231,-2.231,-2.231,-2.231,-2.231,-2.231,-2.231,-2.231,-2.231,-2.231,-2.231,-2.231,-2.231,-2.231,-2.231,-2.231,-2.231,-2.231,-2.231,-2.231,-2.231,-2.231,-2.2282,-2.2271,-2.2225,-2.2185,-2.2106,-2.2044,-2.1998,-2.1911,-2.1899,-2.1899,-2.1811,-2.1797,-2.1797,-2.1797,-2.1797,-2.1797,-2.1797,-2.1797,-2.1797,-2.1797,-2.1678,-2.164,-2.1875,-2.1795,-2.1759,-2.1956,-2.2223,-2.2413,-2.2413,-2.2524,-2.2423,-2.1859,-2.1794,-2.168,-2.1388,-2.1631,-2.168,-2.1371,-2.1277,-2.1214,-2.1166,-2.1039,-2.0974,-2.0958,-2.1071,-2.1103,-2.1103,-2.0731,-2.0583,-2.0764,-2.0273,-2.0157,-2.0382,-1.9891,-1.9863,-2.0124,-1.9781,-1.9581,-1.9617,-1.9726,-1.9762,-1.9797,-1.9919,-2.0096,-2.022,-2.022,-2.0323,-2.041]},{"header":{"parameterUnit":"m.s-1","parameterCategory":1,"la1":30.6,"la2":28.766,"lo1":-90.7593,"lo2":-88.6598,"dy":0.0162,"dx":0.0183,"nx":116,"ny":114,"refTime":"2023-07-28T06:00:00:Z","depth":0,"parameterNumber":3,"parameterNumberName":"V-component_of_WINDS"},"data":[0.0,0.0,0.0,0.0,0.0,0.0,0.0,0.0,0.0,0.0,0.0,0.0,0.0,0.0,0.0,0.0,0.0,0.0,0.0,0.0,0.0,0.0,0.0,0.0,0.0,0.0,0.0,0.0,0.0,0.0,0.0,0.0,0.0,0.0,0.0,0.0,0.0,0.0,0.0,0.0,0.0,0.0,0.0,0.0,0.0,0.0,0.0,0.0,0.0,0.0,0.0,0.0,0.0,0.0,0.0,0.0,0.0,0.0,0.0,0.0,0.0,0.0,0.0,0.0,0.0,0.0,0.0,0.0,0.0,0.0,0.0,0.0,0.0,0.0,0.0,0.0,0.0,0.0,0.0,0.0,0.0,0.0,0.0,0.0,0.0,0.0,0.0,0.0,0.0,0.0,0.0,0.0,0.0,0.0,0.0,0.0,0.0,0.0,0.0,0.0,0.0,0.0,0.0,0.0,0.0,0.0,0.0,0.0,0.0,0.0,0.0,0.0,0.0,0.0,0.0,0.0,0.0,0.0,0.0,0.0,0.0,0.0,0.0,0.0,0.0,0.0,0.0,0.0,0.0,0.0,0.0,0.0,0.0,0.0,0.0,0.0,0.0,0.0,0.0,0.0,0.0,0.0,0.0,0.0,0.0,0.0,0.0,0.0,0.0,0.0,0.0,0.0,0.0,0.0,0.0,0.0,0.0,0.0,0.0,0.0,0.0,0.0,0.0,0.0,0.0,0.0,0.0,0.0,0.0,0.0,0.0,0.0,0.0,0.0,0.0,0.0,0.0,0.0,0.0,0.0,0.0,0.0,0.0,0.0,0.0,0.0,0.0,0.0,0.0,0.0,0.0,0.0,0.0,0.0,0.0,0.0,0.0,0.0,0.0,0.0,0.0,0.0,0.0,0.0,0.0,0.0,0.0,0.0,0.0,0.0,0.0,0.0,0.0,0.0,0.0,0.0,0.0,0.0,0.0,0.0,0.0,0.0,0.0,0.0,0.0,0.0,0.0,0.0,0.0,0.0,0.0,0.0,0.0,0.0,0.0,0.0,0.0,0.0,0.0,0.0,0.0,0.0,0.0,0.0,0.0,0.0,0.0,0.0,0.0,0.0,0.0,0.0,0.0,0.0,0.0,0.0,0.0,0.0,0.0,0.0,0.0,0.0,0.0,0.0,0.0,0.0,0.0,0.0,0.0,0.0,0.0,0.0,0.0,0.0,0.0,0.0,0.0,0.0,0.0,0.0,0.0,0.0,0.0,0.0,0.0,0.0,0.0,0.0,0.0,0.0,0.0,0.0,0.0,0.0,0.0,0.0,0.0,0.0,0.0,0.0,0.0,0.0,0.0,0.0,0.0,0.0,0.0,0.0,0.0,0.0,0.0,0.0,0.0,0.0,0.0,0.0,0.0,0.0,0.0,0.0,0.0,0.0,0.0,0.0,0.0,0.0,0.0,0.0,0.0,0.0,0.0,0.0,0.0,0.0,0.0,0.0,0.0,0.0,0.0,0.0,0.0,0.0,0.0,0.0,0.0,0.0,0.0,0.0,0.0,0.0,0.0,0.0,0.0,0.0,0.0,0.0,0.0,0.0,0.0,0.0,0.0,0.0,0.0,0.0,0.0,0.0,0.0,0.0,0.0,0.0,0.0,0.0,0.0,0.0,0.0,0.0,0.0,0.0,0.0,0.0,0.0,0.0,0.0,0.0,0.0,0.0,0.0,0.0,0.0,0.0,0.0,0.0,0.0,0.0,0.0,0.0,0.0,0.0,0.0,0.0,0.0,0.0,0.0,0.0,0.0,0.0,0.0,0.0,0.0,0.0,0.0,0.0,0.0,0.0,0.0,0.0,0.0,0.0,0.0,0.0,0.0,0.0,0.0,0.0,0.0,0.0,0.0,0.0,0.0,0.0,0.0,0.0,0.0,0.0,0.0,0.0,0.0,0.0,0.0,0.0,0.0,0.0,0.0,0.0,0.0,0.0,0.0,0.0,0.0,0.0,0.0,0.0,0.0,0.0,0.0,0.0,0.0,0.0,0.0,0.0,0.0,0.0,0.0,0.0,0.0,0.0,0.0,0.0,0.0,0.0,0.0,0.0,0.0,0.0,0.0,0.0,0.0,0.0,0.0,0.0,0.0,0.0,0.0,0.0,0.0,0.0,0.0,0.0,0.0,0.0,0.0,0.0,0.0,0.0,0.0,0.0,0.0,0.0,0.0,0.0,0.0,0.0,0.0,0.0,0.0,0.0,0.0,0.0,0.0,0.0,0.0,0.0,0.0,0.0,0.0,0.0,0.0,0.0,0.0,0.0,0.0,0.0,0.0,0.0,0.0,0.0,0.0,0.0,0.0,0.0,0.0,0.0,0.0,0.0,0.0,0.0,0.0,0.0,0.0,0.0,0.0,0.0,0.0,0.0,0.0,0.0,0.0,0.0,0.0,0.0,0.0,0.0,0.0,0.0,0.0,0.0,0.0,0.0,0.0,0.0,0.0,0.0,0.0,0.0,0.0,0.0,0.0,0.0,0.0,0.0,0.0,0.0,0.0,0.0,0.0,0.0,0.0,0.0,0.0,0.0,0.0,0.0,0.0,0.0,0.0,0.0,0.0,0.0,0.0,0.0,0.0,0.0,0.0,0.0,0.0,0.0,0.0,0.0,0.0,0.0,0.0,0.0,0.0,0.0,0.0,0.0,0.0,0.0,0.0,0.0,0.0,0.0,0.0,0.0,0.0,0.0,0.0,0.0,0.0,0.0,0.0,0.0,0.0,0.0,0.0,0.0,0.0,0.0,0.0,0.0,0.0,0.0,0.0,0.0,0.0,0.0,0.0,0.0,0.0,0.0,0.0,0.0,0.0,0.0,0.0,0.0,0.0,0.0,0.0,0.0,0.0,0.0,0.0,0.0,0.0,0.0,0.0,0.0,0.0,0.0,0.0,0.0,0.0,0.0,0.0,0.0,0.0,0.0,0.0,0.0,0.0,0.0,0.0,0.0,0.0,0.0,0.0,0.0,0.0,0.0,0.0,0.0,0.0,0.0,0.0,0.0,0.0,0.0,0.0,0.0,0.0,0.0,0.0,0.0,0.0,0.0,0.0,0.0,0.0,0.0,0.0,0.0,0.0,0.0,0.0,0.0,0.0,0.0,0.0,0.0,0.0,0.0,0.0,0.0,0.0,0.0,0.0,0.0,0.0,0.0,0.0,0.0,0.0,0.0,0.0,0.0,0.0,0.0,0.0,0.0,0.0,0.0,0.0,0.0,0.0,0.0,0.0,0.0,0.0,0.0,0.0,0.0,0.0,0.0,0.0,0.0,0.0,0.0,0.0,0.0,0.0,0.0,0.0,0.0,0.0,0.0,0.0,0.0,0.0,0.0,0.0,0.0,0.0,0.0,0.0,0.0,0.0,0.0,0.0,0.0,0.0,0.0,0.0,0.0,0.0,0.0,0.0,0.0,0.0,0.0,0.0,0.0,0.0,0.0,0.0,0.0,0.0,0.0,0.0,0.0,0.0,0.0,0.0,0.0,0.0,0.0,0.0,0.0,0.0,0.0,0.0,0.0,0.0,0.0,0.0,0.0,0.0,0.0,0.0,0.0,0.0,0.0,0.0,0.0,0.0,0.0,0.0,0.0,0.0,0.0,0.0,0.0,0.0,0.0,0.0,0.0,0.0,0.0,0.0,0.0,0.0,0.0,0.0,0.0,0.0,0.0,0.0,0.0,0.0,0.0,0.0,0.0,0.0,0.0,0.0,0.0,0.0,0.0,0.0,0.0,0.0,0.0,0.0,0.0,0.0,0.0,0.0,0.0,0.0,0.0,0.0,0.0,0.0,0.0,0.0,0.0,0.0,0.0,0.0,0.0,0.0,0.0,0.0,0.0,0.0,0.0,0.0,0.0,0.0,0.0,0.0,0.0,0.0,0.0,0.0,0.0,0.0,0.0,0.0,0.0,0.0,0.0,0.0,0.0,0.0,0.0,0.0,0.0,0.0,0.0,0.0,0.0,0.0,0.0,0.0,0.0,0.0,0.0,0.0,0.0,0.0,0.0,0.0,0.0,0.0,0.0,0.0,0.0,0.0,0.0,0.0,0.0,0.0,0.0,0.0,0.0,0.0,0.0,0.0,0.0,0.0,0.0,0.0,0.0,0.0,0.0,0.0,0.0,0.0,0.0,0.0,0.0,0.0,0.0,0.0,0.0,0.0,0.0,0.0,0.0,0.0,0.0,0.0,0.0,0.0,0.0,0.0,0.0,0.0,0.0,0.0,0.0,0.0,0.0,0.0,0.0,0.0,0.0,0.0,0.0,0.0,0.0,0.0,0.0,0.0,0.0,0.0,0.0,0.0,0.0,0.0,0.0,0.0,0.0,0.0,0.0,0.0,0.0,0.0,0.0,0.0,0.0,0.0,0.0,0.0,0.0,0.0,0.0,0.0,0.0,0.0,0.0,0.0,0.0,0.0,0.0,0.0,0.0,0.0,0.0,0.0,0.0,0.0,0.0,0.0,0.0,0.0,0.0,0.0,0.0,0.0,0.0,0.0,0.0,0.0,0.0,0.0,0.0,0.0,0.0,0.0,0.0,0.0,0.0,0.0,0.0,0.0,0.0,0.0,0.0,0.0,0.0,0.0,0.0,0.0,0.0,0.0,0.0,0.0,0.0,0.0,0.0,0.0,0.0,0.0,0.0,0.0,0.0,0.0,0.0,0.0,0.0,0.0,0.0,0.0,0.0,0.0,0.0,0.0,0.0,0.0,0.0,0.0,0.0,0.0,0.0,0.0,0.0,0.0,0.0,0.0,0.0,0.0,0.0,0.0,0.0,0.0,0.0,0.0,0.0,0.0,0.0,0.0,0.0,0.0,0.0,0.0,0.0,0.0,0.0,0.0,0.0,0.0,0.0,0.0,0.0,0.0,0.0,0.0,0.0,0.0,0.0,0.0,0.0,0.0,0.0,0.0,0.0,0.0,0.0,0.0,0.0,0.0,0.0,0.0,0.0,0.0,0.0,0.0,0.0,0.0,0.0,0.0,0.0,0.0,0.0,0.0,0.0,0.0,0.0,0.0,0.0,0.0,0.0,0.0,0.0,0.0,0.0,0.0,0.0,0.0,0.0,0.0,0.0,0.0,0.0,0.0,0.0,0.0,0.0,0.0,0.0,0.0,0.0,0.0,0.0,0.0,0.0,0.0,0.0,0.0,0.0,0.0,0.0,0.0,0.0,0.0,0.0,0.0,0.0,0.0,0.0,0.0,0.0,0.0,0.0,0.0,0.0,0.0,0.0,0.0,0.0,0.0,0.0,0.0,0.0,0.0,0.0,0.0,0.0,0.0,0.0,0.0,0.0,0.0,0.0,0.0,0.0,0.0,0.0,0.0,0.0,0.0,0.0,0.0,0.0,0.0,0.0,0.0,0.0,0.0,0.0,0.0,0.0,0.0,0.0,0.0,0.0,0.0,0.0,0.0,0.0,0.0,0.0,0.0,0.0,0.0,0.0,0.0,0.0,0.0,0.0,0.0,0.0,0.0,0.0,0.0,0.0,0.0,0.0,0.0,0.0,0.0,0.0,0.0,0.0,0.0,0.0,0.0,0.0,0.0,0.0,0.0,0.0,0.0,0.0,0.0,0.0,0.0,0.0,0.0,0.0,0.0,0.0,0.0,0.0,0.0,0.0,0.0,0.0,0.0,0.0,0.0,0.0,0.0,0.0,0.0,0.0,0.0,0.0,0.0,0.0,0.0,0.0,0.0,0.0,0.0,0.0,0.0,0.0,0.0,0.0,0.0,0.0,0.0,0.0,0.0,0.0,0.0,0.0,0.0,0.0,0.0,0.0,0.0,0.0,0.0,0.0,0.0,0.0,0.0,0.0,0.0,0.0,0.0,0.0,0.0,0.0,0.0,0.0,0.0,0.0,0.0,0.0,0.0,0.0,0.0,0.0,0.0,0.0,0.0,0.0,0.0,0.0,0.0,0.0,0.0,0.0,0.0,0.0,0.0,0.0,0.0,0.0,0.0,0.0,0.0,0.0,0.0,0.0,0.0,0.0,0.0,0.0,0.0,0.0,0.0,0.0,0.0,0.0,0.0,0.0,0.0,0.0,0.0,0.0,0.0,0.0,0.0,0.0,-2.6225,0.0,0.0,0.0,0.0,0.0,0.0,0.0,0.0,0.0,0.0,0.0,0.0,0.0,0.0,0.0,0.0,0.0,0.0,0.0,0.0,0.0,0.0,0.0,0.0,0.0,0.0,0.0,0.0,0.0,0.0,0.0,0.0,0.0,0.0,0.0,0.0,0.0,0.0,0.0,0.0,0.0,0.0,0.0,0.0,0.0,0.0,0.0,0.0,0.0,0.0,0.0,0.0,0.0,0.0,0.0,0.0,0.0,0.0,0.0,0.0,0.0,0.0,0.0,0.0,0.0,0.0,0.0,0.0,0.0,0.0,0.0,0.0,0.0,0.0,0.0,0.0,0.0,0.0,0.0,0.0,0.0,0.0,0.0,0.0,0.0,0.0,0.0,0.0,0.0,0.0,0.0,0.0,0.0,0.0,0.0,0.0,0.0,0.0,0.0,0.0,0.0,0.0,0.0,0.0,0.0,0.0,0.0,0.0,0.0,0.0,0.0,0.0,0.0,0.0,0.0,0.0,-2.7727,0.0,0.0,0.0,0.0,0.0,0.0,0.0,0.0,0.0,0.0,0.0,0.0,0.0,0.0,0.0,0.0,0.0,0.0,0.0,0.0,0.0,0.0,0.0,0.0,0.0,0.0,0.0,0.0,0.0,0.0,0.0,0.0,0.0,0.0,0.0,0.0,0.0,0.0,0.0,0.0,0.0,0.0,0.0,0.0,0.0,0.0,0.0,0.0,0.0,0.0,0.0,0.0,0.0,0.0,0.0,0.0,0.0,0.0,0.0,0.0,0.0,0.0,0.0,0.0,0.0,0.0,0.0,0.0,0.0,0.0,0.0,0.0,0.0,0.0,0.0,0.0,0.0,0.0,0.0,0.0,0.0,0.0,0.0,0.0,0.0,0.0,0.0,0.0,0.0,0.0,0.0,0.0,0.0,0.0,0.0,0.0,0.0,0.0,0.0,0.0,0.0,0.0,0.0,0.0,0.0,0.0,0.0,0.0,-3.3905,-3.3889,-3.3657,-3.3657,-3.3657,-3.3587,-3.196,-3.0403,-2.9115,-2.9343,0.0,0.0,0.0,0.0,0.0,0.0,0.0,0.0,0.0,0.0,0.0,0.0,0.0,0.0,0.0,0.0,0.0,0.0,0.0,0.0,0.0,0.0,0.0,0.0,0.0,0.0,0.0,0.0,0.0,0.0,0.0,0.0,0.0,0.0,0.0,0.0,0.0,0.0,-3.3633,-3.374,-3.4329,-3.5221,-3.3187,0.0,0.0,0.0,0.0,0.0,0.0,0.0,0.0,0.0,0.0,0.0,0.0,0.0,0.0,0.0,0.0,0.0,0.0,0.0,0.0,0.0,0.0,0.0,0.0,0.0,0.0,0.0,0.0,0.0,0.0,0.0,0.0,0.0,0.0,0.0,0.0,0.0,0.0,0.0,0.0,0.0,0.0,0.0,-2.68,-2.627,0.0,0.0,0.0,0.0,0.0,0.0,0.0,0.0,0.0,0.0,0.0,0.0,0.0,-3.475,-3.6224,-3.7483,-3.7914,-3.75,-3.8758,-3.8709,-3.7483,-3.7483,-3.7483,-3.7433,-3.6555,0.0,-3.1749,-3.1585,0.0,0.0,0.0,0.0,0.0,0.0,0.0,0.0,0.0,0.0,0.0,0.0,0.0,0.0,0.0,0.0,0.0,0.0,0.0,0.0,0.0,0.0,0.0,0.0,0.0,0.0,0.0,0.0,0.0,0.0,0.0,0.0,0.0,0.0,0.0,0.0,-3.176,-3.3972,-3.6756,-3.7184,-3.8201,-3.9682,-3.9111,-3.7505,-3.5132,-3.4115,0.0,0.0,0.0,0.0,0.0,0.0,0.0,0.0,0.0,0.0,0.0,0.0,0.0,0.0,0.0,0.0,0.0,0.0,0.0,0.0,0.0,0.0,0.0,0.0,0.0,0.0,0.0,0.0,0.0,0.0,0.0,0.0,0.0,0.0,0.0,0.0,0.0,0.0,0.0,-2.7181,-2.7628,-2.6899,-2.7793,-2.8323,0.0,0.0,0.0,0.0,0.0,0.0,0.0,0.0,0.0,-3.6224,-3.6589,-3.7649,-3.952,-4.0166,-4.0729,-4.1259,-4.1905,-4.1657,-4.063,-4.063,-4.0398,-4.0001,-3.9974,-3.8673,-3.6451,-3.461,-3.2923,-3.1462,0.0,0.0,0.0,0.0,-3.0707,-3.0785,0.0,0.0,0.0,0.0,0.0,0.0,0.0,0.0,0.0,0.0,0.0,0.0,0.0,0.0,0.0,-3.1483,0.0,0.0,0.0,0.0,0.0,0.0,0.0,0.0,0.0,0.0,0.0,-3.2599,-3.4418,-3.6809,-3.9718,-4.0663,-4.1966,-4.3518,-4.4339,-4.2073,-3.7577,-3.697,-3.5471,0.0,0.0,0.0,0.0,0.0,0.0,0.0,0.0,0.0,0.0,0.0,0.0,0.0,0.0,0.0,0.0,0.0,0.0,0.0,0.0,0.0,0.0,0.0,0.0,0.0,0.0,0.0,0.0,0.0,0.0,0.0,0.0,0.0,0.0,0.0,0.0,0.0,0.0,-2.7893,-2.8588,-2.7699,-2.9317,-3.0179,0.0,0.0,0.0,0.0,0.0,0.0,-3.4883,-3.6324,-3.7798,-3.9272,-3.9504,-4.0547,-4.2518,-4.2717,-4.338,-4.4456,-4.4456,-4.4075,-4.3346,-4.3164,-4.2667,-4.1955,-4.2155,-4.1597,-4.0335,-3.7573,-3.5348,-3.3612,-3.3528,-3.3117,-3.2593,-3.3029,-3.3109,-3.3153,0.0,0.0,0.0,0.0,0.0,0.0,0.0,0.0,0.0,0.0,0.0,0.0,0.0,0.0,-3.2545,-3.4741,-3.4472,-3.4097,0.0,0.0,0.0,0.0,0.0,0.0,0.0,0.0,0.0,-3.5025,-3.7416,-3.9789,-4.2144,-4.3661,-4.5231,-4.6783,-4.7586,-4.6534,-4.4,-4.1752,-3.9896,-3.8183,0.0,0.0,0.0,0.0,0.0,0.0,0.0,0.0,0.0,0.0,0.0,0.0,0.0,0.0,0.0,0.0,0.0,0.0,0.0,0.0,0.0,0.0,0.0,0.0,0.0,0.0,0.0,0.0,0.0,0.0,0.0,0.0,0.0,0.0,0.0,0.0,0.0,0.0,0.0,-2.8528,-3.1421,0.0,0.0,0.0,0.0,-3.5562,-3.6423,-3.7201,-3.7947,-3.9371,-4.0812,-4.2253,-4.2982,-4.4059,-4.5549,-4.6262,-4.6659,-4.6725,-4.6725,-4.6344,-4.5599,-4.4903,-4.4191,-4.3462,-4.2568,-4.2237,-4.2235,-4.0135,-3.8676,-3.7598,-3.6461,-3.629,-3.6671,-3.6307,-3.5882,-3.5542,0.0,0.0,0.0,0.0,0.0,0.0,0.0,0.0,0.0,0.0,0.0,0.0,0.0,-3.3618,-3.5489,-3.7362,-3.8665,-3.829,-3.5757,0.0,0.0,0.0,0.0,0.0,0.0,0.0,-3.4882,-3.8237,-4.0128,-4.2251,-4.4571,-4.5641,-4.673,-4.7818,-4.9103,-4.8907,-4.7461,-4.4589,-4.2162,-3.9968,-3.6292,-3.3544,0.0,0.0,0.0,0.0,0.0,0.0,0.0,0.0,0.0,0.0,0.0,0.0,0.0,0.0,0.0,0.0,0.0,0.0,0.0,0.0,0.0,0.0,0.0,0.0,0.0,0.0,0.0,0.0,0.0,0.0,0.0,0.0,0.0,0.0,0.0,0.0,0.0,-3.3243,-3.6092,0.0,-3.6638,-3.745,-3.8046,-3.8096,-3.9653,-4.0713,-4.0961,-4.2369,-4.3827,-4.5301,-4.5599,-4.6212,-4.7206,-4.7487,-4.7603,-4.7603,-4.7603,-4.7222,-4.6477,-4.5732,-4.5003,-4.4257,-4.3462,-4.2883,-4.2435,-4.1749,-4.0406,-3.8819,-3.8353,-3.7711,-3.7123,-3.7441,-3.7433,-3.7386,0.0,0.0,0.0,0.0,0.0,0.0,0.0,0.0,0.0,0.0,0.0,-3.0404,-3.3009,-3.5632,-3.8076,-4.0199,-4.1306,-4.0556,-3.7416,0.0,0.0,0.0,0.0,0.0,0.0,-3.4597,-3.7345,-4.0717,-4.2573,-4.441,-4.623,-4.7283,-4.8211,-4.9014,-5.0334,-5.062,-4.9977,-4.7604,-4.5088,-4.2394,-3.8968,-3.6827,-3.5257,0.0,0.0,0.0,0.0,0.0,0.0,0.0,0.0,0.0,0.0,0.0,0.0,0.0,0.0,0.0,0.0,0.0,0.0,0.0,0.0,0.0,0.0,0.0,0.0,0.0,0.0,0.0,0.0,0.0,0.0,0.0,0.0,0.0,0.0,0.0,-3.5744,-3.6953,-3.9901,-4.1442,-4.0464,-4.1491,-4.2005,-4.1508,-4.3032,-4.3992,-4.3992,-4.5152,-4.6378,-4.7603,-4.7636,-4.7885,-4.8365,-4.8382,-4.8249,-4.8001,-4.8001,-4.7603,-4.6874,-4.6129,-4.5384,-4.4655,-4.3926,-4.3346,-4.2899,-4.2899,-4.174,-4.0022,-3.9917,-3.9276,-3.8404,-3.8908,-3.8941,-3.8853,0.0,0.0,0.0,0.0,0.0,0.0,0.0,0.0,0.0,0.0,-2.8423,-3.0672,-3.383,-3.697,-4.011,-4.3251,-4.1984,-4.0378,-3.8861,-3.5025,0.0,0.0,0.0,0.0,-3.4204,-3.7309,-4.0057,-4.2394,-4.4714,-4.6248,-4.7051,-4.8621,-4.9781,-5.0584,-5.1405,-5.1762,-5.1708,-5.0941,-4.8853,-4.5838,-4.3375,-4.1895,-4.0628,0.0,0.0,0.0,0.0,0.0,0.0,0.0,0.0,0.0,0.0,0.0,0.0,0.0,0.0,0.0,0.0,0.0,0.0,0.0,0.0,0.0,0.0,0.0,0.0,0.0,0.0,0.0,0.0,0.0,0.0,0.0,0.0,0.0,-3.2862,-3.6042,-3.8659,-3.9421,-4.2667,-4.4307,-4.2899,-4.4705,-4.5947,-4.593,-4.6609,-4.7023,-4.7007,-4.7686,-4.8398,-4.9127,-4.9144,-4.9127,-4.911,-4.911,-4.873,-4.8001,-4.8001,-4.7636,-4.6908,-4.6146,-4.54,-4.4671,-4.3943,-4.3628,-4.3628,-4.3595,-4.2734,-4.1399,-4.1194,-4.0933,-4.0754,-4.0754,-4.04,-3.9902,0.0,0.0,0.0,0.0,0.0,0.0,0.0,0.0,0.0,0.0,-2.9012,-3.2259,-3.5418,-3.8058,-4.0663,-4.3286,-4.102,-3.9004,-3.7987,0.0,0.0,0.0,0.0,0.0,-3.7434,-4.0021,-4.2483,-4.4839,-4.607,-4.7069,-4.789,-4.946,-5.0602,-5.1422,-5.2779,-5.3385,-5.3367,-5.3153,-5.2564,-5.1351,-4.6694,-4.3679,-4.1627,0.0,0.0,0.0,0.0,0.0,0.0,0.0,0.0,0.0,0.0,0.0,0.0,0.0,0.0,0.0,0.0,0.0,0.0,0.0,0.0,0.0,0.0,0.0,0.0,0.0,0.0,0.0,0.0,0.0,0.0,0.0,0.0,-3.7284,-3.6771,-3.9835,-4.28,-4.4589,-4.7106,-4.8531,-4.8133,-4.911,-4.9558,-4.9028,-4.9657,-4.9856,-4.9326,-4.9491,-4.9707,-4.9906,-4.9906,-4.9657,-4.911,-4.911,-4.873,-4.8001,-4.8001,-4.7885,-4.7653,-4.6378,-4.5682,-4.5417,-4.4158,-4.3628,-4.3578,-4.3048,-4.227,-4.1392,-4.1344,-4.0658,-3.9713,-3.9713,-3.9609,-3.9451,0.0,0.0,0.0,0.0,0.0,0.0,0.0,0.0,0.0,0.0,-2.8959,-3.2277,-3.5132,-3.7844,-4.0003,-4.1431,-3.9254,-3.7184,-3.5756,0.0,0.0,0.0,0.0,-3.6542,-4.0182,-4.2234,-4.425,-4.6302,-4.7105,-4.789,-4.8693,-5.0263,-5.1422,-5.2243,-5.3474,-5.4028,-5.4028,-5.4028,-5.4028,-5.3742,-5.053,-4.8229,-4.6355,-4.3019,-4.1145,-4.0057,-3.7826,-3.7487,-3.7844,-3.6131,0.0,0.0,0.0,0.0,0.0,0.0,0.0,0.0,0.0,0.0,0.0,0.0,0.0,0.0,0.0,0.0,0.0,0.0,0.0,0.0,0.0,0.0,0.0,0.0,-3.9073,-4.1723,-4.2253,-4.4141,-4.6162,-4.8067,-4.969,-5.0651,-5.0651,-5.1313,-5.1429,-5.0717,-5.1048,-5.0966,-5.0253,-5.022,-5.0353,-5.0651,-5.0651,-5.0452,-5.0021,-4.9723,-4.9193,-4.8465,-4.815,-4.8001,-4.7968,-4.6792,-4.6079,-4.5732,-4.4572,-4.391,-4.3595,-4.3164,-4.2353,0.0,0.0,0.0,0.0,0.0,-3.9272,-3.9272,0.0,0.0,0.0,0.0,0.0,0.0,0.0,0.0,0.0,0.0,0.0,-3.126,-3.358,-3.6506,-3.8344,-3.8522,-3.6899,-3.4936,0.0,0.0,0.0,-3.3362,-3.6435,-3.9504,-4.2483,-4.4089,-4.557,-4.6998,-4.78,-4.8568,-4.9353,-5.103,-5.2243,-5.3046,-5.3903,-5.4295,-5.4295,-5.4295,-5.4295,-5.4277,-5.4188,-5.3581,-5.2279,-4.7961,-4.623,-4.5677,-4.2608,-4.0842,-3.9825,-3.8736,0.0,0.0,0.0,0.0,0.0,0.0,0.0,0.0,0.0,0.0,0.0,0.0,0.0,0.0,0.0,0.0,0.0,0.0,0.0,0.0,0.0,0.0,0.0,0.0,-4.3398,-4.5993,-4.8181,-4.8497,-4.8945,-5.0187,-5.0966,-5.1396,-5.1396,-5.1993,-5.2108,-5.1446,-5.1396,-5.1131,-5.0485,0.0,0.0,0.0,0.0,-5.1363,-5.128,-5.0651,-4.9955,-4.9226,-4.8481,-4.8117,-4.81,-4.7272,-4.6527,-4.5864,-4.5052,-4.4324,-4.3727,-4.3562,-4.2634,-4.1226,-4.0531,-3.9852,-3.9272,-3.9272,-3.9272,-3.9272,0.0,0.0,0.0,0.0,0.0,0.0,0.0,0.0,0.0,-2.5693,-2.8031,-3.0261,-3.1974,-3.3865,-3.5507,-3.6756,-3.4258,-3.2135,0.0,0.0,-3.3687,-3.656,-3.97,-4.2251,-4.4125,-4.5713,-4.6676,-4.6998,-4.78,-4.8568,-4.9371,-5.1601,-5.3064,-5.3867,-5.5294,-5.5937,-5.5937,-5.5937,-5.5937,-5.5883,-5.5241,-5.376,-5.1744,-5.0191,-4.8817,-4.739,-4.4839,-4.5374,-4.6873,-4.4178,-4.3529,-4.3362,-4.0449,0.0,0.0,0.0,0.0,0.0,0.0,0.0,0.0,0.0,0.0,0.0,0.0,0.0,0.0,0.0,0.0,0.0,0.0,0.0,0.0,-4.4797,-4.7019,-4.8978,-5.1142,-5.1528,-5.1413,-5.1098,-5.1728,-5.2175,-5.2175,-5.2307,-5.2324,-5.2175,-5.2175,-5.2108,-5.1959,-5.1959,-5.2026,-5.2158,-5.2175,-5.1877,-5.128,-5.1131,-5.0717,-4.9988,0.0,0.0,-4.8845,-4.7504,-4.6825,-4.6609,-4.5268,-4.4605,-4.439,-4.3214,-4.1889,-4.0514,-3.9785,-3.9404,-3.9272,-3.9272,-3.9272,-3.9272,0.0,0.0,0.0,0.0,0.0,0.0,0.0,0.0,0.0,0.0,-2.6978,-2.8798,-3.0386,-3.1278,-3.2063,-3.283,-3.0725,0.0,0.0,-3.2955,-3.5632,-3.92,-4.1984,-4.4196,-4.5766,-4.6587,-4.6998,-4.6998,-4.8175,-4.9156,-4.9959,-5.235,-5.3867,-5.467,-5.5865,-5.6401,-5.6401,-5.6401,-5.6169,-5.5758,-5.5366,-5.4045,-5.2243,-5.1833,-5.0709,-4.9139,-4.7533,-4.7729,-4.8443,-4.6462,-4.612,-4.6047,-4.3244,-4.0718,-3.7983,0.0,0.0,0.0,0.0,0.0,0.0,0.0,0.0,0.0,0.0,0.0,0.0,0.0,0.0,-3.7712,0.0,0.0,-4.4365,-4.8285,-4.9949,-5.1062,-5.2167,-5.2652,-5.2614,-5.1931,-5.2158,-5.2373,-5.2373,-5.2373,-5.2373,-5.2373,-5.2373,-5.2373,-5.2373,-5.2373,-5.2373,-5.2373,-5.2373,-5.2208,-5.1827,-5.1462,-5.1098,-5.0734,-4.9641,-4.911,-4.9077,-4.7951,-4.704,-4.6295,-4.5566,-4.4821,-4.4042,-4.2568,-4.1541,-4.0779,-3.9702,-3.9272,-3.9272,-3.9272,-3.9272,-3.9272,0.0,0.0,0.0,0.0,0.0,0.0,0.0,0.0,0.0,0.0,-2.5714,-2.7077,-2.8475,-2.8681,-2.8709,0.0,0.0,0.0,0.0,-3.4276,-3.7434,-4.1395,-4.3822,-4.5677,-4.6962,-4.6998,-4.6998,-4.6998,-4.855,-4.9638,-5.0334,-5.285,-5.4367,-5.5027,-5.5972,-5.6401,-5.6401,-5.6401,-5.6026,-5.5419,-5.5277,-5.4367,-5.3064,-5.2761,-5.1762,-5.0388,-4.9442,-4.8407,-4.7408,-4.6926,-4.6708,-4.6411,-4.4829,-4.3398,-4.1395,-3.697,-3.5471,0.0,0.0,0.0,0.0,0.0,0.0,0.0,0.0,0.0,-3.6848,-3.9088,-4.0138,-4.1848,-4.5728,-4.6656,-4.7868,-5.1057,-5.1978,-5.2387,-5.2557,-5.3076,-5.3128,-5.2516,-5.2373,-5.2445,-5.257,-5.2516,-5.2373,-5.2373,-5.2373,-5.2373,-5.2373,-5.2373,-5.2373,-5.2373,-5.2373,-5.2373,-5.2373,-5.1777,-5.1496,-5.1479,-5.0021,-4.9326,-4.9293,-4.8415,-4.7272,-4.5997,-4.5698,-4.4837,-4.3512,-4.2021,-4.1409,-4.1276,-3.9835,-3.9272,-3.9272,-3.9272,-3.9272,-3.9272,0.0,0.0,0.0,0.0,0.0,0.0,0.0,0.0,0.0,0.0,0.0,0.0,0.0,0.0,0.0,0.0,0.0,0.0,-3.2545,-3.5614,-3.9093,-4.3072,-4.5481,-4.6819,-4.6998,-4.6998,-4.6998,-4.6998,-4.855,-4.9371,-4.9513,-5.2582,-5.4063,-5.4224,-5.5723,-5.6401,-5.6401,-5.6401,-5.6347,-5.6204,-5.5491,-5.4688,-5.3742,-5.235,-5.128,-5.0316,-4.8835,-4.689,-4.5106,-4.5731,-4.5472,-4.5107,-4.6265,-4.5729,-4.4067,-4.1191,0.0,-3.6212,-3.4491,-3.4249,-3.4769,-3.6061,-3.62,-3.747,0.0,0.0,-4.236,-4.576,-4.709,-4.7911,-4.9021,-4.9988,-5.1155,-5.2712,-5.264,-5.2594,-5.3179,-5.3315,-5.3128,-5.2516,-5.2373,-5.264,-5.3264,-5.2764,-5.2373,-5.2373,-5.2373,-5.2373,-5.2373,-5.2373,-5.2373,-5.2373,-5.2373,-5.2373,-5.2373,-5.2307,-5.2258,-5.2241,-5.0783,-5.0088,-5.0038,-4.863,-4.7554,-4.6692,-4.5384,-4.4357,-4.3512,-4.2021,-4.1409,-4.1276,-3.9835,-3.9272,-3.9272,-3.9272,-3.9272,-3.9272,0.0,0.0,0.0,0.0,0.0,0.0,0.0,0.0,0.0,0.0,0.0,0.0,0.0,0.0,0.0,0.0,0.0,0.0,-3.2648,-3.54,-3.8665,-4.2626,-4.5053,-4.6302,-4.6302,-4.6748,-4.6998,-4.6998,-4.855,-4.9549,-5.0066,-5.2761,-5.4259,-5.4759,-5.5901,-5.6401,-5.6401,-5.6401,-5.5865,-5.4991,-5.4652,-5.3492,-5.1851,-5.0744,-4.896,-4.6944,-4.5856,-4.4517,0.0,0.0,-4.3172,-4.3532,-4.4401,-4.3774,-4.2169,-3.9323,-3.7768,0.0,-3.6775,-3.6724,0.0,0.0,-3.9935,-4.1802,-4.4271,-4.5236,-4.6129,-4.8079,-4.9422,-5.0531,-5.1626,-5.2208,-5.2668,0.0,-5.3802,-5.383,-5.2956,-5.3437,-5.3312,-5.1833,-5.1665,-5.1932,-5.2733,-5.257,-5.2373,-5.2373,-5.2373,-5.2373,-5.2373,-5.2373,-5.2373,-5.2373,-5.2373,-5.2373,-5.2373,-5.2373,-5.2373,-5.2357,-5.0899,-5.022,-5.0171,-4.868,-4.7355,-4.6179,-4.4705,-4.3893,-4.3512,-4.2021,-4.1409,-4.1276,-3.9835,-3.9272,-3.9272,-3.9272,-3.9272,-3.9272,0.0,0.0,0.0,0.0,0.0,0.0,0.0,0.0,0.0,0.0,0.0,0.0,0.0,0.0,0.0,0.0,0.0,0.0,0.0,-3.4049,-3.7111,-4.1163,-4.3804,-4.5267,-4.5463,-4.6462,-4.6998,-4.6998,-4.8336,-4.9299,-4.9906,-5.2047,-5.3367,-5.3956,-5.4741,-5.5223,-5.5419,-5.5419,-5.4759,-5.3706,-5.3706,-5.2297,-5.0031,-4.8817,-4.6391,-4.3572,-4.3036,-4.1627,0.0,0.0,-3.9656,-4.0009,-4.1059,-4.0642,-3.9506,-3.7959,-3.752,-3.7584,-3.7869,0.0,0.0,-4.1045,-4.3628,-4.594,-4.6589,-4.7872,-4.9227,-5.0359,-5.1143,-5.1812,-5.2673,-5.2792,-5.2774,-5.2791,-5.3635,-5.3832,-5.2607,-5.3122,-5.2918,-5.1121,-5.0794,-5.0919,-5.1416,-5.1843,-5.2075,-5.2075,-5.2274,-5.2373,-5.2373,-5.2373,-5.2373,-5.2373,-5.2373,-5.2373,-5.2373,-5.2373,-5.2373,-5.2357,-5.0899,-5.022,-5.0154,-4.8249,-4.6808,-4.5715,-4.4257,-4.3628,-4.3512,-4.2021,-4.1409,-4.1276,-3.9835,-3.9272,-3.9272,-3.9272,-3.9272,-3.9272,0.0,0.0,0.0,0.0,0.0,0.0,0.0,0.0,0.0,0.0,0.0,0.0,0.0,0.0,0.0,0.0,0.0,0.0,0.0,-3.1452,-3.4499,-3.8699,-4.1912,-4.3911,-4.4642,-4.6195,-4.6998,-4.6998,-4.7818,-4.8229,-4.8282,-4.987,-5.062,-5.0691,-5.1476,-5.2261,-5.2993,-5.2993,-5.2957,-5.2921,-5.2921,-5.1476,-4.9103,-4.6783,-4.3946,-4.1199,-4.1181,0.0,0.0,0.0,-3.4401,-3.3675,-3.6425,-3.6888,0.0,-3.9126,-3.923,0.0,0.0,0.0,-4.2346,-4.4575,-4.6885,-4.9371,-5.2452,-5.2116,-5.1772,-5.387,-5.3247,-5.2084,-5.1489,-5.1329,-5.1258,-5.1373,-5.1367,-5.1615,-5.2274,-5.2227,-5.1595,-5.0391,-4.9972,-4.9684,0.0,-5.0485,-5.1313,-5.1313,-5.1976,-5.2373,-5.2373,-5.2373,-5.2373,-5.2373,-5.2373,-5.2373,-5.2373,-5.2373,-5.2373,-5.2357,-5.0899,-5.022,-5.0121,-4.7189,-4.5831,-4.5715,-4.4257,-4.3628,-4.3512,-4.2021,-4.1409,-4.1276,-3.9835,-3.9272,-3.9272,-3.9272,-3.9272,-3.9272,0.0,0.0,0.0,0.0,0.0,0.0,0.0,0.0,0.0,0.0,0.0,0.0,0.0,0.0,0.0,0.0,0.0,0.0,0.0,-2.9066,-3.1253,-3.3651,-3.7502,-3.995,-4.0735,-4.2804,-4.4143,-4.4678,-4.5159,-4.5513,-4.5856,-4.7594,-4.8635,-4.8996,-4.9781,-5.035,-5.0716,-5.0256,-4.9802,-4.9362,-4.8399,-4.6911,-4.4984,-4.2467,-3.9534,-3.6549,0.0,0.0,0.0,0.0,0.0,-3.1943,-3.2879,-3.2886,-3.29,-3.4643,-3.6141,-3.7793,0.0,0.0,-4.5161,-4.7892,-4.9859,-5.1525,-5.3061,-5.3379,-5.3224,-5.2527,-5.1612,-5.0509,-4.9343,-4.908,-4.9154,-4.9614,-5.0926,-5.2145,-5.2847,-5.2872,-5.1936,-4.9675,-4.9707,0.0,0.0,0.0,0.0,-5.1214,-5.1512,-5.186,-5.2357,-5.2373,-5.2373,-5.2373,-5.2373,-5.2373,-5.2373,-5.1893,-5.1645,-5.1628,-5.0171,-4.8961,-4.7968,-4.6477,-4.5516,-4.5003,-4.4042,-4.3628,-4.3512,-4.2021,-4.1409,-4.1276,-3.9835,-3.9272,-3.9272,-3.9272,-3.9272,-3.9272,0.0,0.0,0.0,0.0,0.0,0.0,0.0,0.0,0.0,0.0,0.0,0.0,0.0,0.0,0.0,0.0,0.0,0.0,0.0,0.0,-2.8194,-2.9697,-3.3299,-3.5616,-3.6341,-3.8398,-3.9767,-4.0379,-4.0577,-4.1007,-4.1716,-4.32,-4.4254,-4.4856,-4.5624,-4.6369,-4.7007,-4.623,-4.5462,-4.4669,-4.3593,-4.1845,-3.9565,-3.7418,-3.5153,0.0,0.0,0.0,0.0,0.0,0.0,0.0,-3.0353,-3.1206,-3.2394,-3.3223,-3.5588,-3.8789,0.0,-4.5102,-4.7421,-5.085,-5.2241,-5.3003,-5.398,-5.3765,-5.2887,-5.1231,-4.969,-4.8183,-4.6709,-4.5734,-4.5707,-4.716,-4.8335,-4.9828,-5.1813,-5.1595,-5.0782,-4.956,-4.9299,-4.8572,0.0,0.0,0.0,-5.0419,-5.1231,-5.1761,-5.1976,-5.2241,-5.2373,-5.2373,-5.2373,-5.2373,-5.2373,-5.1645,-5.1015,-5.0485,-4.9558,-4.8332,-4.6874,-4.6129,-4.5384,-4.4655,-4.3926,-4.3628,-4.3512,-4.2021,-4.1409,-4.1276,-3.9835,-3.9272,-3.9272,-3.9272,-3.9272,-3.9272,0.0,0.0,0.0,0.0,0.0,0.0,0.0,0.0,0.0,0.0,0.0,0.0,0.0,0.0,0.0,0.0,0.0,0.0,0.0,0.0,0.0,-2.6882,-2.9458,-3.1079,-3.1636,-3.331,-3.4316,-3.4587,-3.457,-3.5066,-3.6132,-3.6916,-3.7718,-3.8503,-3.9198,-4.0356,-4.1724,-4.0922,-4.0015,-3.903,-3.8546,-3.6378,-3.3318,-3.1977,0.0,0.0,0.0,0.0,0.0,0.0,0.0,0.0,0.0,0.0,-3.4982,-3.5131,-3.7781,-4.1442,-4.5036,-4.7156,-4.9342,-5.3483,-5.4013,-5.3864,-5.5173,-5.3268,-5.0982,-5.0154,-4.7603,-4.5069,0.0,0.0,-4.1249,-4.4102,-4.4108,-4.5284,-4.9658,-4.8966,-4.8555,0.0,0.0,0.0,0.0,0.0,0.0,-4.9177,0.0,-5.2026,-5.1363,-5.1993,-5.2373,-5.2373,-5.2373,-5.2373,-5.2373,-5.1612,-5.0485,-4.9044,-4.9011,-4.8233,-4.6825,-4.6079,-4.5334,-4.4589,-4.391,-4.3628,-4.3512,-4.2071,-4.1442,-4.1276,-3.9918,-3.9338,-3.9272,-3.9322,-3.9305,-3.9272,0.0,0.0,0.0,0.0,0.0,0.0,0.0,0.0,0.0,0.0,0.0,0.0,0.0,0.0,0.0,0.0,0.0,0.0,0.0,0.0,0.0,0.0,0.0,0.0,0.0,0.0,0.0,0.0,0.0,-3.1633,-3.2318,-3.2711,-3.3217,-3.381,-3.4003,-3.4414,-3.4858,-3.4116,-3.3716,-3.3499,0.0,-3.128,-3.0306,0.0,0.0,0.0,0.0,0.0,0.0,0.0,0.0,0.0,0.0,0.0,-3.6158,-3.8344,0.0,-4.5102,-4.8233,-5.0932,-5.3119,-5.4245,-5.4792,-5.4742,-5.3483,-5.1794,-4.9806,-4.7404,-4.4175,-4.1326,0.0,0.0,0.0,-4.2526,-4.4732,0.0,-5.1106,-5.1378,0.0,0.0,0.0,-5.0059,-4.9177,-5.0088,0.0,0.0,-5.0949,-5.1711,-5.2075,-5.2274,-5.2373,-5.2373,-5.2373,-5.2373,-5.2373,-5.1115,-4.974,-4.8266,-4.7719,-4.6974,-4.6046,-4.5301,-4.4572,-4.3893,-4.3694,-4.3628,-4.3545,-4.2618,-4.1922,-4.1375,-4.1011,-4.0216,-3.9392,-3.9901,-3.9752,-3.9272,0.0,0.0,0.0,0.0,0.0,0.0,0.0,0.0,0.0,0.0,0.0,0.0,0.0,0.0,0.0,0.0,0.0,0.0,0.0,0.0,0.0,0.0,0.0,0.0,0.0,0.0,0.0,0.0,0.0,0.0,0.0,-2.8286,-2.8886,-2.9532,-2.988,-3.0266,-3.0619,-2.9882,0.0,0.0,0.0,0.0,0.0,0.0,0.0,0.0,0.0,0.0,0.0,0.0,0.0,-3.3321,-3.4768,-3.712,-3.9918,-4.2866,0.0,-4.8365,-5.1297,-5.3284,-5.4593,-5.4924,-5.461,-5.3632,-5.1446,-4.9309,-4.6775,-4.3197,-4.0332,0.0,0.0,0.0,0.0,0.0,0.0,0.0,-4.9283,-5.0208,-5.0739,0.0,-5.1458,0.0,-5.0601,-5.128,-5.1595,0.0,-5.1529,-5.1794,-5.1893,-5.2208,-5.2373,-5.2373,-5.2373,-5.2075,-5.1429,-5.0303,-4.9144,-4.8001,-4.7587,-4.699,-4.6245,-4.5516,-4.4771,-4.4075,0.0,-4.3628,-4.3562,-4.2816,-4.227,-4.1872,-4.1541,-4.0928,-4.0266,-4.068,-4.058,-4.0216,0.0,0.0,0.0,0.0,0.0,0.0,0.0,0.0,0.0,0.0,0.0,0.0,0.0,0.0,0.0,0.0,0.0,0.0,0.0,0.0,0.0,0.0,0.0,0.0,0.0,0.0,0.0,0.0,0.0,0.0,0.0,0.0,0.0,0.0,0.0,0.0,0.0,0.0,0.0,0.0,0.0,0.0,0.0,0.0,0.0,0.0,0.0,0.0,0.0,0.0,-3.3951,-3.6206,-3.901,-4.1856,-4.4754,-4.7487,-4.9409,-5.1197,-5.3814,-5.4593,-5.4808,-5.5338,-5.3781,-5.1496,-4.9193,-4.6228,-4.2783,-3.8626,0.0,0.0,-3.2746,0.0,-3.4303,-3.6721,0.0,-4.1905,-4.6278,-4.762,-4.916,-5.191,-5.1761,-5.1678,-5.2324,-5.2373,-5.2373,-5.2373,-5.2373,-5.2092,-5.1446,-5.2026,-5.234,-5.2241,-5.2224,-5.1545,-5.0088,-4.9425,-4.873,-4.8001,-4.7901,-4.7471,-4.6725,-4.598,-4.5251,-4.4506,-4.3893,-4.3628,-4.3578,-4.2932,-4.2618,-4.2469,-4.1922,-4.1591,-4.1425,-4.1524,-4.1491,-4.1409,0.0,0.0,0.0,0.0,0.0,0.0,0.0,0.0,0.0,0.0,0.0,0.0,0.0,0.0,0.0,0.0,0.0,0.0,0.0,0.0,0.0,0.0,0.0,0.0,0.0,0.0,0.0,0.0,0.0,0.0,0.0,0.0,0.0,0.0,0.0,0.0,0.0,0.0,0.0,0.0,0.0,0.0,0.0,0.0,0.0,0.0,0.0,0.0,0.0,0.0,-3.5402,-4.0285,-4.2235,-4.4887,-4.7587,-4.9326,-5.128,-5.3102,-5.4212,-5.4957,-5.5305,-5.4825,-5.2638,-4.9839,-4.7007,-4.3181,0.0,0.0,0.0,-3.1355,-3.0957,-3.1504,0.0,-3.6555,0.0,0.0,0.0,0.0,-4.9541,0.0,0.0,0.0,0.0,0.0,0.0,0.0,0.0,-5.2324,-5.2191,-5.2307,-5.2092,-5.1479,-5.1462,-5.0767,-4.9326,-4.9177,-4.873,-4.8001,-4.7388,-4.6692,-4.5963,-4.5218,-4.4489,-4.3794,-4.3678,0.0,-4.3611,-4.3479,-4.3065,-4.2568,-4.3048,-4.2485,-4.1491,-4.2104,-4.1939,-4.1409,0.0,0.0,0.0,0.0,0.0,0.0,0.0,0.0,0.0,0.0,-2.1236,0.0,0.0,0.0,0.0,0.0,0.0,0.0,0.0,0.0,0.0,0.0,0.0,0.0,0.0,0.0,0.0,0.0,0.0,0.0,0.0,0.0,0.0,0.0,0.0,0.0,0.0,0.0,0.0,0.0,0.0,0.0,0.0,0.0,0.0,0.0,0.0,0.0,0.0,0.0,-3.4409,-3.9817,-4.2684,-4.5367,-4.7868,-5.0104,-5.1496,-5.2622,-5.4113,-5.4775,-5.4875,-5.4129,-5.1777,-4.8663,-4.4937,0.0,0.0,0.0,0.0,-2.9284,-2.8903,0.0,0.0,0.0,0.0,0.0,0.0,0.0,0.0,0.0,0.0,0.0,0.0,0.0,0.0,0.0,0.0,-5.2373,-5.2373,-5.2373,-5.2042,-5.1297,-5.0916,-5.0204,-4.9127,-4.873,-4.8349,-4.8001,-4.7636,-4.7289,-4.6908,-4.5765,-4.5284,-4.5284,-4.4506,-4.439,-4.4754,-4.4754,-4.4539,-4.4257,-4.4622,-4.4075,-4.3164,-4.3512,-4.3181,-4.2568,0.0,0.0,0.0,0.0,0.0,0.0,0.0,-1.9447,-1.9913,-2.0118,-2.0589,-2.0931,-2.0931,-2.1207,0.0,0.0,0.0,0.0,0.0,0.0,0.0,0.0,0.0,0.0,0.0,0.0,0.0,0.0,0.0,0.0,0.0,0.0,0.0,0.0,0.0,0.0,0.0,0.0,0.0,0.0,0.0,0.0,0.0,0.0,0.0,0.0,0.0,0.0,0.0,0.0,-3.1859,-3.6421,-4.0093,-4.3645,-4.6908,-4.9375,-5.0551,-5.1479,-5.3516,-5.4162,-5.4113,-5.3384,-5.0651,-4.709,-4.2982,-3.8427,0.0,0.0,-2.8522,-2.7793,-2.7383,0.0,0.0,0.0,0.0,0.0,0.0,0.0,0.0,0.0,0.0,0.0,0.0,0.0,0.0,0.0,0.0,0.0,-5.2373,-5.2373,-5.1976,-5.1082,-5.0502,-4.979,-4.8879,-4.8299,-4.8001,-4.8001,-4.8001,-4.7918,-4.7736,-4.656,-4.6262,-4.6593,-4.5433,-4.5251,-4.5798,-4.5798,-4.5798,-4.5798,-4.5798,-4.5334,-4.4688,-4.4688,-4.4241,-4.3628,0.0,0.0,0.0,0.0,0.0,0.0,0.0,-1.8265,-1.854,-1.9216,-1.9362,-1.9394,-1.9394,-2.0622,0.0,0.0,0.0,0.0,0.0,0.0,0.0,0.0,0.0,0.0,0.0,0.0,0.0,0.0,0.0,0.0,0.0,0.0,0.0,0.0,0.0,0.0,0.0,0.0,0.0,0.0,0.0,0.0,0.0,0.0,0.0,0.0,0.0,0.0,0.0,0.0,0.0,-2.9779,-3.2774,-3.8841,-4.5086,-4.6013,0.0,0.0,-5.2175,-5.3036,-5.3351,-5.2655,-4.8746,-4.4291,-4.1259,0.0,0.0,0.0,-2.7379,-2.6584,-2.7201,-2.808,0.0,0.0,0.0,0.0,0.0,0.0,0.0,0.0,0.0,0.0,0.0,0.0,0.0,0.0,0.0,0.0,-5.2373,-5.2373,-5.1744,-5.0353,-5.0253,-4.9525,-4.8117,-4.8034,-4.8001,-4.8001,-4.8001,-4.7653,-4.699,-4.6858,-4.646,-4.5881,-4.5748,-4.5732,0.0,-4.5798,-4.5798,-4.5798,-4.5798,-4.5334,-4.4688,-4.4688,-4.4241,-4.3628,0.0,0.0,0.0,0.0,0.0,0.0,0.0,-1.7922,-1.827,-1.8562,-1.8968,-1.9082,-1.8572,-1.9443,0.0,0.0,0.0,0.0,0.0,0.0,0.0,0.0,0.0,0.0,0.0,0.0,0.0,0.0,0.0,0.0,0.0,0.0,0.0,0.0,0.0,0.0,0.0,0.0,0.0,0.0,0.0,0.0,0.0,0.0,0.0,0.0,0.0,0.0,0.0,0.0,0.0,0.0,-2.7379,-3.1454,0.0,0.0,-4.3976,-4.6295,-4.9525,-5.1578,-5.2622,-5.1893,-4.8498,-4.4473,-4.1143,0.0,0.0,-2.882,-2.723,-2.6303,-2.6584,-2.723,-2.818,0.0,0.0,0.0,0.0,0.0,0.0,0.0,0.0,0.0,0.0,0.0,0.0,0.0,0.0,0.0,-5.2373,-5.1959,-5.1264,-5.0237,-4.979,-4.9044,-4.8017,-4.8001,-4.8001,-4.8001,-4.8001,-4.7852,-4.7554,-4.7106,-4.6974,-4.7106,-4.6643,-4.6709,0.0,-4.7123,-4.6858,-4.646,-4.646,-4.5732,-4.4688,-4.4688,-4.4241,-4.3628,0.0,0.0,0.0,0.0,0.0,0.0,-1.7281,-1.7657,-1.7915,-1.7906,-1.8372,-1.8459,-1.7886,-1.8275,-1.86,-1.8654,0.0,0.0,0.0,0.0,0.0,0.0,0.0,0.0,0.0,0.0,0.0,0.0,0.0,0.0,0.0,0.0,0.0,0.0,0.0,0.0,0.0,0.0,0.0,0.0,0.0,0.0,0.0,0.0,0.0,0.0,0.0,0.0,0.0,0.0,0.0,0.0,0.0,0.0,0.0,0.0,-3.9587,-4.2369,-4.6146,-4.8928,-5.0585,-4.9839,-4.6908,-4.3297,0.0,0.0,-3.041,-2.8456,-2.7065,-2.622,-2.622,-2.68,-2.7549,0.0,0.0,0.0,0.0,0.0,0.0,0.0,0.0,0.0,0.0,0.0,0.0,0.0,0.0,0.0,-5.2042,-5.1148,-5.0502,-5.022,-4.9491,-4.8746,-4.8017,-4.8001,-4.8001,-4.8001,-4.8001,-4.8001,-4.7984,-4.7454,-4.7504,-4.7968,-4.7454,-4.752,0.0,-4.7769,-4.7371,-4.6874,-4.6659,-4.5798,-4.4688,-4.4688,-4.4241,-4.3595,0.0,0.0,0.0,0.0,0.0,0.0,0.0,-1.7322,-1.7273,-1.7215,-1.7231,-1.719,-1.7124,-1.7124,-1.7124,-1.7124,0.0,0.0,0.0,0.0,0.0,0.0,0.0,0.0,0.0,0.0,0.0,-2.1589,-2.1664,0.0,0.0,0.0,0.0,0.0,0.0,0.0,0.0,0.0,0.0,0.0,0.0,0.0,0.0,0.0,0.0,0.0,0.0,0.0,0.0,0.0,0.0,0.0,0.0,0.0,0.0,0.0,-3.5313,-3.9785,-4.1988,-4.4721,-4.6775,-4.603,-4.3115,-3.9669,0.0,0.0,-2.9019,-2.7616,-2.6717,-2.622,-2.622,-2.68,-2.7549,-2.8296,-2.9566,0.0,0.0,0.0,0.0,0.0,0.0,0.0,0.0,0.0,0.0,0.0,0.0,0.0,-5.128,-4.9922,-4.9458,-5.0187,-4.9491,-4.8746,-4.8017,-4.8001,-4.8001,-4.8001,-4.8001,-4.8001,-4.8001,-4.7984,-4.8001,-4.8001,-4.7984,-4.8001,0.0,-4.7206,-4.6908,-4.6825,-4.6096,-4.5351,-4.4688,-4.4688,-4.4241,-4.3529,0.0,0.0,0.0,0.0,0.0,0.0,0.0,-1.7395,-1.7346,-1.7338,-1.7338,-1.7298,-1.7232,-1.7232,-1.7232,-1.7232,0.0,0.0,0.0,0.0,0.0,0.0,0.0,0.0,0.0,0.0,-2.1738,-2.1738,-2.1768,-2.1768,-2.1768,0.0,0.0,0.0,0.0,0.0,0.0,0.0,0.0,0.0,0.0,0.0,0.0,0.0,0.0,0.0,0.0,0.0,0.0,0.0,0.0,0.0,0.0,0.0,0.0,0.0,0.0,0.0,-3.6572,-3.909,-4.0796,-4.005,-3.8228,-3.6125,-3.4187,-3.1123,-2.8439,-2.7516,-2.67,-2.622,-2.622,-2.6402,-2.7098,-2.882,-2.9466,0.0,0.0,0.0,0.0,0.0,0.0,0.0,0.0,0.0,0.0,0.0,0.0,0.0,-5.0585,-4.9641,-4.9226,-4.9458,-4.8746,-4.8249,-4.8001,-4.8001,-4.8001,-4.8001,-4.8001,-4.8001,-4.8001,-4.8001,-4.7719,-4.7255,-4.7255,-4.6957,-4.6477,-4.6228,-4.5847,-4.5367,-4.5135,-4.4589,-4.3959,-4.3959,-4.381,-4.3512,0.0,0.0,0.0,0.0,0.0,0.0,0.0,-1.7467,-1.7419,-1.7395,-1.7411,-1.7371,-1.7306,-1.7306,-1.7306,-1.7306,0.0,0.0,0.0,0.0,0.0,0.0,0.0,0.0,0.0,-2.1707,-2.184,-2.194,-2.184,-2.1797,-2.1797,-2.1797,-2.1797,0.0,0.0,0.0,0.0,0.0,0.0,0.0,0.0,0.0,-2.194,0.0,0.0,0.0,0.0,0.0,0.0,0.0,0.0,0.0,0.0,0.0,0.0,0.0,-2.516,0.0,0.0,-3.4038,-3.5611,-3.5148,-3.3922,0.0,0.0,-2.9075,-2.7404,-2.6637,-2.6355,-2.6222,-2.6203,-2.622,-2.6833,-2.8721,-2.9234,0.0,0.0,0.0,0.0,0.0,0.0,0.0,0.0,0.0,0.0,0.0,0.0,-5.027,-4.9823,-4.9094,-4.8696,-4.8696,-4.8249,-4.8001,-4.8001,-4.8001,-4.8001,-4.8001,-4.8001,-4.7852,-4.7587,-4.7587,-4.7173,-4.6477,-4.6477,-4.6212,0.0,-4.5483,-4.5102,-4.4655,-4.439,-4.4009,-4.3595,-4.3313,-4.3214,-4.3065,0.0,0.0,0.0,0.0,0.0,0.0,0.0,0.0,0.0,0.0,-1.7411,-1.7371,-1.7306,-1.7306,-1.7306,0.0,0.0,0.0,0.0,0.0,0.0,0.0,0.0,0.0,0.0,-2.149,-2.1886,-2.2152,-2.1953,-2.1873,-2.1923,-2.1923,-2.1893,-2.1864,-2.1864,0.0,0.0,0.0,0.0,0.0,0.0,0.0,0.0,0.0,0.0,0.0,0.0,0.0,0.0,0.0,0.0,0.0,0.0,0.0,0.0,0.0,0.0,0.0,0.0,0.0,0.0,0.0,0.0,0.0,0.0,-2.6573,0.0,-2.5226,-2.5693,-2.6227,-2.627,-2.6286,-2.6783,-2.829,0.0,0.0,0.0,0.0,0.0,0.0,0.0,0.0,0.0,0.0,0.0,0.0,0.0,-4.9061,-4.8961,-4.8299,-4.7901,-4.7852,-4.7835,-4.7868,-4.7918,-4.7918,-4.7918,-4.7918,-4.7918,-4.7554,-4.6891,-4.6841,-4.6411,0.0,-4.5715,-4.5682,-4.5582,-4.4887,-4.4605,-4.4539,-4.3893,-4.3595,-4.3462,-4.2767,-4.2485,-4.2237,0.0,0.0,0.0,0.0,0.0,0.0,0.0,0.0,0.0,0.0,0.0,-1.7467,-1.7451,-1.7451,0.0,0.0,0.0,0.0,0.0,0.0,0.0,0.0,0.0,0.0,0.0,-2.0911,-2.1407,-2.1653,-2.2226,-2.2654,-2.2954,-2.2954,-2.2852,-2.2642,-2.2642,0.0,0.0,0.0,0.0,0.0,0.0,0.0,0.0,0.0,0.0,0.0,-2.2124,-2.1969,0.0,0.0,0.0,0.0,0.0,0.0,0.0,0.0,-2.2046,-2.2245,-2.3106,0.0,-2.5657,-2.5094,0.0,0.0,0.0,0.0,0.0,0.0,0.0,0.0,0.0,0.0,0.0,0.0,0.0,0.0,0.0,0.0,0.0,0.0,0.0,0.0,0.0,0.0,0.0,0.0,0.0,-4.8614,-4.7487,-4.7255,-4.6891,-4.6328,-4.6311,-4.6576,-4.7156,-4.7156,-4.7156,-4.7156,-4.7156,-4.7073,-4.6874,-4.6311,-4.5649,-4.4937,-4.4937,-4.4638,-4.4125,-4.3943,-4.3876,-4.386,-4.3694,-4.328,-4.2767,-4.2585,-4.2154,-4.1558,0.0,0.0,0.0,0.0,0.0,0.0,0.0,0.0,0.0,0.0,0.0,0.0,0.0,0.0,0.0,0.0,0.0,0.0,0.0,0.0,0.0,0.0,0.0,0.0,-1.9544,-2.0568,-2.1241,-2.1539,-2.2324,-2.2904,-2.3296,-2.3296,-2.3164,-2.2891,-2.2543,0.0,0.0,0.0,0.0,0.0,-2.2493,0.0,0.0,0.0,0.0,0.0,-2.2286,-2.2096,0.0,-2.184,-2.1827,-2.1797,0.0,0.0,0.0,0.0,-2.1797,-2.1797,-2.1797,-2.2905,-2.4015,-2.3616,-2.3862,-2.4178,0.0,0.0,0.0,0.0,0.0,0.0,0.0,0.0,0.0,0.0,0.0,0.0,0.0,0.0,0.0,0.0,0.0,0.0,0.0,0.0,0.0,0.0,-4.81,-4.7587,-4.646,-4.6394,-4.6195,-4.5798,-4.5467,-4.5632,-4.6378,-4.6394,-4.6394,-4.6394,-4.6394,-4.6212,-4.5864,-4.5467,-4.4887,-4.4208,-4.4208,-4.3976,-4.3628,-4.3628,-4.3628,-4.3595,-4.3247,-4.2866,-4.2435,-4.1773,-4.1276,-4.0829,0.0,0.0,0.0,0.0,0.0,0.0,0.0,0.0,0.0,0.0,0.0,0.0,0.0,0.0,0.0,0.0,0.0,0.0,0.0,0.0,0.0,0.0,0.0,-1.8543,-1.8975,-2.0272,-2.1191,-2.1655,-2.247,-2.3076,-2.3524,-2.3613,-2.3432,-2.3023,-2.2178,-2.184,0.0,0.0,0.0,0.0,-2.273,0.0,0.0,0.0,0.0,0.0,0.0,0.0,0.0,-2.1928,-2.1899,-2.184,-2.184,0.0,0.0,0.0,0.0,0.0,-2.193,-2.3133,-2.4295,-2.3944,-2.4091,-2.4288,0.0,0.0,0.0,0.0,0.0,0.0,0.0,0.0,0.0,0.0,0.0,0.0,0.0,0.0,0.0,0.0,0.0,0.0,0.0,0.0,0.0,0.0,-4.6725,-4.6411,-4.5665,-4.5616,-4.5566,-4.5467,-4.4854,-4.4821,-4.545,-4.5566,-4.5616,-4.5616,-4.5616,-4.5284,-4.4688,-4.4572,-4.4191,-4.3628,-4.3628,0.0,-4.3628,-4.3628,-4.3562,-4.3396,-4.2767,-4.2386,-4.2038,-4.0829,-4.0299,-4.0117,0.0,0.0,0.0,0.0,0.0,0.0,0.0,0.0,0.0,0.0,0.0,0.0,0.0,0.0,0.0,0.0,0.0,0.0,0.0,0.0,0.0,0.0,-1.7614,-1.8043,-1.8903,-1.9798,-2.0779,-2.1838,-2.2981,-2.3915,-2.4584,-2.4978,-2.4693,-2.3768,-2.241,-2.1969,-2.222,-2.201,-2.2292,-2.2867,-2.2867,0.0,0.0,0.0,0.0,0.0,0.0,0.0,0.0,-2.1998,-2.1969,-2.1969,-2.1969,0.0,0.0,0.0,0.0,0.0,-2.259,-2.393,-2.4744,-2.2745,-2.3335,-2.4216,0.0,0.0,0.0,0.0,0.0,0.0,0.0,0.0,0.0,0.0,0.0,0.0,0.0,0.0,0.0,0.0,0.0,0.0,0.0,0.0,0.0,-4.5963,-4.5963,-4.5632,-4.4903,-4.4854,-4.4572,-4.3976,-4.3843,-4.3843,-4.3959,-4.4556,-4.4854,-4.4854,-4.4854,-4.4804,-4.4671,-4.4059,-4.3727,-4.3628,0.0,-4.3628,-4.3628,-4.3628,-4.3264,-4.2684,-4.2568,-4.1773,-4.068,-4.0464,-3.9984,-3.9421,0.0,0.0,0.0,0.0,0.0,0.0,0.0,0.0,0.0,0.0,0.0,0.0,0.0,0.0,0.0,0.0,0.0,0.0,0.0,0.0,0.0,-1.8021,-1.8038,-1.8236,-1.8668,-1.9968,-2.0994,-2.1736,-2.2678,-2.3512,-2.4179,-2.4143,-2.3831,-2.3354,-2.2484,-2.2181,-2.2286,-2.222,-2.2439,-2.2892,0.0,0.0,0.0,0.0,0.0,0.0,0.0,0.0,0.0,0.0,-2.2044,-2.1998,-2.1998,0.0,0.0,0.0,0.0,0.0,-2.2285,-2.3276,-2.4003,-2.2872,-2.412,-2.5495,0.0,0.0,0.0,0.0,0.0,0.0,0.0,0.0,0.0,0.0,0.0,0.0,0.0,0.0,0.0,0.0,0.0,0.0,0.0,0.0,0.0,-4.5235,-4.5202,-4.487,-4.4158,-4.4125,-4.3777,-4.3048,-4.3032,-4.3032,-4.3032,-4.3346,-4.3711,-4.4125,-4.4125,-4.4125,-4.4092,-4.3761,-4.3628,-4.3611,0.0,-4.3032,-4.2999,-4.2601,-4.2237,-4.1889,-4.1508,-4.0961,-4.0332,-3.9934,-3.957,-3.9272,0.0,0.0,0.0,0.0,0.0,0.0,0.0,0.0,0.0,0.0,0.0,0.0,0.0,0.0,0.0,0.0,0.0,0.0,0.0,0.0,-1.7723,-1.8253,-1.8575,-1.8823,-1.9015,-2.0324,-2.1264,-2.1739,-2.2478,-2.3189,-2.3836,-2.3278,-2.2953,-2.2889,-2.2473,-2.2313,-2.2313,-2.2412,-2.2643,-2.2943,0.0,0.0,0.0,0.0,0.0,0.0,0.0,0.0,0.0,0.0,0.0,0.0,0.0,0.0,0.0,-2.2044,-2.2044,-2.2049,-2.2158,-2.2731,-2.3291,-2.3248,0.0,-2.627,-2.6925,0.0,0.0,0.0,0.0,0.0,0.0,0.0,0.0,0.0,0.0,0.0,0.0,0.0,0.0,0.0,0.0,0.0,0.0,0.0,-4.4539,-4.3959,-4.3926,-4.3678,-4.3131,-4.3098,-4.285,-4.2286,-4.2253,-4.2253,-4.2253,-4.2253,-4.2717,-4.3628,-4.3628,-4.3628,-4.3611,-4.3446,-4.3363,-4.333,-4.2585,-4.2253,-4.2237,-4.1839,-4.1475,-4.1127,-4.0763,-4.0415,-4.005,-3.9487,-3.9272,-3.9272,0.0,0.0,0.0,0.0,0.0,0.0,0.0,0.0,0.0,0.0,0.0,0.0,0.0,0.0,0.0,0.0,0.0,0.0,0.0,0.0,-1.7531,-1.7581,-1.8833,-1.9843,-2.0522,-2.0649,-2.12,-2.2152,-2.2897,-2.363,-2.434,-2.3617,-2.3134,-2.2889,-2.2473,-2.2341,-2.2395,-2.2527,-2.2764,-2.3109,-2.3091,0.0,0.0,0.0,0.0,0.0,0.0,0.0,0.0,0.0,0.0,0.0,0.0,0.0,-2.2282,-2.2197,-2.2185,-2.232,-2.2852,-2.3147,-2.3291,-2.3291,0.0,0.0,-2.7967,0.0,0.0,0.0,0.0,0.0,0.0,0.0,0.0,0.0,0.0,0.0,0.0,0.0,0.0,0.0,0.0,0.0,0.0,-4.2137,-4.1707,-4.1657,-4.1657,-4.1624,-4.1574,-4.1574,-4.1541,-4.1491,-4.1491,-4.1491,-4.1491,-4.1491,-4.2204,-4.3628,-4.3628,-4.3628,-4.3611,-4.2916,-4.2601,-4.2551,-4.1806,-4.1491,-4.1541,-4.217,-4.1657,-4.0514,-4.111,-4.0531,-3.9355,-3.9342,-3.9272,-3.9272,0.0,0.0,0.0,0.0,0.0,0.0,0.0,0.0,0.0,0.0,0.0,0.0,0.0,0.0,0.0,0.0,0.0,0.0,0.0,0.0,-1.7673,-1.8104,-1.9055,-2.0023,-2.0931,-2.1249,-2.1742,-2.251,-2.2774,-2.2954,-2.3009,-2.258,-2.2345,-2.2298,-2.2504,-2.2582,-2.2537,-2.279,-2.2968,-2.3109,-2.291,-2.296,0.0,0.0,0.0,0.0,0.0,0.0,0.0,0.0,-2.231,-2.231,0.0,-2.231,-2.2282,-2.2254,-2.2254,-2.2276,-2.2379,-2.2874,-2.3351,-2.3261,0.0,0.0,0.0,0.0,0.0,0.0,0.0,0.0,0.0,0.0,0.0,0.0,0.0,0.0,0.0,0.0,0.0,0.0,0.0,0.0,0.0,-4.1574,-4.1409,-4.1409,-4.1409,-4.1409,-4.1409,-4.1409,-4.1226,-4.0779,-4.0763,-4.0763,-4.0763,-4.0763,-4.1276,-4.2253,-4.2253,-4.2253,-4.2237,-4.1955,-4.1839,-4.1789,-4.1077,-4.0763,-4.0763,-4.058,-4.0183,-3.9719,-3.9984,-3.9752,-3.9272,-3.9272,-3.9272,-3.9272,0.0,0.0,0.0,0.0,0.0,0.0,0.0,0.0,0.0,0.0,0.0,0.0,0.0,0.0,0.0,0.0,0.0,0.0,0.0,-1.7515,-1.769,-1.817,-1.8856,-1.9691,-2.0622,-2.1183,-2.1792,-2.2537,-2.2537,-2.2483,-2.2347,-2.213,-2.1957,-2.1911,-2.2493,-2.2643,-2.248,-2.2833,-2.2985,-2.296,-2.2773,-2.2799,0.0,0.0,0.0,0.0,0.0,0.0,0.0,0.0,-2.231,-2.231,0.0,0.0,-2.2282,-2.2282,-2.2254,-2.2254,-2.2089,-2.2534,-2.3064,0.0,0.0,0.0,0.0,0.0,0.0,0.0,0.0,0.0,0.0,0.0,0.0,0.0,0.0,0.0,0.0,0.0,0.0,0.0,0.0,0.0,-4.1077,-4.0878,-4.0746,-4.0746,-4.0746,-4.0746,-4.0746,-4.0746,-4.0531,-4.005,-4.0034,-4.0034,-4.0034,-4.0034,-4.0266,-4.0746,-4.0746,-4.0978,-4.1409,-4.1193,-4.1077,-4.1044,-4.0332,-4.0034,-4.0017,-3.9736,-3.962,-3.9603,-3.9371,-3.9272,-3.9272,-3.9272,-3.9272,-3.9272,0.0,0.0,0.0,0.0,0.0,0.0,0.0,0.0,0.0,0.0,0.0,0.0,0.0,0.0,0.0,0.0,0.0,0.0,-1.7515,-1.7515,-1.7515,-1.7515,-1.8153,-1.884,-1.9611,-2.0323,-2.1206,-2.2192,-2.2192,-2.2375,-2.2703,-2.249,-2.2215,-2.1911,-2.2392,-2.2453,-2.2225,-2.2569,-2.2712,-2.2712,-2.2685,-2.2712,-2.2712,0.0,0.0,0.0,0.0,0.0,0.0,0.0,-2.231,-2.231,0.0,0.0,0.0,-2.2214,-2.2214,-2.2214,-2.2214,-2.2214,0.0,0.0,0.0,0.0,0.0,0.0,0.0,0.0,0.0,0.0,0.0,0.0,0.0,0.0,0.0,0.0,0.0,0.0,0.0,0.0,0.0,0.0,-4.0365,-3.9702,-3.9272,-3.9272,-3.9272,-3.9272,-3.9272,-3.9272,-3.9272,-3.9272,-3.9272,-3.9272,-3.9272,-3.9272,-3.9272,-3.9272,-3.9272,-4.0017,-4.1375,-4.068,-4.0365,-4.0332,-3.9587,-3.9272,-3.9338,-4.0067,-4.0365,-4.0299,-3.957,-3.9272,-3.9272,-3.9272,-3.9272,-3.9272,0.0,0.0,0.0,0.0,0.0,0.0,0.0,0.0,0.0,0.0,0.0,0.0,0.0,0.0,0.0,0.0,0.0,0.0,-1.7515,-1.7515,-1.7515,-1.7515,-1.8153,-1.9027,-2.0208,-2.1455,-2.2251,-2.2554,-2.2392,-2.249,-2.2747,-2.2309,-2.2118,-2.2123,-2.2453,-2.248,-2.2282,-2.2579,-2.2712,-2.2685,-2.2487,-2.2542,-2.2685,0.0,0.0,0.0,0.0,0.0,0.0,0.0,0.0,0.0,0.0,0.0,0.0,-2.2214,-2.2214,-2.2168,-2.2089,0.0,0.0,0.0,0.0,0.0,0.0,0.0,0.0,0.0,0.0,0.0,0.0,0.0,0.0,0.0,0.0,0.0,0.0,0.0,0.0,0.0,0.0,-3.9603,-3.9603,-3.9404,-3.9272,-3.9272,-3.9272,-3.9272,-3.9272,-3.9272,-3.9272,-3.9272,-3.9272,-3.9272,-3.9272,-3.9272,-3.9272,-3.9272,-3.9272,-3.9504,-3.9901,-3.9702,-3.9603,-3.9587,-3.9371,-3.9272,-3.9342,-3.952,-3.9603,-3.957,-3.9408,-3.9272,-3.9272,-3.9272,-3.9272,-3.9272,0.0,0.0,0.0,0.0,0.0,0.0,0.0,0.0,0.0,0.0,0.0,0.0,0.0,0.0,0.0,0.0,0.0,0.0,0.0,0.0,-1.7498,-1.7515,-1.7896,-1.8767,-2.0142,-2.1651,-2.249,-2.2615,-2.2326,-2.2409,-2.2825,-2.2315,-2.2106,-2.2214,-2.2388,-2.2415,-2.231,-2.246,-2.2542,-2.2542,-2.2366,-2.2394,-2.2525,0.0,0.0,0.0,0.0,0.0,0.0,0.0,0.0,0.0,0.0,0.0,0.0,-2.2152,-2.2106,-2.2049,-2.1986,0.0,0.0,0.0,0.0,0.0,0.0,0.0,0.0,0.0,0.0,0.0,0.0,0.0,0.0,0.0,0.0,0.0,0.0,0.0,0.0,0.0,0.0,-3.8742,-3.8444,-3.8676,-3.8725,-3.8444,-3.8411,-3.8543,-3.8841,-3.8858,-3.899,-3.9309,-3.9272,-3.9272,-3.9272,-3.9272,-3.9272,-3.9272,-3.9272,-3.9272,-3.9272,-3.9272,-3.9272,-3.9272,-3.9272,-3.9272,-3.9272,-3.9272,-3.9272,-3.9272,-3.9272,-3.9272,-3.9272,-3.9272,-3.9272,-3.9272,0.0,0.0,0.0,0.0,0.0,0.0,0.0,0.0,0.0,0.0,0.0,0.0,0.0,0.0,0.0,0.0,0.0,0.0,0.0,0.0,-1.7489,-1.7498,-1.7669,-1.841,-1.9784,-2.1278,-2.2215,-2.2525,-2.213,-2.2254,-2.2841,-2.2432,-2.2214,-2.2214,-2.2282,-2.231,-2.231,-2.231,-2.231,-2.231,-2.231,-2.231,-2.231,-2.231,0.0,0.0,0.0,0.0,0.0,0.0,0.0,0.0,-2.231,-2.2254,-2.2168,-2.2044,-2.194,-2.1899,0.0,0.0,0.0,0.0,0.0,0.0,0.0,0.0,0.0,0.0,0.0,0.0,0.0,0.0,0.0,0.0,0.0,0.0,0.0,0.0,0.0,0.0,-3.8112,-3.7847,-3.7168,-3.7715,-3.7831,-3.7152,-3.7102,-3.74,-3.8079,-3.8112,-3.8444,-3.9156,-3.9106,-3.9106,-3.9172,-3.9106,-3.9106,-3.9172,-3.9106,-3.9139,-3.9272,-3.9272,-3.9272,-3.9272,-3.9272,-3.9272,-3.9272,-3.9272,-3.9272,-3.9272,-3.9272,-3.9272,-3.9272,-3.9272,-3.9272,-3.9272,0.0,0.0,0.0,0.0,0.0,0.0,0.0,0.0,0.0,0.0,0.0,0.0,0.0,0.0,0.0,0.0,0.0,0.0,0.0,0.0,-1.7536,-1.7582,-1.8951,-2.0018,-2.0726,-2.182,-2.2544,-2.2815,-2.2371,-2.2321,-2.2659,-2.2405,-2.2282,-2.2282,-2.2282,-2.231,-2.231,-2.231,-2.231,-2.231,-2.231,-2.231,-2.231,-2.231,-2.231,0.0,0.0,0.0,0.0,0.0,0.0,0.0,-2.231,-2.2254,-2.2168,-2.2044,-2.194,-2.1899,0.0,0.0,0.0,0.0,0.0,0.0,0.0,0.0,0.0,0.0,0.0,0.0,0.0,0.0,0.0,0.0,0.0,0.0,0.0,0.0,0.0,0.0,-3.735,-3.7284,-3.7119,-3.7251,-3.7284,-3.7119,-3.7102,-3.7168,-3.7334,-3.735,-3.7682,-3.8411,-3.788,-3.7847,-3.8444,-3.7864,-3.7864,-3.8427,-3.7847,-3.8179,-3.9272,-3.9272,-3.9272,-3.9272,-3.9272,-3.9272,-3.9272,-3.9272,-3.9272,-3.9272,-3.9272,-3.9272,-3.9272,-3.9272,-3.9272,-3.9272,0.0,0.0,0.0,0.0,0.0,0.0,0.0,0.0,0.0,0.0,0.0,0.0,0.0,0.0,0.0,0.0,0.0,0.0,0.0,0.0,0.0,-1.8178,-1.9459,-2.0441,-2.1015,-2.1949,-2.2453,-2.259,-2.236,0.0,0.0,0.0,0.0,-2.231,0.0,-2.231,-2.231,-2.231,-2.231,-2.231,-2.231,-2.231,-2.231,-2.231,-2.231,-2.2282,-2.2254,0.0,0.0,0.0,0.0,0.0,0.0,0.0,-2.2061,-2.1986,-2.1882,-2.184,0.0,0.0,0.0,0.0,0.0,0.0,0.0,0.0,0.0,0.0,0.0,0.0,0.0,0.0,0.0,0.0,0.0,0.0,0.0,0.0,0.0,-3.6141,-3.6357,-3.6307,-3.5595,-3.6158,-3.6439,-3.6075,-3.5727,-3.5678,-3.6025,-3.6059,-3.639,-3.7119,-3.7119,-3.7284,-3.7682,-3.7301,-3.7301,-3.7682,-3.7284,-3.75,-3.8245,-3.8609,-3.8576,-3.8245,-3.8245,-3.8245,-3.8245,-3.8245,-3.8444,-3.8758,-3.8758,-3.8974,-3.9272,-3.9272,-3.9272,-3.9272,0.0,0.0,0.0,0.0,0.0,0.0,0.0,0.0,0.0,0.0,0.0,0.0,0.0,0.0,0.0,0.0,0.0,0.0,0.0,0.0,0.0,-1.8966,-1.9647,-2.0415,-2.1282,-2.1961,-2.2338,-2.2366,0.0,0.0,0.0,0.0,0.0,-2.231,0.0,-2.231,-2.231,-2.231,-2.231,-2.231,-2.231,-2.2282,-2.2282,-2.2282,-2.2282,-2.2237,-2.2197,-2.218,-2.2237,-2.2073,0.0,0.0,0.0,0.0,-2.1969,-2.1928,-2.184,-2.1797,0.0,0.0,0.0,0.0,0.0,0.0,0.0,0.0,0.0,0.0,0.0,0.0,0.0,0.0,0.0,0.0,0.0,0.0,0.0,0.0,0.0,-3.4618,-3.5048,-3.4949,-3.3723,-3.47,-3.5181,-3.4568,-3.3938,-3.3872,-3.4485,-3.4518,-3.4916,-3.5777,-3.6158,-3.6456,-3.6721,-3.6473,-3.6406,-3.6539,-3.6671,-3.6589,-3.6373,-3.7102,-3.7334,-3.7102,-3.7102,-3.7102,-3.7102,-3.7102,-3.7466,-3.803,-3.803,-3.846,-3.9073,-3.8957,-3.9056,-3.9239,0.0,0.0,0.0,0.0,0.0,0.0,0.0,0.0,0.0,0.0,0.0,0.0,0.0,0.0,0.0,0.0,0.0,0.0,-1.7687,0.0,0.0,-1.9782,-1.9951,-2.0677,-2.2113,-2.2231,-2.2405,-2.2632,0.0,0.0,0.0,0.0,0.0,-2.231,0.0,0.0,-2.231,-2.231,-2.231,-2.231,-2.231,-2.2271,-2.2197,-2.2197,-2.2135,-2.2027,-2.2027,-2.2027,-2.2027,-2.2027,-2.2027,0.0,0.0,0.0,-2.1911,-2.1882,-2.184,0.0,0.0,0.0,0.0,0.0,0.0,0.0,0.0,0.0,0.0,0.0,0.0,0.0,0.0,0.0,0.0,0.0,0.0,0.0,0.0,0.0,0.0,-3.3143,-3.3061,-3.3044,-3.2862,-3.3011,-3.3077,-3.2994,-3.2895,-3.2878,-3.2978,-3.2978,-3.3607,-3.4998,-3.3889,-3.3889,-3.5181,-3.3922,-3.3607,-3.4237,-3.4883,-3.4518,-3.3292,-3.4038,-3.5379,-3.7102,-3.7102,-3.7102,-3.7102,-3.7102,-3.7168,-3.7251,-3.7251,-3.7698,-3.8278,-3.7632,-3.8195,-3.909,0.0,0.0,0.0,0.0,0.0,0.0,0.0,0.0,0.0,0.0,0.0,0.0,0.0,0.0,0.0,-1.7641,-1.7658,-1.7681,-1.7749,-1.816,-1.8894,-1.9951,-2.0433,-2.1177,-2.2293,-2.231,-2.2366,0.0,0.0,0.0,0.0,-2.2366,-2.231,0.0,0.0,0.0,0.0,0.0,-2.2282,-2.2225,-2.2225,-2.218,-2.2106,-2.2106,-2.2044,-2.1998,-2.1969,-2.1969,-2.1998,-2.1911,-2.194,-2.1998,-2.1911,0.0,0.0,0.0,0.0,0.0,0.0,0.0,0.0,0.0,0.0,0.0,0.0,0.0,0.0,0.0,0.0,0.0,0.0,0.0,0.0,0.0,0.0,0.0,0.0,0.0,0.0,-3.2216,-3.2448,-3.2531,-3.2133,-3.2448,-3.268,-3.268,-3.2315,-3.2083,-3.2083,-3.2083,-3.2381,-3.3044,-3.2812,-3.2994,-3.3657,-3.3011,-3.2845,-3.3176,-3.3508,-3.3326,-3.2696,-3.3027,-3.3938,-3.5247,-3.5247,-3.5479,-3.5876,-3.5876,-3.6108,-3.6489,-3.6489,-3.6936,-3.7549,-3.7235,-3.7516,-3.7963,0.0,0.0,0.0,0.0,0.0,0.0,0.0,0.0,0.0,0.0,0.0,0.0,0.0,0.0,0.0,0.0,-1.7726,-1.7833,-1.8065,-1.8775,-1.9519,-2.0281,-2.0873,-2.1532,-2.2293,-2.231,0.0,0.0,0.0,0.0,-2.231,-2.2496,-2.2496,0.0,-2.2868,0.0,0.0,0.0,0.0,0.0,0.0,0.0,0.0,-2.1969,-2.1969,-2.194,-2.1882,-2.1928,-2.194,-2.184,-2.1869,-2.194,-2.184,-2.184,0.0,0.0,0.0,0.0,0.0,0.0,0.0,0.0,0.0,0.0,0.0,0.0,0.0,0.0,0.0,0.0,0.0,0.0,0.0,0.0,0.0,0.0,0.0,0.0,0.0,-3.1139,-3.1371,-3.1388,-3.0858,-3.1272,-3.1586,-3.1586,-3.1106,-3.0808,-3.0808,-3.0808,-3.0874,-3.1056,-3.1404,-3.1669,-3.1851,-3.1669,-3.1586,-3.1586,-3.1586,-3.1686,-3.1851,-3.1851,-3.2365,-3.3259,-3.3624,-3.422,-3.4899,-3.4899,-3.5214,-3.5727,-3.5727,-3.6174,-3.6804,-3.6622,-3.6787,-3.7052,0.0,0.0,0.0,0.0,0.0,0.0,0.0,0.0,0.0,0.0,0.0,0.0,0.0,-1.7612,-1.7658,-1.7789,-1.7789,-1.8099,-1.8792,-1.9536,-2.0314,-2.1119,-2.1187,0.0,-2.2293,-2.231,0.0,0.0,0.0,0.0,-2.2327,-2.3021,-2.297,-2.231,-2.2344,-2.2344,-2.2282,0.0,0.0,0.0,0.0,0.0,0.0,0.0,0.0,0.0,0.0,0.0,-2.1811,-2.1797,-2.1781,-2.1811,-2.1797,-2.1797,-2.1781,0.0,0.0,0.0,0.0,0.0,0.0,0.0,0.0,0.0,0.0,0.0,0.0,0.0,0.0,0.0,0.0,0.0,0.0,0.0,0.0,0.0,0.0,0.0,0.0,-2.9615,-2.8986,-2.8627,-2.8555,-2.8588,-2.8644,-2.8644,-2.8611,-2.8555,-2.8555,-2.8555,-2.8853,-2.9499,-2.8936,-2.892,-2.9582,-2.8936,-2.8644,-2.8644,-2.8644,-2.8953,-2.9582,-2.9582,-3.0377,-3.1818,-3.3193,-3.422,-3.4899,-3.4899,-3.4916,-3.4965,-3.4965,-3.5413,-3.5976,-3.5263,-3.5909,-3.6903,0.0,0.0,0.0,0.0,0.0,0.0,0.0,0.0,0.0,0.0,0.0,0.0,0.0,-1.9035,-1.9085,-1.9134,-1.9183,-1.9309,-1.9579,-2.0348,-2.0889,-2.1204,-2.1651,-2.204,-2.231,-2.231,0.0,0.0,0.0,-2.231,-2.231,-2.2581,-2.2564,-2.2327,-2.2801,-2.275,-2.2282,-2.2242,0.0,0.0,0.0,0.0,0.0,0.0,0.0,0.0,0.0,0.0,0.0,-2.1797,-2.1797,-2.1797,-2.1797,-2.1797,-2.1797,0.0,0.0,0.0,0.0,0.0,0.0,0.0,0.0,0.0,0.0,0.0,0.0,0.0,0.0,0.0,0.0,0.0,0.0,0.0,0.0,0.0,0.0,0.0,0.0,-2.8787,-2.8539,-2.8412,-2.8412,-2.8412,-2.8412,-2.8412,-2.8412,-2.8412,-2.8412,-2.8412,-2.8489,-2.8738,-2.8506,-2.8506,-2.8754,-2.8506,-2.8412,-2.8428,-2.8837,-2.9168,-2.9433,-2.9897,-3.0634,-3.1609,-3.2183,-3.2812,-3.3557,-3.4502,-3.4618,-3.4237,-3.4717,-3.5048,-3.5263,-3.4998,-3.523,-3.5611,0.0,0.0,0.0,0.0,0.0,0.0,0.0,0.0,0.0,0.0,0.0,0.0,0.0,0.0,-1.9848,-1.9891,-2.017,-2.0347,-2.0416,-2.1126,-2.1566,-2.1566,-2.204,-2.231,-2.231,-2.231,0.0,0.0,0.0,0.0,0.0,-2.231,-2.231,-2.2327,-2.2789,-2.2738,0.0,0.0,0.0,-2.1969,0.0,0.0,-2.1797,0.0,0.0,0.0,0.0,0.0,0.0,0.0,0.0,0.0,0.0,0.0,0.0,0.0,0.0,0.0,0.0,0.0,0.0,0.0,0.0,0.0,0.0,0.0,0.0,0.0,0.0,0.0,0.0,0.0,0.0,0.0,0.0,0.0,0.0,0.0,0.0,-2.7313,-2.7065,-2.6899,-2.6899,-2.6899,-2.6899,-2.6899,-2.7131,0.0,-2.7114,-2.7437,-2.7644,-2.7644,-2.7644,-2.7644,-2.7644,-2.7644,-2.7644,-2.7661,-2.8357,-2.882,-2.9085,-2.9814,-3.0543,-3.1212,-3.1477,-3.2034,-3.2762,-3.3756,-3.3856,-3.3475,-3.3955,-3.4154,-3.4187,-3.4435,-3.4369,-3.422,0.0,0.0,0.0,0.0,0.0,0.0,0.0,0.0,0.0,0.0,0.0,0.0,0.0,0.0,0.0,-1.9941,-2.0622,-2.108,-2.1211,-2.1904,-2.2282,-2.2282,-2.2282,-2.2282,-2.2282,-2.231,-2.231,0.0,0.0,0.0,0.0,0.0,-2.231,-2.2282,-2.2242,-2.2214,-2.2168,0.0,-2.1969,-2.1882,0.0,-2.1797,-2.1797,0.0,0.0,0.0,-2.1797,-2.1797,0.0,0.0,0.0,0.0,0.0,0.0,0.0,0.0,0.0,0.0,0.0,0.0,0.0,0.0,0.0,0.0,0.0,0.0,0.0,0.0,0.0,0.0,0.0,0.0,0.0,0.0,0.0,0.0,0.0,0.0,0.0,-2.516,-2.4448,-2.4,-2.4,-2.4,-2.4,-2.4,-2.4663,-2.4888,-2.4535,-2.5576,-2.622,-2.622,-2.622,-2.622,-2.622,-2.622,-2.622,-2.622,-2.6932,-2.7682,-2.8373,-2.9085,-2.9798,-3.0526,-3.1229,-3.1984,-3.263,-3.2663,-3.268,-3.2646,-3.268,-3.268,-3.2779,-3.3491,-3.3292,-3.2895,0.0,0.0,0.0,0.0,0.0,0.0,0.0,0.0,0.0,0.0,0.0,0.0,0.0,0.0,-2.1311,-2.1424,-2.1608,-2.1754,-2.177,-2.1955,-2.2073,-2.2073,-2.218,-2.2242,-2.2242,-2.2282,-2.231,-2.231,0.0,0.0,0.0,0.0,0.0,0.0,-2.2214,-2.2123,-2.1974,-2.1957,0.0,0.0,-2.1827,-2.1797,0.0,0.0,0.0,0.0,0.0,-2.1797,-2.1797,0.0,-2.1797,-2.1797,0.0,0.0,0.0,0.0,0.0,0.0,-2.1797,0.0,0.0,0.0,0.0,0.0,0.0,0.0,0.0,0.0,0.0,0.0,0.0,0.0,0.0,0.0,0.0,0.0,0.0,0.0,0.0,-2.4332,-2.4116,-2.4,-2.4,-2.4,-2.4,0.0,-2.4199,-2.4497,-2.4923,-2.5735,-2.622,-2.622,-2.622,-2.622,-2.622,-2.622,-2.622,-2.622,-2.6932,-2.7417,-2.7665,-2.8853,-2.9516,-2.9764,-3.0493,-3.094,-3.1205,-3.2249,-3.2381,-3.1967,-3.2481,-3.268,-3.2713,-3.2911,-3.2862,-3.2746,0.0,0.0,0.0,0.0,0.0,0.0,0.0,0.0,0.0,0.0,0.0,0.0,0.0,0.0,-2.1899,-2.194,-2.1969,-2.1969,-2.1998,-2.1998,-2.2027,-2.2089,-2.2168,-2.2197,-2.2225,-2.2282,-2.231,-2.231,0.0,0.0,0.0,0.0,0.0,0.0,0.0,0.0,0.0,0.0,0.0,0.0,-2.1827,0.0,0.0,-2.1797,-2.1797,0.0,0.0,0.0,-2.1751,-2.1479,-2.1495,0.0,0.0,0.0,0.0,0.0,0.0,0.0,0.0,0.0,0.0,0.0,0.0,0.0,-2.1797,-2.1797,-2.1797,0.0,0.0,0.0,0.0,0.0,0.0,0.0,0.0,0.0,0.0,0.0,0.0,-2.3123,-2.3073,-2.3073,-2.3073,-2.3073,-2.3073,-2.3073,-2.3371,-2.3786,-2.4377,-2.5116,-2.551,-2.5527,-2.579,-2.599,-2.622,-2.599,-2.599,-2.622,-2.6932,-2.7317,-2.735,-2.8456,-2.9135,-2.9417,-2.9566,-2.9963,-3.0543,-3.0791,-3.1007,-3.1205,-3.162,-3.1785,-3.1818,-3.2133,-3.205,-3.1868,0.0,0.0,0.0,0.0,0.0,0.0,0.0,0.0,0.0,0.0,0.0,0.0,0.0,0.0,0.0,0.0,-2.1899,-2.1911,-2.1969,-2.1969,0.0,-2.214,-2.2168,-2.2197,-2.2237,-2.2265,-2.2265,-2.2265,0.0,0.0,0.0,0.0,0.0,0.0,0.0,0.0,0.0,0.0,0.0,-2.1797,-2.1797,-2.1797,0.0,0.0,-2.1721,0.0,-2.1371,-2.1433,-2.1601,-2.1007,-2.099,0.0,0.0,0.0,0.0,0.0,-2.1797,0.0,0.0,0.0,0.0,0.0,0.0,0.0,-2.1797,-2.1797,-2.1797,-2.1797,0.0,0.0,0.0,0.0,0.0,0.0,0.0,0.0,0.0,0.0,0.0,-2.1864,-2.1797,-2.1797,-2.1797,-2.1768,-2.1721,-2.1721,-2.2415,-2.3013,-2.3353,-2.4051,-2.4525,-2.4658,-2.5192,-2.5693,-2.622,-2.5775,-2.5775,-2.622,-2.6849,-2.7201,-2.7218,-2.7964,-2.8588,-2.9152,-2.8605,-2.9102,-3.0179,-2.8903,-2.9168,-3.0394,-3.0394,-3.0394,-3.0493,-3.1196,-3.1047,-3.0709,0.0,0.0,0.0,0.0,0.0,0.0,0.0,0.0,0.0,0.0,0.0,0.0,0.0,0.0,0.0,0.0,-2.1811,-2.1827,-2.184,-2.184,0.0,-2.1886,-2.1945,-2.1957,-2.1986,-2.2044,-2.2073,-2.2073,0.0,0.0,0.0,0.0,0.0,0.0,0.0,0.0,0.0,0.0,0.0,-2.1797,-2.1797,0.0,-2.1768,-2.1495,-2.1402,-2.134,-2.1023,-2.0958,-2.099,0.0,-2.0827,-2.0958,0.0,0.0,0.0,0.0,0.0,0.0,0.0,0.0,0.0,0.0,0.0,0.0,-2.1797,-2.1797,-2.1797,0.0,0.0,0.0,0.0,0.0,0.0,0.0,0.0,0.0,0.0,0.0,0.0,0.0,-2.1797,-2.1797,-2.1797,-2.1556,-2.1402,-2.1402,-2.2085,-2.2541,-2.2622,-2.3572,-2.438,-2.4974,-2.5122,-2.552,-2.6203,-2.6115,-2.6115,-2.622,-2.6352,-2.6419,-2.6452,-2.7164,-2.7599,-2.7765,-2.8174,-2.8578,-2.8771,-2.8489,-2.887,-2.9632,-2.9632,-2.9632,-2.9715,-3.046,-3.06,-3.0559,0.0,0.0,0.0,0.0,0.0,0.0,0.0,0.0,0.0,0.0,0.0,0.0,0.0,0.0,0.0,0.0,0.0,0.0,0.0,0.0,0.0,0.0,-2.1899,-2.1928,-2.194,-2.1998,-2.1998,-2.1998,0.0,0.0,0.0,0.0,0.0,0.0,0.0,0.0,0.0,0.0,-2.1797,-2.1797,-2.1797,0.0,-2.1526,-2.1371,-2.1183,-2.099,-2.063,-2.0395,-2.0308,-2.0695,-2.0794,0.0,0.0,-2.1151,-2.134,0.0,-2.1556,-2.1587,0.0,0.0,0.0,-2.1797,0.0,0.0,0.0,-2.1797,-2.1797,-2.1797,0.0,0.0,0.0,0.0,0.0,0.0,0.0,0.0,0.0,0.0,0.0,0.0,-2.1648,-2.1617,-2.1781,-2.1495,-2.1371,-2.1556,-2.1585,-2.16,-2.16,-2.2424,-2.3007,-2.3189,-2.3843,-2.4462,-2.507,-2.5201,-2.5339,-2.5551,-2.5754,-2.5848,-2.5864,-2.6495,-2.6932,-2.7317,-2.7296,-2.7711,-2.8323,-2.7595,-2.7711,-2.8423,-2.9135,-2.9417,-2.9499,-3.0245,-3.0526,-3.0526,0.0,0.0,0.0,0.0,0.0,0.0,0.0,0.0,0.0,0.0,0.0,0.0,0.0,0.0,0.0,0.0,0.0,0.0,0.0,0.0,0.0,0.0,-2.1899,-2.1928,-2.1969,-2.1969,-2.1969,-2.1969,0.0,0.0,0.0,0.0,0.0,0.0,0.0,0.0,0.0,0.0,0.0,-2.1601,0.0,-2.1509,-2.1371,-2.1246,-2.1023,-2.0761,-2.0292,-1.9909,-1.9782,-2.0376,0.0,-2.0679,-2.0679,-2.0909,0.0,0.0,0.0,0.0,0.0,0.0,0.0,0.0,0.0,-2.1601,0.0,0.0,0.0,-2.1601,0.0,0.0,0.0,0.0,0.0,0.0,0.0,0.0,0.0,0.0,0.0,0.0,-2.1495,-2.1464,-2.1678,-2.1464,-2.134,-2.1493,-2.1071,-2.0761,-2.0679,-2.1266,-2.1579,-2.151,-2.2549,-2.3441,-2.4138,-2.4328,-2.4689,-2.5153,-2.5481,-2.5631,-2.5631,-2.6043,-2.6518,-2.7031,-2.6468,-2.6882,-2.7876,-2.67,-2.6551,-2.7197,-2.8489,-2.9003,-2.9102,-2.998,-3.0311,-3.0328,-1.931,-2.0075,0.0,0.0,0.0,0.0,0.0,0.0,0.0,0.0,0.0,0.0,0.0,0.0,0.0,0.0,0.0,0.0,-2.1165,0.0,0.0,0.0,0.0,-2.1811,-2.1811,-2.1811,-2.1811,-2.1811,0.0,0.0,0.0,0.0,0.0,0.0,-2.1678,0.0,0.0,0.0,-2.1071,0.0,-2.0909,-2.1261,0.0,-2.1071,-2.0827,-2.0695,-1.9995,-1.9711,-1.9711,0.0,-2.0015,-2.0277,0.0,-2.053,-2.086,0.0,0.0,0.0,0.0,0.0,0.0,0.0,-2.1151,0.0,0.0,0.0,-2.0909,-2.0909,0.0,0.0,0.0,0.0,0.0,0.0,0.0,0.0,0.0,0.0,0.0,-2.0958,-2.1386,-2.1631,-2.1371,-2.1309,-2.1039,-2.0447,-2.0646,-2.0646,-2.0292,-2.0691,-2.1307,-2.2263,-2.2424,-2.3305,-2.4939,-2.5003,-2.5365,-2.6043,-2.6096,-2.6132,-2.6132,-2.6184,-2.6253,-2.6336,-2.6253,-2.6319,-2.6452,-2.6286,-2.627,-2.6419,-2.7214,-2.7549,-2.7677,-2.9036,-2.9533,-2.9632,0.0,0.0,0.0,0.0,0.0,0.0,0.0,0.0,0.0,0.0,0.0,0.0,0.0,0.0,0.0,0.0,0.0,-2.1102,0.0,0.0,0.0,0.0,0.0,0.0,0.0,0.0,0.0,0.0,-2.1797,0.0,0.0,0.0,0.0,0.0,-2.1371,0.0,-2.0794,0.0,0.0,0.0,0.0,0.0,0.0,-2.063,-2.0308,-2.0045,-1.9741,-1.9596,-1.9523,0.0,-1.9782,0.0,0.0,0.0,0.0,0.0,0.0,0.0,0.0,0.0,0.0,0.0,0.0,0.0,-2.0794,0.0,-2.0794,0.0,0.0,0.0,0.0,0.0,0.0,0.0,-2.1083,0.0,0.0,0.0,0.0,0.0,0.0,0.0,-2.1055,-2.1023,-2.0877,-2.0563,-2.0496,-2.0462,-2.053,-2.0308,-2.0466,-2.1106,-2.1697,-2.2378,-2.3105,-2.3873,-2.4382,-2.4704,-2.4974,-2.5107,-2.5091,-2.5589,-2.5811,-2.5811,-2.6079,-2.622,-2.622,-2.622,-2.622,-2.6236,-2.6535,-2.6899,-2.7483,-2.8887,-2.9417,-2.9516,0.0,0.0,0.0,0.0,0.0,0.0,0.0,0.0,0.0,0.0,0.0,0.0,-2.1797,-2.1842,0.0,0.0,0.0,-2.0905,0.0,0.0,-2.0943,-2.1432,-2.1462,0.0,0.0,0.0,0.0,0.0,0.0,0.0,0.0,0.0,0.0,0.0,0.0,-2.0844,-2.0512,0.0,0.0,-2.046,-2.046,-2.0376,-2.0258,-2.0174,-1.9889,-1.9538,-1.9538,-1.9501,-1.9413,-1.9413,-1.969,0.0,-1.956,0.0,0.0,0.0,0.0,0.0,-2.0462,0.0,0.0,0.0,0.0,0.0,0.0,0.0,0.0,0.0,0.0,0.0,0.0,0.0,0.0,0.0,0.0,-2.0953,0.0,0.0,0.0,0.0,0.0,0.0,0.0,-2.099,-2.0893,-2.0794,-2.0429,-2.0292,-2.0478,-1.9995,-1.9839,-2.0174,-2.1027,-2.169,-2.2194,-2.3209,-2.3912,-2.4338,-2.4639,-2.4831,-2.4815,-2.5422,-2.5684,-2.5721,-2.6043,-2.622,-2.6168,-2.6079,-2.599,-2.599,-2.5881,-2.6229,-2.6986,-2.8318,-2.8953,-2.9234,-2.0309,-2.0926,0.0,0.0,0.0,0.0,0.0,0.0,0.0,0.0,0.0,0.0,0.0,0.0,0.0,0.0,0.0,-2.0466,-1.9869,0.0,-2.0054,0.0,-2.0581,-2.063,0.0,0.0,0.0,0.0,0.0,0.0,0.0,0.0,0.0,0.0,0.0,-2.017,-1.9726,-1.9726,-1.9705,-1.9647,-1.9647,-1.9574,-1.9472,0.0,-1.9717,-1.9413,-1.9413,0.0,0.0,-1.9413,-1.9624,-1.9829,-1.9508,0.0,0.0,0.0,0.0,0.0,0.0,0.0,0.0,-2.0045,0.0,0.0,0.0,0.0,-1.9726,0.0,0.0,0.0,0.0,0.0,0.0,0.0,0.0,0.0,0.0,0.0,0.0,0.0,0.0,0.0,0.0,-2.1464,-2.1151,-2.0827,-2.0429,-2.007,-1.9747,-1.9711,-1.9839,-2.0174,-2.0626,-2.1674,-2.3414,-2.3785,-2.4711,-2.6132,-2.6132,-2.6132,-2.6132,-2.6168,-2.6184,-2.6168,-2.6168,-2.622,-2.6168,-2.5721,-2.554,-2.5465,-2.5098,-2.5176,-2.5707,-2.692,-2.7831,-2.8506,0.0,0.0,0.0,0.0,0.0,0.0,0.0,-2.137,0.0,0.0,0.0,0.0,0.0,0.0,-2.1848,0.0,0.0,-2.0444,-1.9833,-1.9788,0.0,0.0,0.0,-2.0514,0.0,0.0,0.0,0.0,0.0,0.0,0.0,0.0,0.0,0.0,0.0,-2.003,0.0,0.0,0.0,0.0,0.0,-1.9376,-1.9339,0.0,-1.9472,-1.9339,-1.9339,-1.9302,-1.9176,-1.9176,-1.9362,-1.9457,-1.9288,-1.9347,-1.953,-1.9376,-1.9376,-1.9413,-1.953,-1.9472,-1.945,-1.9596,0.0,0.0,0.0,0.0,0.0,0.0,0.0,0.0,0.0,0.0,0.0,0.0,0.0,0.0,0.0,0.0,0.0,0.0,0.0,0.0,0.0,0.0,-1.9842,-1.9679,-1.998,-2.0139,-2.005,-1.9818,-1.9839,-2.0174,-2.0543,-2.1054,-2.163,-2.2189,-2.2947,-2.3864,-2.3864,-2.4082,-2.4502,-2.4799,-2.4934,-2.495,-2.5246,-2.5362,-2.5307,-2.5176,-2.5275,-2.5503,-2.5351,-2.5572,-2.6036,-2.6613,-2.7207,-2.7864,-1.9515,0.0,0.0,0.0,0.0,0.0,0.0,0.0,0.0,0.0,-2.1662,0.0,-2.235,0.0,-2.1744,0.0,-2.0557,-2.0213,-1.9596,-1.9551,0.0,-2.0,-2.0035,0.0,0.0,0.0,0.0,0.0,0.0,-2.0273,0.0,0.0,0.0,0.0,0.0,0.0,0.0,0.0,-1.9465,0.0,0.0,-1.9228,0.0,0.0,-1.9265,-1.9228,0.0,-1.9176,-1.9101,-1.9101,-1.9139,-1.9213,-1.9139,-1.9176,-1.9302,-1.9228,-1.9265,-1.9302,-1.9302,-1.9302,-1.9302,-1.9339,-1.9339,0.0,-1.9501,0.0,-1.9538,0.0,0.0,0.0,0.0,0.0,0.0,0.0,0.0,0.0,0.0,-1.9007,0.0,0.0,0.0,0.0,0.0,0.0,-1.916,-1.9127,-1.9703,-2.0015,-2.0015,-1.9818,-1.9782,-2.0015,-2.0349,-2.0639,-2.0903,-2.1721,-2.2415,-2.3127,-2.3371,-2.3692,-2.409,-2.4369,-2.4599,-2.4759,-2.502,-2.5121,-2.5082,-2.4981,-2.4981,-2.5059,-2.4871,-2.5098,-2.5594,-2.6037,-2.6733,-2.7569,0.0,0.0,0.0,0.0,-2.115,0.0,0.0,0.0,-2.1526,0.0,-2.1951,-2.2384,-2.2415,-2.2017,-2.1458,-2.076,-2.0347,0.0,-1.9145,-1.9101,0.0,0.0,-1.9213,-1.9302,-1.9302,0.0,0.0,0.0,0.0,0.0,0.0,0.0,0.0,0.0,-1.9647,0.0,-1.9574,-1.9465,-1.9339,-1.9302,-1.9139,-1.9101,-1.9101,-1.9101,-1.9101,-1.9101,-1.9101,-1.9101,-1.9101,-1.9101,-1.9101,-1.9101,-1.9101,-1.9101,-1.9101,-1.9101,-1.9101,-1.9101,-1.9101,-1.9176,-1.9302,-1.9302,-1.9339,-1.9376,0.0,0.0,-1.9413,0.0,0.0,0.0,0.0,0.0,0.0,0.0,0.0,0.0,0.0,0.0,0.0,0.0,0.0,0.0,0.0,-1.9092,-1.9113,-1.9162,-1.9481,0.0,0.0,-1.969,-1.969,-1.969,-2.0015,-2.0516,-2.1214,-2.2175,-2.3012,-2.379,-2.4453,-2.476,-2.4823,-2.4823,-2.5044,-2.5427,-2.5427,-2.5427,-2.5373,-2.4973,-2.4592,-2.4214,-2.3764,-2.3879,-2.4385,-2.516,-2.6377,-2.7599,-1.9101,-1.9384,-1.9645,0.0,-2.0054,-2.0177,0.0,0.0,0.0,0.0,-2.1736,-2.2271,-2.2715,-2.2261,-2.1662,-2.0988,-2.0429,0.0,0.0,0.0,0.0,-1.9101,-1.9139,-1.9139,-1.9139,-1.9302,0.0,-1.9465,0.0,0.0,-1.969,0.0,0.0,0.0,0.0,0.0,-1.9376,-1.9339,-1.9265,-1.9139,-1.9101,-1.9101,-1.9101,0.0,-1.9101,-1.9101,-1.9101,-1.9101,-1.9101,-1.9101,-1.9101,-1.9101,-1.9101,-1.9101,-1.9101,-1.9101,-1.9101,-1.9101,-1.9101,-1.9139,-1.9139,-1.9139,-1.9139,-1.9176,-1.9302,-1.9339,0.0,0.0,0.0,0.0,0.0,0.0,0.0,0.0,0.0,0.0,0.0,0.0,0.0,-1.8247,0.0,0.0,0.0,-1.7761,-1.8197,-1.8453,-1.9239,0.0,0.0,0.0,-1.969,-1.969,-1.9782,-1.9929,-2.011,-2.0385,-2.109,-2.2276,-2.2443,-2.3036,-2.3921,-2.3921,-2.4006,-2.4074,-2.4074,-2.4074,-2.4028,-2.3503,-2.3386,-2.3557,-2.3421,-2.3759,-2.4343,-2.4863,-2.5477,-2.6134,-1.9101,0.0,0.0,-1.925,0.0,0.0,-1.9983,0.0,0.0,-2.1111,-2.1873,0.0,-2.2106,-2.2033,-2.1728,-2.1061,-2.0683,0.0,-1.9957,0.0,0.0,-1.9551,-1.9537,-1.9406,-1.9116,-1.9228,0.0,-1.9376,0.0,0.0,-1.9581,0.0,0.0,0.0,0.0,-1.9413,0.0,-1.9228,-1.9176,-1.9101,-1.9101,-1.9101,0.0,-1.9101,-1.9101,-1.9101,-1.9101,-1.9101,-1.9101,-1.9101,-1.9101,-1.9101,-1.9101,-1.9101,-1.9101,-1.9101,-1.9101,-1.9101,-1.9101,-1.9101,-1.9101,-1.9101,-1.9101,-1.9101,-1.9176,-1.9213,-1.9213,-1.9265,-1.9265,-1.9265,-1.9265,0.0,0.0,0.0,0.0,0.0,0.0,0.0,0.0,0.0,-1.8298,0.0,0.0,-1.7638,-1.8095,-1.8002,-1.9045,0.0,0.0,0.0,-1.969,-1.969,-1.9974,-1.9989,-1.969,-2.0273,-2.0946,-2.1695,-2.1994,-2.2637,-2.3595,-2.3595,-2.3724,-2.3909,-2.3909,-2.3728,-2.3425,-2.3117,-2.2838,-2.2635,-2.2924,-2.3442,-2.4036,-2.4256,-2.4811,-2.5457,0.0,0.0,0.0,0.0,0.0,0.0,0.0,-2.0921,0.0,-2.1133,0.0,-2.2468,-2.138,-2.1699,-2.1757,-2.1177,0.0,-2.1003,-2.1003,-2.1003,-2.077,-2.0248,-2.0146,-1.9827,-1.9246,-1.9272,0.0,0.0,0.0,0.0,0.0,0.0,0.0,0.0,0.0,0.0,0.0,-1.9139,-1.9101,-1.9101,-1.9101,-1.9101,-1.9101,-1.9101,-1.9101,-1.9101,-1.9101,-1.9101,-1.9101,-1.9101,-1.9101,-1.9101,-1.9101,-1.9101,-1.9101,-1.9101,-1.9101,-1.9101,-1.9101,-1.9101,-1.9101,-1.9101,-1.9101,-1.9101,-1.9101,-1.9101,-1.9101,-1.9101,-1.9101,-1.9101,-1.9101,0.0,0.0,0.0,0.0,0.0,0.0,0.0,0.0,0.0,0.0,0.0,0.0,0.0,0.0,0.0,0.0,0.0,0.0,0.0,-1.969,-1.969,-2.0273,-2.0333,-1.9824,-2.0887,-2.156,-2.1829,-2.2323,-2.2921,-2.3595,-2.3595,-2.3779,-2.4096,-2.4096,-2.3697,-2.3078,-2.3001,-2.2443,-2.1754,-2.2428,-2.3056,-2.3595,-2.3595,-2.4273,-2.506,0.0,0.0,0.0,0.0,0.0,-2.0451,-2.1538,-2.18,-2.1873,-2.1815,-2.2424,-2.2815,-2.2584,-2.2236,-2.1946,-2.183,-2.1322,0.0,0.0,0.0,0.0,-2.0843,-2.0364,-2.0045,-1.9928,-1.9429,-1.9176,0.0,0.0,0.0,0.0,0.0,0.0,0.0,0.0,0.0,-1.9139,-1.9101,0.0,-1.9101,-1.9101,-1.9101,-1.9101,-1.9101,-1.9101,-1.9101,-1.9101,-1.9101,-1.9101,-1.9101,-1.9101,-1.9101,-1.9101,-1.9101,-1.9101,-1.9101,-1.9101,-1.9101,-1.9101,-1.9101,-1.9101,-1.9101,-1.9101,-1.9101,-1.9101,-1.9101,-1.9101,-1.9101,-1.9101,-1.9101,-1.9101,-1.9176,0.0,0.0,0.0,0.0,0.0,0.0,0.0,0.0,0.0,-1.9016,0.0,0.0,0.0,0.0,0.0,0.0,0.0,0.0,-1.969,-1.969,-1.9794,-2.0079,-2.0528,-2.0213,-2.0872,-2.2503,-2.2069,-2.2473,-2.3595,-2.3595,-2.3368,-2.2972,-2.2972,-2.2596,-2.1934,-2.1377,-2.1383,-2.1754,-2.2428,-2.3056,-2.3595,-2.3595,-2.3713,-2.3932,0.0,0.0,0.0,0.0,0.0,0.0,0.0,-2.228,-2.2367,-2.2033,-2.2556,-2.2642,-2.2004,-2.2265,-2.2352,-2.2033,-2.2004,-2.2004,-2.2004,-2.2004,-2.1859,-2.1525,-2.0901,0.0,-2.0117,-1.9449,-1.9139,-1.9176,0.0,0.0,0.0,0.0,0.0,0.0,0.0,-1.9139,0.0,0.0,0.0,-1.9101,-1.9101,-1.9101,-1.9101,-1.9101,-1.9101,-1.9101,-1.9101,-1.9101,-1.9101,-1.9101,-1.9101,-1.9101,-1.9101,-1.9101,-1.9101,-1.9101,-1.9101,-1.9101,-1.9101,-1.9101,-1.9101,-1.9101,-1.9101,-1.9101,-1.9101,-1.9101,-1.9101,-1.9101,-1.9101,-1.9101,-1.9101,-1.9139,-1.9228,0.0,0.0,0.0,0.0,0.0,0.0,0.0,0.0,0.0,0.0,0.0,0.0,0.0,0.0,0.0,0.0,0.0,-1.969,-1.969,-2.0034,-2.0213,-2.0183,-2.0213,-2.0872,-2.2158,-2.1844,-2.2203,-2.3116,-2.3116,-2.2772,-2.2173,-2.2173,-2.1799,-2.1141,-2.0468,-2.0782,-2.1724,-2.2039,-2.2757,-2.3595,-2.3595,-2.3595,-2.3638,0.0,-2.0727,0.0,0.0,-2.1206,0.0,-2.2091,-2.2525,-2.2624,-2.2221,-2.2584,-2.2511,-2.1525,-2.2279,-2.27,-2.2236,-2.2613,-2.2888,-2.2888,-2.2888,-2.2626,-2.2076,-2.1297,-2.0606,-2.001,-1.9223,-1.886,0.0,0.0,0.0,0.0,0.0,0.0,0.0,0.0,0.0,0.0,-1.8988,-1.9026,-1.9101,-1.9101,-1.9101,-1.9101,-1.9101,-1.9101,-1.9101,-1.9101,-1.9101,-1.9101,-1.9101,-1.9101,-1.9101,-1.9101,-1.9101,-1.9101,-1.9101,-1.9101,-1.9101,-1.9101,-1.9101,-1.9101,-1.9101,-1.9101,-1.9101,-1.9101,-1.9101,-1.9101,-1.9101,-1.9101,-1.9101,-1.9101,-1.9101,-1.9139,0.0,0.0,0.0,0.0,0.0,0.0,0.0,0.0,0.0,-1.9163,0.0,0.0,0.0,0.0,0.0,-1.6743,0.0,-1.969,-1.969,-2.0213,-2.0303,-1.9914,-2.0303,-2.0902,-2.1695,-2.156,-2.1829,-2.2473,-2.2473,-2.2113,-2.1485,-2.1485,-2.1111,-2.0468,-2.0064,-2.0617,-2.171,-2.1859,-2.2592,-2.3595,-2.3595,-2.3595,-2.3595,0.0,0.0,0.0,0.0,0.0,0.0,-2.27,-2.2526,-2.2402,-2.277,-2.2859,-2.2844,-2.2728,-2.2815,-2.2873,-2.2815,-2.2859,-2.2888,-2.2888,-2.2888,-2.2678,-2.2193,-2.1064,-2.0216,-1.9656,-1.8494,-1.8108,0.0,0.0,-1.8745,0.0,0.0,0.0,0.0,0.0,-1.8553,-1.8553,-1.8553,-1.8784,-1.9101,-1.9101,-1.9101,-1.9101,-1.9101,-1.9101,-1.9101,-1.9101,-1.9101,-1.9101,-1.9101,-1.9101,-1.9101,-1.9101,-1.9101,-1.9101,-1.9101,-1.9101,-1.9101,-1.9101,-1.9101,-1.9101,-1.9101,-1.9101,-1.9101,-1.9101,-1.9101,-1.9101,-1.9101,-1.9101,-1.9101,-1.9101,-1.9101,-1.9101,-1.9101,0.0,0.0,0.0,0.0,0.0,0.0,0.0,0.0,0.0,-1.9457,0.0,0.0,-1.813,0.0,0.0,-1.9555,-1.969,-1.969,-1.975,-2.0049,-2.0617,-2.0064,-2.0423,-2.168,-2.1096,-2.1156,-2.1784,-2.1784,-2.1425,-2.0797,-2.0797,-2.0423,-1.9824,-2.0378,-2.1051,-2.1754,-2.2353,-2.2996,-2.3595,-2.3595,-2.3595,-2.3595,0.0,0.0,0.0,0.0,0.0,0.0,0.0,-2.1676,-2.1379,-2.1724,-2.1908,-2.2002,-2.2002,-2.231,-2.2356,-2.2016,-2.231,-2.2356,-2.2002,-2.2002,-2.1908,-2.1718,-2.0873,-2.0151,-1.9605,-1.8791,-1.8262,0.0,0.0,0.0,0.0,0.0,-1.85,-1.8068,-1.8068,-1.8068,-1.8068,-1.8068,-1.8187,-1.8305,-1.8305,-1.8305,-1.8305,-1.8305,-1.8305,-1.8305,-1.8305,-1.8305,-1.8305,-1.8305,-1.8669,-1.9101,-1.9101,-1.9101,-1.9101,-1.9101,-1.9101,-1.9101,-1.9101,-1.9101,-1.9101,-1.9101,-1.9101,-1.9101,-1.9101,-1.9101,-1.9101,-1.9101,-1.9101,-1.9101,-1.9101,-1.9101,-1.9101,-1.9101,0.0,0.0,0.0,0.0,0.0,0.0,0.0,0.0,0.0,0.0,0.0,0.0,0.0,0.0,0.0,-1.8871,-1.969,-1.969,-1.969,-1.9824,-2.0094,-1.9824,-2.0168,-2.1111,-2.0842,-2.0857,-2.1111,-2.1111,-2.0737,-2.0094,-2.0094,-2.0183,-2.0318,-2.0602,-2.1335,-2.2308,-2.2619,-2.3056,-2.3595,-2.3595,-2.3595,-2.3595,-2.0993,0.0,-2.0582,0.0,-2.0657,-2.0234,-2.137,-2.0948,-2.054,-2.0743,-2.0782,-2.093,-2.1224,-2.1684,-2.1732,-2.1369,-2.1718,-2.1827,-2.1417,-2.1417,-2.1321,-2.1175,-2.0576,0.0,-1.9216,-1.8601,-1.8102,-1.7639,-1.8126,0.0,0.0,-1.871,-1.8549,-1.8106,-1.7932,-1.7852,-1.7839,-1.7706,-1.7679,-1.7787,-1.7787,-1.7787,-1.7787,-1.7787,-1.7787,-1.7787,-1.7787,-1.7787,-1.7787,-1.7787,-1.8226,-1.8707,-1.8707,-1.8707,-1.8707,-1.8707,-1.8707,-1.8745,-1.8898,-1.8822,-1.8784,-1.9026,-1.9026,-1.8936,-1.9064,-1.9101,-1.9101,-1.9101,-1.9101,-1.9101,-1.9101,-1.9101,-1.9101,-1.9101,-1.9101,0.0,0.0,-1.9101,0.0,0.0,-1.9101,-1.9139,-1.9228,-1.9339,0.0,0.0,0.0,0.0,0.0,-1.8687,-1.969,-1.969,-1.969,-1.969,-1.969,-1.969,-1.9929,-2.0423,-2.0423,-2.0423,-2.0423,-2.0423,-2.0258,-1.9989,-1.9989,-2.0378,-2.1006,-2.1006,-2.1665,-2.2724,-2.2724,-2.3056,-2.3595,-2.3595,-2.3595,-2.3595,-2.0993,-2.0979,-2.0979,-2.0993,-2.0979,-2.0979,-2.0993,-2.0534,-2.0232,-2.0232,-1.9759,-1.9811,-2.0894,-2.114,-2.1224,-2.1175,-2.1321,-2.1417,-2.1417,-2.1417,-2.1175,0.0,0.0,-1.9309,-1.8216,-1.771,-1.7364,-1.7199,0.0,0.0,-1.8723,-1.9219,-1.9234,-1.8767,-1.8252,-1.8004,-1.7965,-1.7434,-1.7434,-1.7787,-1.7787,-1.7787,-1.7787,-1.7787,-1.7787,-1.7787,-1.7787,-1.7787,-1.7787,-1.7787,-1.7787,-1.7828,-1.7828,-1.7828,-1.7828,-1.7828,-1.7828,-1.7908,-1.8383,-1.8187,-1.8028,-1.886,-1.8784,-1.863,-1.9026,-1.9101,-1.9101,-1.9101,-1.9101,-1.9101,-1.9101,-1.9101,-1.9101,-1.9101,-1.9101,0.0,0.0,-1.9101,0.0,-1.9101,-1.9101,-1.9101,-1.9101,-1.9213,0.0,0.0,0.0,0.0,0.0,-1.9617,-1.9647,-1.969,-1.9647,-1.9632,-1.969,-1.969,-1.969,-1.969,-1.969,-1.969,-1.969,-1.969,-2.0064,-2.0707,-2.0707,-2.1081,-2.168,-2.168,-2.2084,-2.2724,-2.2724,-2.3056,-2.3595,-2.3595,-2.3595,-2.3595,-1.9643,-1.9643,-1.9747,-2.0105,-1.9649,-1.9422,-2.0092,-1.927,-1.8759,-1.9297,-1.8973,-1.8927,-1.9554,-2.0181,-2.0383,0.0,-2.0346,-2.0484,0.0,-2.0144,-2.0144,-2.0055,-1.9876,-1.9446,-1.8781,-1.8593,-1.8276,-1.7893,-1.8332,-1.8636,-1.8758,-1.8956,-1.8819,-1.8367,-1.819,-1.7944,-1.7587,-1.7397,-1.7178,-1.6934,-1.6934,-1.6934,-1.6934,-1.6934,-1.6934,-1.6934,-1.6934,-1.6934,-1.6934,-1.6934,-1.6934,-1.6934,-1.6934,-1.7338,-1.7787,-1.7787,-1.7787,-1.7828,-1.7988,-1.7908,-1.7868,-1.8147,-1.8344,-1.8539,-1.8669,-1.8898,-1.9026,-1.8745,-1.8898,-1.9026,-1.8745,-1.8898,-1.9101,-1.9101,-1.9101,-1.9101,-1.9101,0.0,-1.9101,-1.9101,-1.9101,-1.9101,-1.9101,-1.9213,0.0,0.0,0.0,0.0,0.0,-1.9574,-1.9611,-1.9647,-1.9611,-1.9647,-1.969,-1.969,-1.969,-1.969,-1.969,-1.969,-1.9741,-2.0168,-2.0243,-2.0064,-2.0976,-2.15,-2.1739,-2.2173,-2.2742,-2.331,-2.331,-2.343,-2.3595,-2.3595,-2.3595,-2.3595,-1.8987,-1.8987,-1.9032,-1.9177,-1.8729,-1.8457,-1.8819,-1.8179,-1.7849,-1.8313,-1.8198,-1.8125,-1.8362,-1.9017,-1.9419,-1.9356,-1.9469,-1.9585,-1.9592,-1.9617,-1.9656,-1.9798,-1.9798,-1.956,-1.8983,-1.8983,-1.8756,-1.8204,-1.863,-1.8977,-1.9169,-1.9169,-1.9024,-1.8794,-1.8606,-1.8204,-1.7677,-1.7476,-1.7049,-1.6522,-1.6522,-1.6522,-1.6522,-1.6522,-1.6522,-1.6522,-1.6522,-1.6522,-1.6522,-1.6522,-1.6522,-1.6522,-1.6522,-1.6892,-1.7297,-1.7297,-1.7297,-1.7338,-1.7516,-1.7434,-1.738,-1.772,-1.7908,-1.8028,-1.8187,-1.8422,-1.8553,-1.8305,-1.8592,-1.8784,-1.8553,-1.8822,-1.9101,-1.9101,-1.9101,-1.9101,-1.9101,0.0,-1.9101,0.0,0.0,-1.9101,-1.9101,-1.9176,-1.9228,0.0,0.0,0.0,-1.9302,-1.9465,-1.9538,-1.9611,-1.9538,-1.956,-1.969,-1.969,-1.969,-1.969,-1.969,-1.969,-1.9705,-2.0393,-2.0483,-2.0154,-2.1485,-2.2069,-2.2113,-2.2757,-2.3251,-2.3595,-2.3595,-2.3595,-2.3595,-2.3595,-2.3595,-2.3595,-1.8987,-1.8963,-1.8782,-1.8289,-1.8169,-1.7989,-1.7496,-1.7412,-1.7424,-1.746,-1.7472,-1.7484,-1.752,-1.7929,-1.8473,-1.9121,-1.8863,-1.888,-1.9527,-1.9565,-1.9604,-1.9747,-1.9747,-1.9521,-1.9046,-1.9033,-1.8783,-1.8269,-1.8783,-1.9283,-1.9798,-1.9798,-1.9798,-1.9786,-1.9296,-1.8756,-1.8179,-1.7652,-1.7087,-1.6522,-1.6522,-1.6522,-1.6522,-1.6522,-1.6522,-1.6522,-1.6522,-1.6522,-1.6522,-1.6522,-1.6522,-1.6522,-1.6522,-1.6522,-1.6522,-1.6522,-1.6522,-1.6607,-1.7031,-1.6808,-1.668,-1.7503,-1.7434,-1.7323,-1.772,-1.7787,-1.7787,-1.776,-1.8108,-1.8422,-1.8422,-1.8745,-1.9026,-1.9026,-1.9026,-1.9026,-1.9026,-1.9026,-1.9026,-1.9026,-1.9026,-1.9026,-1.9026,-1.9026,-1.9026,0.0,0.0,0.0,-1.9101,-1.9302,-1.9465,-1.9574,-1.9465,-1.9487,-1.969,-1.969,-1.969,-1.969,-1.969,-1.969,-1.9705,-2.0438,-2.0752,-2.0797,-2.2143,-2.2753,-2.2768,-2.334,-2.3595,-2.3595,-2.3595,-2.3595,-2.3595,-2.3595,-2.3595,-2.3595,-1.8987,-1.8662,-1.835,-1.8229,-1.7869,-1.7556,-1.7436,-1.7412,-1.7556,-1.7965,-1.8013,-1.8169,-1.8578,-1.8374,-1.8422,-1.9004,-1.8984,-1.9024,-1.9263,-1.9275,-1.9368,-1.946,-1.946,-1.9463,-1.9288,-1.9288,-1.9214,-1.9103,-1.9368,-1.9531,-1.9656,-1.9759,-1.9798,-1.9798,-1.9673,-1.9095,-1.8191,-1.8066,-1.7438,-1.6522,-1.6522,-1.6522,-1.6522,-1.6522,-1.6522,-1.6522,-1.6522,-1.6522,-1.6522,-1.6522,-1.6522,-1.6522,-1.6522,-1.6522,-1.6522,-1.6522,-1.6522,-1.6522,-1.665,-1.6565,-1.6552,-1.6765,-1.7031,-1.7323,-1.772,-1.7787,-1.772,-1.7393,-1.7679,-1.7868,-1.7557,-1.7828,-1.8108,-1.8108,-1.8108,-1.8108,-1.8108,-1.8108,-1.8108,-1.8108,-1.8108,-1.8108,-1.8108,-1.8108,-1.8266,-1.8707,0.0,-1.8898,-1.9228,-1.9302,-1.9339,-1.9376,-1.9339,-1.9413,-1.9611,-1.9611,-1.9632,-1.969,-1.969,-1.969,-1.972,-2.0917,-2.1186,-2.0812,-2.2607,-2.3116,-2.2768,-2.334,-2.3595,-2.3595,-2.3595,-2.3595,-2.3595,-2.3595,-2.3595,-2.3595,-1.8987,-1.8566,-1.8121,-1.7893,-1.74,-1.6967,-1.6726,-1.6644,-1.6835,-1.7412,-1.7484,-1.7676,-1.8205,-1.8229,-1.8326,-1.8602,-1.8626,-1.8799,-1.9158,-1.9182,-1.9275,-1.9368,-1.942,-1.942,-1.942,-1.942,-1.9297,-1.9052,-1.8844,-1.8783,-1.8783,-1.912,-1.9244,-1.9244,-1.9595,-1.9246,-1.8446,-1.8257,-1.7702,-1.6886,-1.6622,-1.6522,-1.6522,-1.6522,-1.6522,-1.6522,-1.6522,-1.6522,-1.6522,-1.6522,-1.6522,-1.6522,-1.6522,-1.6522,-1.6522,-1.6522,-1.6522,-1.6522,-1.6522,-1.6522,-1.6522,-1.6522,-1.6693,-1.6947,-1.7144,-1.7214,-1.7131,-1.6947,-1.7227,-1.7475,-1.724,-1.7516,-1.7787,-1.7787,-1.7787,-1.7787,-1.7787,-1.7787,-1.7787,-1.7787,-1.7787,-1.7787,-1.7787,-1.7787,-1.7908,-1.8226,-1.8305,-1.8422,-1.8707,-1.876,-1.8965,-1.9302,-1.9339,-1.9413,-1.9611,-1.9647,-1.9654,-1.969,-1.969,-1.9854,-2.0183,-2.1231,-2.15,-2.1261,-2.2892,-2.3251,-2.2768,-2.334,-2.3595,-2.3595,-2.3595,-2.3595,-2.3595,-2.3595,-2.3415,-2.3176,-1.8987,-1.8566,-1.8037,-1.7508,-1.6979,-1.6404,-1.5876,-1.5864,-1.6068,-1.6524,-1.6715,-1.7003,-1.7376,-1.7953,-1.8289,-1.8205,-1.8277,-1.857,-1.9146,-1.917,-1.9223,-1.9316,-1.9316,-1.9279,-1.9193,-1.912,-1.8839,-1.8436,-1.7983,-1.7762,-1.7762,-1.8277,-1.8499,-1.8511,-1.9068,-1.9019,-1.8523,-1.8172,-1.7718,-1.72,-1.6666,-1.6479,-1.6522,-1.6522,-1.6522,-1.6522,-1.6522,-1.6522,-1.6522,-1.6522,-1.6522,-1.6522,-1.6522,-1.6522,-1.6522,-1.6522,-1.6522,-1.6522,-1.6522,-1.6522,-1.6522,-1.6522,-1.6522,-1.6522,-1.6522,-1.6522,-1.6522,-1.6522,-1.682,-1.7073,-1.7073,-1.7393,-1.7585,-1.7585,-1.7585,-1.7585,-1.7585,-1.7585,-1.7585,-1.7585,-1.7585,-1.7585,-1.7585,-1.7585,-1.7625,-1.772,-1.7787,-1.7908,-1.7948,-1.8055,-1.8464,-1.9064,-1.9191,-1.9302,-1.9487,-1.9581,-1.9654,-1.969,-1.969,-2.0049,-2.0737,-2.1395,-2.1754,-2.1919,-2.3086,-2.3295,-2.2862,-2.3385,-2.3595,-2.3595,-2.3595,-2.3595,-2.3595,-2.349,-2.3133,-2.2703,-1.8987,-1.8566,-1.8037,-1.7508,-1.6979,-1.6404,-1.5876,-1.6164,-1.6488,-1.6572,-1.74,-1.782,-1.7448,-1.8277,-1.8686,-1.8241,-1.8614,-1.8903,-1.904,-1.904,-1.9052,-1.904,-1.904,-1.8835,-1.8389,-1.793,-1.7665,-1.7593,-1.7642,-1.7642,-1.7642,-1.7836,-1.7933,-1.7933,-1.8019,-1.7761,-1.7291,-1.7205,-1.695,-1.656,-1.643,-1.6436,-1.6522,-1.6522,-1.6522,-1.6522,-1.6522,-1.6522,-1.6522,-1.6522,-1.6522,-1.6522,-1.6522,-1.6522,-1.6522,-1.6522,-1.6522,-1.6522,-1.6522,-1.6522,-1.6522,-1.6522,-1.6522,-1.6522,-1.6522,-1.6522,-1.6522,-1.6522,-1.6565,-1.6607,-1.6607,-1.665,-1.6723,-1.6723,-1.6723,-1.6723,-1.6723,-1.6723,-1.6723,-1.6723,-1.6723,-1.6723,-1.6723,-1.6723,-1.685,-1.7269,-1.7323,-1.7475,-1.7787,-1.7841,-1.7962,-1.8187,-1.8333,-1.8606,-1.902,-1.9124,-1.9347,-1.969,-1.969,-2.0049,-2.0737,-2.1395,-2.1994,-2.2562,-2.3281,-2.355,-2.346,-2.3565,-2.3595,-2.3595,-2.3595,-2.3595,-2.3535,-2.3011,-2.283,-2.2732,-1.8626,-1.8301,-1.7783,-1.7111,-1.6512,-1.608,-1.5828,-1.6248,-1.6679,-1.7015,-1.7724,-1.8217,-1.8253,-1.8698,-1.8891,-1.865,-1.8855,-1.8987,-1.8987,-1.8987,-1.8987,-1.8987,-1.8987,-1.8746,-1.8205,-1.74,-1.6991,-1.6991,-1.6749,-1.665,-1.665,-1.6999,-1.7133,-1.7145,-1.752,-1.7555,-1.7311,-1.7076,-1.6897,-1.6683,-1.6473,-1.6436,-1.6436,-1.6479,-1.6522,-1.6522,-1.6522,-1.6522,-1.6522,-1.6522,-1.6522,-1.6522,-1.6522,-1.6522,-1.6522,-1.6522,-1.6522,-1.6522,-1.6522,-1.6522,-1.6522,-1.6522,-1.6522,-1.6522,-1.6522,-1.6522,-1.6522,-1.6522,-1.6522,-1.6522,-1.6522,-1.6522,-1.6522,-1.6522,-1.6522,-1.6522,-1.6522,-1.6522,-1.6522,-1.6522,-1.6522,-1.6522,-1.6522,-1.6522,-1.6607,-1.682,-1.6876,-1.7044,-1.7323,-1.7352,-1.7434,-1.7557,-1.8002,-1.8514,-1.8997,-1.9064,-1.931,-1.969,-1.9472,-1.9737,-2.0401,-2.0753,-2.1294,-2.1975,-2.2555,-2.277,-2.277,-2.277,-2.2965,-2.3201,-2.2905,-2.2965,-2.3157,-2.26,-2.2203,-2.191,-1.8301,-1.8097,-1.7663,-1.6739,-1.6248,-1.5936,-1.5816,-1.6248,-1.6774,-1.7183,-1.7796,-1.8313,-1.8602,-1.8843,-1.8939,-1.8819,-1.8915,-1.8987,-1.8987,-1.8987,-1.8987,-1.8987,-1.8867,-1.8554,-1.8037,-1.7231,-1.6644,-1.6392,-1.6116,-1.5912,-1.5804,-1.6212,-1.6392,-1.6416,-1.6952,-1.7169,-1.7157,-1.6983,-1.6834,-1.6732,-1.6571,-1.643,-1.6362,-1.6436,-1.6479,-1.6479,-1.6479,-1.6522,-1.6522,-1.6522,-1.6522,-1.6522,-1.6522,-1.6522,-1.6522,-1.6522,-1.6522,-1.6522,-1.6522,-1.6522,-1.6522,-1.6522,-1.6522,-1.6522,-1.6522,-1.6522,-1.6522,-1.6522,-1.6522,-1.6522,-1.6522,-1.6522,-1.6522,-1.6522,-1.6522,-1.6522,-1.6522,-1.6522,-1.6522,-1.6522,-1.6522,-1.6522,-1.6522,-1.6522,-1.6522,-1.6522,-1.662,-1.6718,-1.6791,-1.6876,-1.696,-1.7073,-1.772,-1.8305,-1.8784,-1.8784,-1.9011,-1.942,-1.9087,-1.9267,-1.994,-2.0047,-2.0414,-2.1121,-2.1696,-2.1917,-2.1931,-2.2025,-2.2289,-2.2493,-2.2211,-2.2275,-2.2478,-2.207,-2.1545,-2.099,-1.8301,-1.8193,-1.7857,-1.6763,-1.6548,-1.6356,-1.5864,-1.6248,-1.6596,-1.6632,-1.7568,-1.8037,-1.758,-1.841,-1.8794,-1.8301,-1.871,-1.8987,-1.8987,-1.8987,-1.8987,-1.8987,-1.8518,-1.8013,-1.7484,-1.74,-1.6823,-1.5852,-1.6308,-1.6272,-1.5792,-1.5828,-1.5852,-1.5852,-1.5888,-1.5945,-1.5981,-1.6438,-1.642,-1.6098,-1.6593,-1.654,-1.6244,-1.6362,-1.6392,-1.6436,-1.6479,-1.6522,-1.6522,-1.6522,-1.6522,-1.6522,-1.6522,-1.6522,-1.6522,-1.6522,-1.6522,-1.6522,-1.6522,-1.6522,-1.6522,-1.6522,-1.6522,-1.6522,-1.6522,-1.6522,-1.6522,-1.6522,-1.6522,-1.6522,-1.6522,-1.6522,-1.6522,-1.6522,-1.6522,-1.6522,-1.6522,-1.6522,-1.6522,-1.6522,-1.6522,-1.6522,-1.6522,-1.6522,-1.6522,-1.6522,-1.6522,-1.6522,-1.6522,-1.6522,-1.662,-1.6718,-1.7073,-1.7475,-1.7868,-1.7908,-1.8108,-1.8592,-1.8422,-1.8745,-1.947,-1.939,-1.9782,-2.0486,-2.1107,-2.1375,-2.1417,-2.1889,-2.1837,-2.1476,-2.1903,-2.1837,-2.1419,-2.1313,-2.0955,-2.0384,-1.7327,-1.7315,-1.7123,-1.6236,-1.6092,-1.602,-1.5828,-1.6248,-1.6584,-1.6584,-1.7544,-1.8121,-1.7929,-1.8554,-1.8915,-1.871,-1.8867,-1.8987,-1.8987,-1.8987,-1.8987,-1.8987,-1.8482,-1.8109,-1.7905,-1.758,-1.7063,-1.6284,-1.6488,-1.6308,-1.5792,-1.5792,-1.5792,-1.5792,-1.5792,-1.5792,-1.5804,-1.6008,-1.6017,-1.5893,-1.6175,-1.6215,-1.6088,-1.6318,-1.6392,-1.6392,-1.6479,-1.6522,-1.6522,-1.6522,-1.6522,-1.6522,-1.6522,-1.6522,-1.6522,-1.6522,-1.6522,-1.6522,-1.6522,-1.6522,-1.6522,-1.6522,-1.6522,-1.6522,-1.6522,-1.6522,-1.6522,-1.6522,-1.6522,-1.6522,-1.6522,-1.6522,-1.6522,-1.6522,-1.6522,-1.6522,-1.6522,-1.6522,-1.6522,-1.6522,-1.6522,-1.6522,-1.6522,-1.6522,-1.6522,-1.6522,-1.6522,-1.6522,-1.662,-1.6705,-1.6791,-1.6803,-1.696,-1.7199,-1.7598,-1.7598,-1.7828,-1.8238,-1.7948,-1.795,-1.8221,-1.8392,-1.8588,-1.8873,-1.9553,-1.9809,-1.9849,-2.0422,-2.0718,-2.0818,-2.1117,-2.1077,-2.0763,-2.0435,-1.996,-1.9436,-1.6404,-1.6417,-1.6302,-1.5462,-1.5322,-1.5322,-1.5322,-1.5949,-1.6338,-1.6138,-1.7046,-1.771,-1.7709,-1.8037,-1.8307,-1.8417,-1.8429,-1.8429,-1.8429,-1.8429,-1.859,-1.8987,-1.865,-1.8374,-1.8205,-1.8013,-1.7386,-1.6385,-1.6551,-1.6173,-1.5322,-1.5322,-1.5322,-1.5322,-1.5322,-1.5322,-1.5334,-1.5497,-1.5576,-1.5582,-1.5678,-1.5733,-1.5724,-1.58,-1.5788,-1.5832,-1.6107,-1.6238,-1.6238,-1.6281,-1.6293,-1.625,-1.612,-1.6163,-1.6293,-1.6479,-1.6522,-1.6522,-1.6522,-1.6522,-1.6522,-1.6522,-1.6522,-1.6522,-1.6522,-1.6522,-1.6522,-1.6522,-1.6522,-1.6522,-1.6522,-1.6522,-1.6522,-1.6522,-1.6522,-1.6522,-1.6522,-1.6522,-1.6522,-1.6522,-1.6522,-1.6522,-1.6522,-1.6522,-1.6522,-1.6522,-1.6522,-1.6522,-1.662,-1.6705,-1.6778,-1.6778,-1.6778,-1.6905,-1.724,-1.7282,-1.7462,-1.776,-1.7462,-1.7365,-1.7406,-1.7561,-1.7657,-1.7739,-1.8356,-1.8741,-1.895,-1.9551,-1.9977,-2.0288,-2.0562,-2.0408,-1.9967,-1.9864,-1.9316,-1.8649,-1.5676,-1.5658,-1.5476,-1.4468,-1.4305,-1.4305,-1.4305,-1.5182,-1.57,-1.5147,-1.6033,-1.6632,-1.6596,-1.6598,-1.6742,-1.7147,-1.7191,-1.7191,-1.7191,-1.7191,-1.7743,-1.8922,-1.8987,-1.8734,-1.8217,-1.871,-1.7938,-1.5902,-1.6408,-1.589,-1.4305,-1.4305,-1.4305,-1.4305,-1.4305,-1.4305,-1.4326,-1.4854,-1.5074,-1.5097,-1.5104,-1.511,-1.5062,-1.4652,-1.4503,-1.4595,-1.532,-1.5588,-1.5588,-1.5744,-1.5788,-1.57,-1.5232,-1.5412,-1.5876,-1.6337,-1.6479,-1.6479,-1.6479,-1.6479,-1.6479,-1.6522,-1.6522,-1.6522,-1.6522,-1.6522,-1.6522,-1.6522,-1.6522,-1.6522,-1.6522,-1.6522,-1.6522,-1.6522,-1.6522,-1.6522,-1.6522,-1.6522,-1.6522,-1.6522,-1.6522,-1.6522,-1.6522,-1.6522,-1.6522,-1.6522,-1.6522,-1.6522,-1.6522,-1.6522,-1.6522,-1.6522,-1.6522,-1.6565,-1.6675,-1.6846,-1.6918,-1.7002,-1.6918,-1.7002,-1.7199,-1.7086,-1.7086,-1.7238,-1.7826,-1.8388,-1.8937,-1.9538,-1.9799,-1.9852,-2.0476,-1.993,-1.8976,-1.9577,-1.9081,-1.8087,-1.525,-1.518,-1.5034,-1.4403,-1.4305,-1.4305,-1.4305,-1.4565,-1.4711,-1.4559,-1.513,-1.5581,-1.5576,-1.5895,-1.6159,-1.6291,-1.6302,-1.6302,-1.6302,-1.6302,-1.6458,-1.6831,-1.7119,-1.7243,-1.7096,-1.6933,-1.6345,-1.5352,-1.5508,-1.5145,-1.4305,-1.4305,-1.4305,-1.4305,-1.4305,-1.4305,-1.4305,-1.4446,-1.4529,-1.4547,-1.4551,-1.4529,-1.4536,-1.4514,-1.4503,-1.4549,-1.488,-1.4971,-1.4971,-1.5017,-1.5017,-1.5017,-1.4949,-1.504,-1.522,-1.5457,-1.5501,-1.5501,-1.5501,-1.5501,-1.568,-1.6349,-1.6522,-1.6522,-1.6522,-1.6522,-1.6522,-1.6522,-1.6522,-1.6522,-1.6522,-1.6522,-1.6522,-1.6522,-1.6522,-1.6522,-1.6522,-1.6522,-1.6522,-1.6522,-1.6522,-1.6522,-1.6522,-1.6522,-1.6522,-1.6522,-1.6522,-1.6522,-1.6522,-1.6522,-1.6522,-1.6522,-1.6522,-1.6565,-1.6675,-1.6718,-1.6803,-1.6918,-1.6918,-1.6918,-1.7002,-1.7002,-1.7002,-1.7086,-1.7353,-1.7565,-1.7787,-1.8767,-1.9172,-1.9277,-2.0319,-1.993,-1.8924,-1.9107,-1.8453,-1.7473,-1.4676,-1.4603,-1.4456,-1.3868,-1.3752,-1.3752,-1.3752,-1.3884,-1.3941,-1.3752,-1.4174,-1.4516,-1.4461,-1.4784,-1.5016,-1.5195,-1.5205,-1.5205,-1.5205,-1.5205,-1.5205,-1.5205,-1.5311,-1.5658,-1.6313,-1.6027,-1.5542,-1.4817,-1.4817,-1.4435,-1.3752,-1.3752,-1.3752,-1.3752,-1.3752,-1.3752,-1.3752,-1.3752,-1.3847,-1.4025,-1.3847,-1.3847,-1.4025,-1.3931,-1.3873,-1.392,-1.4236,-1.4329,-1.4329,-1.4433,-1.434,-1.4247,-1.4536,-1.4686,-1.4731,-1.5017,-1.5108,-1.5108,-1.5108,-1.5108,-1.5244,-1.5812,-1.5944,-1.5988,-1.6194,-1.6194,-1.6293,-1.6479,-1.6522,-1.6522,-1.6522,-1.6522,-1.6522,-1.6522,-1.6522,-1.6522,-1.6522,-1.6522,-1.6522,-1.6522,-1.6522,-1.6522,-1.6522,-1.6522,-1.6522,-1.6522,-1.6522,-1.6522,-1.6522,-1.6522,-1.6522,-1.6577,-1.6577,-1.6663,-1.6803,-1.6803,-1.6846,-1.6918,-1.6918,-1.696,-1.7002,-1.7086,-1.7073,-1.7073,-1.7157,-1.7342,-1.7617,-1.8296,-1.8858,-1.9303,-1.9786,-1.9525,-1.8872,-1.8662,-1.7996,-1.7199,-1.4026,-1.397,-1.3815,-1.3027,-1.2881,-1.2881,-1.2881,-1.3248,-1.3382,-1.2978,-1.3296,-1.3486,-1.3459,-1.3447,-1.3603,-1.3984,-1.397,-1.397,-1.397,-1.397,-1.397,-1.397,-1.3652,-1.4124,-1.5589,-1.5651,-1.5193,-1.4281,-1.4281,-1.3789,-1.2881,-1.2881,-1.2881,-1.2881,-1.2881,-1.2881,-1.2881,-1.2881,-1.3162,-1.3478,-1.3065,-1.3162,-1.3478,-1.3065,-1.2881,-1.2968,-1.3505,-1.3732,-1.3732,-1.3884,-1.3647,-1.3467,-1.3931,-1.4176,-1.4419,-1.4834,-1.4971,-1.4971,-1.4971,-1.4971,-1.4971,-1.4971,-1.4971,-1.5096,-1.5611,-1.5744,-1.5844,-1.6293,-1.6423,-1.6423,-1.6423,-1.6466,-1.6522,-1.6522,-1.6522,-1.6522,-1.6522,-1.6522,-1.6522,-1.6522,-1.6522,-1.6522,-1.6522,-1.6522,-1.6522,-1.6522,-1.6522,-1.6522,-1.6522,-1.6522,-1.6577,-1.6718,-1.6718,-1.6803,-1.7002,-1.7002,-1.7002,-1.7002,-1.7002,-1.7073,-1.7199,-1.7199,-1.7199,-1.7199,-1.7199,-1.7512,-1.8022,-1.8074,-1.8715,-1.9603,-1.9107,-1.8872,-1.8767,-1.8283,-1.7721,-1.7199,-1.3917,-1.3755,-1.3542,-1.287,-1.2735,-1.2783,-1.2881,-1.2978,-1.3027,-1.2929,-1.2978,-1.3056,-1.3057,-1.3018,-1.3057,-1.3145,-1.3154,-1.3154,-1.3154,-1.3154,-1.3154,-1.3154,-1.3066,-1.3204,-1.353,-1.354,-1.3441,-1.3204,-1.3204,-1.3115,-1.2881,-1.2881,-1.2881,-1.2881,-1.2881,-1.2881,-1.2881,-1.2881,-1.2978,-1.3017,-1.2929,-1.2978,-1.3017,-1.2929,-1.2881,-1.2929,-1.3065,-1.3113,-1.3113,-1.3104,-1.3162,-1.321,-1.3372,-1.3505,-1.3658,-1.3847,-1.3941,-1.3941,-1.3941,-1.3941,-1.3941,-1.3941,-1.3941,-1.4176,-1.5051,-1.5232,-1.5277,-1.5367,-1.5712,-1.5964,-1.5964,-1.625,-1.6522,-1.6522,-1.6522,-1.6522,-1.6522,-1.6522,-1.6522,-1.6522,-1.6522,-1.6522,-1.6522,-1.6522,-1.6522,-1.6522,-1.6522,-1.6534,-1.6675,-1.6675,-1.6718,-1.6846,-1.6846,-1.6876,-1.7002,-1.7002,-1.7044,-1.7157,-1.7157,-1.7157,-1.7199,-1.7199,-1.7199,-1.7199,-1.7199,-1.7264,-1.7434,-1.7904,-1.8244,-1.8493,-1.8793,-1.8649,-1.8257,-1.814,-1.7721,-1.7199,-1.3862,-1.3746,-1.3542,-1.282,-1.2725,-1.2832,-1.2881,-1.2881,-1.2881,-1.2881,-1.2881,-1.2881,-1.2881,-1.2881,-1.2881,-1.2881,-1.2881,-1.2881,-1.2881,-1.2881,-1.2881,-1.2881,-1.2881,-1.2881,-1.2881,-1.2881,-1.2881,-1.2881,-1.2881,-1.2881,-1.2881,-1.2881,-1.2881,-1.2881,-1.2881,-1.2881,-1.2881,-1.2881,-1.2881,-1.2881,-1.2881,-1.2881,-1.2881,-1.2881,-1.2881,-1.2881,-1.2881,-1.2881,-1.2929,-1.2978,-1.3065,-1.3152,-1.3266,-1.3372,-1.3515,-1.3563,-1.3621,-1.3621,-1.3621,-1.3621,-1.3621,-1.3621,-1.3621,-1.38,-1.4605,-1.4789,-1.4834,-1.5062,-1.5277,-1.5534,-1.5744,-1.602,-1.625,-1.6479,-1.6522,-1.6522,-1.6522,-1.6293,-1.6151,-1.6151,-1.5988,-1.5812,-1.5812,-1.5812,-1.5812,-1.5812,-1.5944,-1.6044,-1.6132,-1.6231,-1.6318,-1.6479,-1.6349,-1.6337,-1.6423,-1.6539,-1.6612,-1.6697,-1.7018,-1.7199,-1.7199,-1.7199,-1.7199,-1.7199,-1.7199,-1.7199,-1.7225,-1.7539,-1.7839,-1.81,-1.81,-1.81,-1.8061,-1.7588,-1.7248,-1.6934,-1.3798,-1.3755,-1.3604,-1.282,-1.2774,-1.2881,-1.2881,-1.2881,-1.2881,-1.2881,-1.2881,-1.2881,-1.2881,-1.2881,-1.2881,-1.2881,-1.2881,-1.2881,-1.2881,-1.2881,-1.2881,-1.2881,-1.2881,-1.2881,-1.2881,-1.2881,-1.2881,-1.2881,-1.2881,-1.2881,-1.2881,-1.2881,-1.2881,-1.2881,-1.2881,-1.2881,-1.2881,-1.2881,-1.2881,-1.2881,-1.2881,-1.2881,-1.2881,-1.2881,-1.2881,-1.2881,-1.2881,-1.2881,-1.2929,-1.3036,-1.3113,-1.3218,-1.3324,-1.342,-1.3515,-1.3563,-1.3573,-1.3563,-1.361,-1.3621,-1.3621,-1.3621,-1.3621,-1.3716,-1.414,-1.428,-1.4373,-1.4777,-1.4926,-1.5096,-1.5478,-1.5611,-1.58,-1.6207,-1.6324,-1.6386,-1.6386,-1.6094,-1.5882,-1.5799,-1.545,-1.52,-1.5119,-1.5177,-1.52,-1.5119,-1.5289,-1.5424,-1.5457,-1.5603,-1.578,-1.5901,-1.568,-1.5623,-1.5744,-1.5996,-1.6058,-1.5983,-1.671,-1.7115,-1.7157,-1.7157,-1.7199,-1.7199,-1.7199,-1.7199,-1.7199,-1.7157,-1.7401,-1.7804,-1.7268,-1.7329,-1.7661,-1.6901,-1.6582,-1.6466,-1.3597,-1.3568,-1.3359,-1.278,-1.2725,-1.2783,-1.2881,-1.2881,-1.2881,-1.2881,-1.2881,-1.2881,-1.2881,-1.2881,-1.2881,-1.2881,-1.2881,-1.2881,-1.2881,-1.2881,-1.2881,-1.2881,-1.2881,-1.2881,-1.2881,-1.2881,-1.2881,-1.2881,-1.2881,-1.2881,-1.2881,-1.2881,-1.2881,-1.2881,-1.2881,-1.2881,-1.2881,-1.2881,-1.2881,-1.2881,-1.2881,-1.2881,-1.2881,-1.2881,-1.2881,-1.2881,-1.2881,-1.2881,-1.2881,-1.2929,-1.3027,-1.3123,-1.3123,-1.319,-1.3266,-1.3409,-1.342,-1.3467,-1.3573,-1.3621,-1.3621,-1.3621,-1.3621,-1.3621,-1.3705,-1.3716,-1.3716,-1.38,-1.4176,-1.4512,-1.4605,-1.4915,-1.5232,-1.5289,-1.5637,-1.5916,-1.5916,-1.6132,-1.6198,-1.5821,-1.5728,-1.5567,-1.5154,-1.5487,-1.5556,-1.5142,-1.5153,-1.5187,-1.5311,-1.5355,-1.54,-1.5478,-1.5433,-1.5433,-1.5433,-1.5896,-1.5896,-1.5511,-1.6238,-1.6735,-1.7044,-1.7044,-1.7073,-1.7199,-1.7199,-1.7199,-1.7199,-1.6892,-1.6803,-1.6824,-1.6473,-1.6368,-1.643,-1.63,-1.6044,-1.5812,-1.3243,-1.3159,-1.3077,-1.2733,-1.2676,-1.2735,-1.2881,-1.2881,-1.2881,-1.2881,-1.2881,-1.2881,-1.2881,-1.2881,-1.2881,-1.2881,-1.2881,-1.2881,-1.2881,-1.2881,-1.2881,-1.2881,-1.2881,-1.2881,-1.2881,-1.2881,-1.2881,-1.2881,-1.2881,-1.2881,-1.2881,-1.2881,-1.2881,-1.2881,-1.2881,-1.2881,-1.2881,-1.2881,-1.2881,-1.2881,-1.2881,-1.2881,-1.2881,-1.2881,-1.2881,-1.2881,-1.2881,-1.2881,-1.2929,-1.2988,-1.3027,-1.3133,-1.3152,-1.318,-1.3218,-1.3362,-1.342,-1.342,-1.3563,-1.3621,-1.3621,-1.3621,-1.3621,-1.3621,-1.3621,-1.3621,-1.3621,-1.3621,-1.381,-1.4121,-1.4616,-1.4909,-1.5236,-1.5734,-1.5998,-1.6135,-1.6135,-1.5845,-1.5339,-1.4675,-1.4562,-1.4486,-1.4291,-1.4453,-1.4486,-1.428,-1.4419,-1.4512,-1.4547,-1.4731,-1.4823,-1.4812,-1.4686,-1.464,-1.464,-1.5062,-1.5231,-1.5017,-1.5768,-1.6323,-1.6727,-1.6616,-1.6741,-1.7036,-1.6746,-1.665,-1.6607,-1.6479,-1.6436,-1.6392,-1.6275,-1.6057,-1.5869,-1.5869,-1.5736,-1.5591]}]]